Time,TemperatureF,DewpointF,PressureIn,WindDirection,WindDirectionDegrees,WindSpeedMPH,WindSpeedGustMPH,Humidity,HourlyPrecipIn,Conditions,Clouds,dailyrainin,SoftwareType,DateUTC
2013-01-12 00:00:00,50.7,45.1,29.69,SE,135,6.2,6.2,81,0.00,,,0.00,VWS V14.01,2013-01-12 06:00:00,
2013-01-12 00:01:00,50.7,45.1,29.69,SE,135,6.2,6.2,81,0.00,,,0.00,VWS V14.01,2013-01-12 06:01:00,
2013-01-12 00:02:00,50.9,45.3,29.69,SE,135,6.2,6.2,81,0.00,,,0.00,VWS V14.01,2013-01-12 06:02:00,
2013-01-12 00:03:00,50.9,45.3,29.69,SE,135,6.2,6.2,81,0.00,,,0.00,VWS V14.01,2013-01-12 06:03:00,
2013-01-12 00:04:00,50.7,44.8,29.69,SE,135,6.2,6.2,80,0.00,,,0.00,VWS V14.01,2013-01-12 06:04:00,
2013-01-12 00:05:00,50.7,44.8,29.69,SE,135,6.2,6.2,80,0.00,,,0.00,VWS V14.01,2013-01-12 06:05:00,
2013-01-12 00:06:00,50.7,45.1,29.70,SE,135,6.2,6.2,81,0.00,,,0.00,VWS V14.01,2013-01-12 06:06:00,
2013-01-12 00:07:00,50.7,45.1,29.69,SE,135,6.2,6.2,81,0.00,,,0.00,VWS V14.01,2013-01-12 06:07:00,
2013-01-12 00:08:00,50.7,45.1,29.69,SE,135,6.2,6.2,81,0.00,,,0.00,VWS V14.01,2013-01-12 06:08:00,
2013-01-12 00:09:00,50.7,45.1,29.69,SE,135,6.2,6.2,81,0.00,,,0.00,VWS V14.01,2013-01-12 06:09:00,
2013-01-12 00:10:00,50.5,44.9,29.69,SE,135,6.2,6.2,81,0.00,,,0.00,VWS V14.01,2013-01-12 06:10:00,
2013-01-12 00:11:00,50.5,44.9,29.69,SE,135,6.2,6.2,81,0.00,,,0.00,VWS V14.01,2013-01-12 06:11:00,
2013-01-12 00:12:00,50.7,45.1,29.69,SE,135,6.2,6.2,81,0.00,,,0.00,VWS V14.01,2013-01-12 06:12:00,
2013-01-12 00:13:00,50.7,45.1,29.69,SE,135,6.2,6.2,81,0.00,,,0.00,VWS V14.01,2013-01-12 06:13:00,
2013-01-12 00:14:00,50.7,45.1,29.69,SE,135,6.2,6.2,81,0.00,,,0.00,VWS V14.01,2013-01-12 06:14:00,
2013-01-12 00:15:00,50.7,45.1,29.69,SE,135,6.2,6.2,81,0.00,,,0.00,VWS V14.01,2013-01-12 06:15:00,
2013-01-12 00:16:00,50.7,45.1,29.69,SE,135,6.2,6.2,81,0.00,,,0.00,VWS V14.01,2013-01-12 06:16:00,
2013-01-12 00:17:00,50.5,44.9,29.69,SE,135,6.2,6.2,81,0.00,,,0.00,VWS V14.01,2013-01-12 06:17:00,
2013-01-12 00:18:00,50.5,44.9,29.69,SE,135,6.2,6.2,81,0.00,,,0.00,VWS V14.01,2013-01-12 06:18:00,
2013-01-12 00:19:00,50.5,44.9,29.69,SE,135,6.2,6.2,81,0.00,,,0.00,VWS V14.01,2013-01-12 06:19:00,
2013-01-12 00:20:00,50.5,44.9,29.69,SE,135,6.2,6.2,81,0.00,,,0.00,VWS V14.01,2013-01-12 06:20:00,
2013-01-12 00:21:00,50.7,45.1,29.69,SE,135,6.2,6.2,81,0.00,,,0.00,VWS V14.01,2013-01-12 06:21:00,
2013-01-12 00:22:00,50.7,45.1,29.69,SE,135,6.2,6.2,81,0.00,,,0.00,VWS V14.01,2013-01-12 06:22:00,
2013-01-12 00:23:00,50.5,44.9,29.69,SE,135,6.2,6.2,81,0.00,,,0.00,VWS V14.01,2013-01-12 06:23:00,
2013-01-12 00:24:00,50.5,44.9,29.69,SE,135,6.2,6.2,81,0.00,,,0.00,VWS V14.01,2013-01-12 06:24:00,
2013-01-12 00:25:00,50.5,44.9,29.69,SE,135,6.2,6.2,81,0.00,,,0.00,VWS V14.01,2013-01-12 06:25:00,
2013-01-12 00:26:00,50.5,44.9,29.70,SE,135,6.2,6.2,81,0.00,,,0.00,VWS V14.01,2013-01-12 06:26:00,
2013-01-12 00:27:00,50.5,44.9,29.69,SE,135,6.2,6.2,81,0.00,,,0.00,VWS V14.01,2013-01-12 06:27:00,
2013-01-12 00:28:00,50.5,44.9,29.69,SE,135,6.2,6.2,81,0.00,,,0.00,VWS V14.01,2013-01-12 06:28:00,
2013-01-12 00:29:00,50.5,44.9,29.69,SE,135,6.2,6.2,81,0.00,,,0.00,VWS V14.01,2013-01-12 06:29:00,
2013-01-12 00:30:00,50.3,44.7,29.69,SE,135,6.2,6.2,81,0.00,,,0.00,VWS V14.01,2013-01-12 06:30:00,
2013-01-12 00:31:00,50.3,44.7,29.69,SE,135,6.2,6.2,81,0.00,,,0.00,VWS V14.01,2013-01-12 06:31:00,
2013-01-12 00:32:00,50.3,44.7,29.69,SE,135,6.2,6.2,81,0.00,,,0.00,VWS V14.01,2013-01-12 06:32:00,
2013-01-12 00:33:00,50.3,44.7,29.69,SE,135,6.2,6.2,81,0.00,,,0.00,VWS V14.01,2013-01-12 06:33:00,
2013-01-12 00:34:00,50.3,44.7,29.70,SE,135,6.2,6.2,81,0.00,,,0.00,VWS V14.01,2013-01-12 06:34:00,
2013-01-12 00:35:00,50.3,44.7,29.70,SE,135,6.2,6.2,81,0.00,,,0.00,VWS V14.01,2013-01-12 06:35:00,
2013-01-12 00:36:00,50.1,44.5,29.70,SE,135,6.2,6.2,81,0.00,,,0.00,VWS V14.01,2013-01-12 06:36:00,
2013-01-12 00:37:00,50.1,44.5,29.70,SE,135,6.2,6.2,81,0.00,,,0.00,VWS V14.01,2013-01-12 06:37:00,
2013-01-12 00:38:00,50.1,44.5,29.71,SE,135,6.2,6.2,81,0.00,,,0.00,VWS V14.01,2013-01-12 06:38:00,
2013-01-12 00:39:00,50.1,44.5,29.71,SE,135,6.2,6.2,81,0.00,,,0.00,VWS V14.01,2013-01-12 06:39:00,
2013-01-12 00:40:00,50.1,44.5,29.71,SE,135,6.2,6.2,81,0.00,,,0.00,VWS V14.01,2013-01-12 06:40:00,
2013-01-12 00:41:00,50.1,44.5,29.71,SE,135,6.2,6.2,81,0.00,,,0.00,VWS V14.01,2013-01-12 06:41:00,
2013-01-12 00:42:00,50.3,44.7,29.70,SE,135,6.2,6.2,81,0.00,,,0.00,VWS V14.01,2013-01-12 06:42:00,
2013-01-12 00:43:00,50.3,44.7,29.70,SE,135,6.2,6.2,81,0.00,,,0.00,VWS V14.01,2013-01-12 06:43:00,
2013-01-12 00:44:00,50.3,44.7,29.70,SE,135,6.2,6.2,81,0.00,,,0.00,VWS V14.01,2013-01-12 06:44:00,
2013-01-12 00:45:00,50.3,44.7,29.71,SE,135,6.2,6.2,81,0.00,,,0.00,VWS V14.01,2013-01-12 06:45:00,
2013-01-12 00:46:00,50.3,44.7,29.70,SE,135,6.2,6.2,81,0.00,,,0.00,VWS V14.01,2013-01-12 06:46:00,
2013-01-12 00:47:00,50.1,44.5,29.71,SE,135,6.2,6.2,81,0.00,,,0.00,VWS V14.01,2013-01-12 06:47:00,
2013-01-12 00:48:00,50.1,44.5,29.70,SE,135,6.2,6.2,81,0.00,,,0.00,VWS V14.01,2013-01-12 06:48:00,
2013-01-12 00:49:00,50.3,44.7,29.70,SE,135,6.2,6.2,81,0.00,,,0.00,VWS V14.01,2013-01-12 06:49:00,
2013-01-12 00:50:00,50.3,44.7,29.70,SE,135,6.2,6.2,81,0.00,,,0.00,VWS V14.01,2013-01-12 06:50:00,
2013-01-12 00:51:00,50.5,44.9,29.70,SE,135,6.2,6.2,81,0.00,,,0.00,VWS V14.01,2013-01-12 06:51:00,
2013-01-12 00:52:00,50.5,44.9,29.70,SE,135,6.2,6.2,81,0.00,,,0.00,VWS V14.01,2013-01-12 06:52:00,
2013-01-12 00:53:00,50.3,44.7,29.71,SE,135,6.2,6.2,81,0.00,,,0.00,VWS V14.01,2013-01-12 06:53:00,
2013-01-12 00:54:00,50.3,44.7,29.71,SE,135,6.2,6.2,81,0.00,,,0.00,VWS V14.01,2013-01-12 06:54:00,
2013-01-12 00:55:00,50.1,44.5,29.70,SE,135,6.2,6.2,81,0.00,,,0.00,VWS V14.01,2013-01-12 06:55:00,
2013-01-12 00:56:00,50.1,44.5,29.71,SE,135,6.2,6.2,81,0.00,,,0.00,VWS V14.01,2013-01-12 06:56:00,
2013-01-12 00:57:00,50.1,44.8,29.71,SE,135,6.2,6.2,82,0.00,,,0.00,VWS V14.01,2013-01-12 06:57:00,
2013-01-12 00:58:00,50.1,44.8,29.70,SE,135,6.2,6.2,82,0.00,,,0.00,VWS V14.01,2013-01-12 06:58:00,
2013-01-12 00:59:00,49.8,44.2,29.70,SE,135,6.2,6.2,81,0.00,,,0.00,VWS V14.01,2013-01-12 06:59:00,
2013-01-12 01:00:00,49.8,44.2,29.70,SE,135,6.2,6.2,81,0.00,,,0.00,VWS V14.01,2013-01-12 07:00:00,
2013-01-12 01:01:00,49.8,44.2,29.71,SE,135,6.2,6.2,81,0.00,,,0.00,VWS V14.01,2013-01-12 07:01:00,
2013-01-12 01:02:00,50.1,44.8,29.71,SE,135,6.2,6.2,82,0.00,,,0.00,VWS V14.01,2013-01-12 07:02:00,
2013-01-12 01:03:00,50.1,44.8,29.71,SE,135,6.2,6.2,82,0.00,,,0.00,VWS V14.01,2013-01-12 07:03:00,
2013-01-12 01:04:00,50.1,44.5,29.71,SE,135,6.2,6.2,81,0.00,,,0.00,VWS V14.01,2013-01-12 07:04:00,
2013-01-12 01:05:00,50.1,44.5,29.71,SE,135,6.2,6.2,81,0.00,,,0.00,VWS V14.01,2013-01-12 07:05:00,
2013-01-12 01:06:00,50.0,44.4,29.71,SE,135,6.2,6.2,81,0.00,,,0.00,VWS V14.01,2013-01-12 07:06:00,
2013-01-12 01:07:00,50.0,44.4,29.71,SE,135,6.2,6.2,81,0.00,,,0.00,VWS V14.01,2013-01-12 07:07:00,
2013-01-12 01:08:00,49.8,44.5,29.71,SE,135,6.2,6.2,82,0.00,,,0.00,VWS V14.01,2013-01-12 07:08:00,
2013-01-12 01:09:00,49.8,44.5,29.71,SE,135,6.2,6.2,82,0.00,,,0.00,VWS V14.01,2013-01-12 07:09:00,
2013-01-12 01:10:00,49.8,44.5,29.71,SE,135,6.2,6.2,82,0.00,,,0.00,VWS V14.01,2013-01-12 07:10:00,
2013-01-12 01:11:00,49.8,44.5,29.71,SE,135,6.2,6.2,82,0.00,,,0.00,VWS V14.01,2013-01-12 07:11:00,
2013-01-12 01:12:00,49.8,44.2,29.71,SE,135,6.2,6.2,81,0.00,,,0.00,VWS V14.01,2013-01-12 07:12:00,
2013-01-12 01:13:00,49.8,44.2,29.71,SE,135,6.2,6.2,81,0.00,,,0.00,VWS V14.01,2013-01-12 07:13:00,
2013-01-12 01:14:00,49.8,44.5,29.71,SE,135,6.2,6.2,82,0.00,,,0.00,VWS V14.01,2013-01-12 07:14:00,
2013-01-12 01:15:00,49.8,44.5,29.71,SE,135,6.2,6.2,82,0.00,,,0.00,VWS V14.01,2013-01-12 07:15:00,
2013-01-12 01:16:00,49.8,44.5,29.71,SE,135,6.2,6.2,82,0.00,,,0.00,VWS V14.01,2013-01-12 07:16:00,
2013-01-12 01:17:00,49.8,44.5,29.71,SE,135,6.2,6.2,82,0.00,,,0.00,VWS V14.01,2013-01-12 07:17:00,
2013-01-12 01:18:00,49.8,44.5,29.71,SE,135,6.2,6.2,82,0.00,,,0.00,VWS V14.01,2013-01-12 07:18:00,
2013-01-12 01:19:00,49.8,44.5,29.71,SE,135,6.2,6.2,82,0.00,,,0.00,VWS V14.01,2013-01-12 07:19:00,
2013-01-12 01:20:00,49.8,44.5,29.71,SE,135,6.2,6.2,82,0.00,,,0.00,VWS V14.01,2013-01-12 07:20:00,
2013-01-12 01:21:00,49.8,44.5,29.71,SE,135,6.2,6.2,82,0.00,,,0.00,VWS V14.01,2013-01-12 07:21:00,
2013-01-12 01:22:00,49.8,44.5,29.71,SE,135,6.2,6.2,82,0.00,,,0.00,VWS V14.01,2013-01-12 07:22:00,
2013-01-12 01:23:00,49.8,44.5,29.71,SE,135,6.2,6.2,82,0.00,,,0.00,VWS V14.01,2013-01-12 07:23:00,
2013-01-12 01:24:00,49.8,44.5,29.71,SE,135,6.2,6.2,82,0.00,,,0.00,VWS V14.01,2013-01-12 07:24:00,
2013-01-12 01:25:00,49.8,44.5,29.71,SE,135,6.2,6.2,82,0.00,,,0.00,VWS V14.01,2013-01-12 07:25:00,
2013-01-12 01:26:00,49.8,44.5,29.72,SE,135,6.2,6.2,82,0.00,,,0.00,VWS V14.01,2013-01-12 07:26:00,
2013-01-12 01:27:00,49.8,44.5,29.72,SE,135,6.2,6.2,82,0.00,,,0.00,VWS V14.01,2013-01-12 07:27:00,
2013-01-12 01:28:00,49.8,44.5,29.71,SE,135,6.2,6.2,82,0.00,,,0.00,VWS V14.01,2013-01-12 07:28:00,
2013-01-12 01:29:00,49.8,44.5,29.71,SE,135,6.2,6.2,82,0.00,,,0.00,VWS V14.01,2013-01-12 07:29:00,
2013-01-12 01:30:00,49.6,44.3,29.71,SE,135,6.2,6.2,82,0.00,,,0.00,VWS V14.01,2013-01-12 07:30:00,
2013-01-12 01:31:00,49.6,44.3,29.71,SE,135,6.2,6.2,82,0.00,,,0.00,VWS V14.01,2013-01-12 07:31:00,
2013-01-12 01:32:00,49.8,44.5,29.71,SE,135,6.2,6.2,82,0.00,,,0.00,VWS V14.01,2013-01-12 07:32:00,
2013-01-12 01:33:00,49.8,44.5,29.72,SE,135,6.2,6.2,82,0.00,,,0.00,VWS V14.01,2013-01-12 07:33:00,
2013-01-12 01:34:00,49.6,44.3,29.72,SE,135,6.2,6.2,82,0.00,,,0.00,VWS V14.01,2013-01-12 07:34:00,
2013-01-12 01:35:00,49.6,44.3,29.72,SE,135,6.2,6.2,82,0.00,,,0.00,VWS V14.01,2013-01-12 07:35:00,
2013-01-12 01:36:00,49.6,44.3,29.72,SE,135,6.2,6.2,82,0.00,,,0.00,VWS V14.01,2013-01-12 07:36:00,
2013-01-12 01:37:00,49.6,44.3,29.72,SE,135,6.2,6.2,82,0.00,,,0.00,VWS V14.01,2013-01-12 07:37:00,
2013-01-12 01:38:00,49.6,44.3,29.72,SE,135,6.2,6.2,82,0.00,,,0.00,VWS V14.01,2013-01-12 07:38:00,
2013-01-12 01:39:00,49.6,44.3,29.71,SE,135,6.2,6.2,82,0.00,,,0.00,VWS V14.01,2013-01-12 07:39:00,
2013-01-12 01:40:00,49.6,44.3,29.72,SE,135,6.2,6.2,82,0.00,,,0.00,VWS V14.01,2013-01-12 07:40:00,
2013-01-12 01:41:00,49.6,44.3,29.71,SE,135,6.2,6.2,82,0.00,,,0.00,VWS V14.01,2013-01-12 07:41:00,
2013-01-12 01:42:00,49.8,44.5,29.71,SE,135,6.2,6.2,82,0.00,,,0.00,VWS V14.01,2013-01-12 07:42:00,
2013-01-12 01:43:00,49.8,44.5,29.71,SE,135,6.2,6.2,82,0.00,,,0.00,VWS V14.01,2013-01-12 07:43:00,
2013-01-12 01:44:00,49.6,44.3,29.72,SE,135,6.2,6.2,82,0.00,,,0.00,VWS V14.01,2013-01-12 07:44:00,
2013-01-12 01:45:00,49.6,44.3,29.71,SE,135,6.2,6.2,82,0.00,,,0.00,VWS V14.01,2013-01-12 07:45:00,
2013-01-12 01:46:00,49.6,44.3,29.72,SE,135,6.2,6.2,82,0.00,,,0.00,VWS V14.01,2013-01-12 07:46:00,
2013-01-12 01:47:00,49.6,44.3,29.72,SE,135,6.2,6.2,82,0.00,,,0.00,VWS V14.01,2013-01-12 07:47:00,
2013-01-12 01:48:00,49.6,44.3,29.71,SE,135,6.2,6.2,82,0.00,,,0.00,VWS V14.01,2013-01-12 07:48:00,
2013-01-12 01:49:00,49.2,44.0,29.72,SE,135,6.2,6.2,82,0.00,,,0.00,VWS V14.01,2013-01-12 07:49:00,
2013-01-12 01:50:00,49.2,44.0,29.72,SE,135,6.2,6.2,82,0.00,,,0.00,VWS V14.01,2013-01-12 07:50:00,
2013-01-12 01:51:00,49.2,44.0,29.71,SE,135,6.2,6.2,82,0.00,,,0.00,VWS V14.01,2013-01-12 07:51:00,
2013-01-12 01:52:00,49.2,44.0,29.72,SE,135,6.2,6.2,82,0.00,,,0.00,VWS V14.01,2013-01-12 07:52:00,
2013-01-12 01:53:00,49.2,44.0,29.72,SE,135,6.2,6.2,82,0.00,,,0.00,VWS V14.01,2013-01-12 07:53:00,
2013-01-12 01:54:00,49.2,44.0,29.72,SE,135,6.2,6.2,82,0.00,,,0.00,VWS V14.01,2013-01-12 07:54:00,
2013-01-12 01:55:00,49.2,44.3,29.72,SE,135,6.2,6.2,83,0.00,,,0.00,VWS V14.01,2013-01-12 07:55:00,
2013-01-12 01:56:00,49.2,44.3,29.72,SE,135,6.2,6.2,83,0.00,,,0.00,VWS V14.01,2013-01-12 07:56:00,
2013-01-12 01:57:00,49.2,44.3,29.72,SE,135,6.2,6.2,83,0.00,,,0.00,VWS V14.01,2013-01-12 07:57:00,
2013-01-12 01:58:00,49.2,44.3,29.72,SE,135,6.2,6.2,83,0.00,,,0.00,VWS V14.01,2013-01-12 07:58:00,
2013-01-12 01:59:00,49.2,44.3,29.72,SE,135,6.2,6.2,83,0.00,,,0.00,VWS V14.01,2013-01-12 07:59:00,
2013-01-12 02:00:00,49.2,44.3,29.72,SE,135,6.2,6.2,83,0.00,,,0.00,VWS V14.01,2013-01-12 08:00:00,
2013-01-12 02:01:00,49.2,44.0,29.72,SE,135,6.2,6.2,82,0.00,,,0.00,VWS V14.01,2013-01-12 08:01:00,
2013-01-12 02:02:00,49.2,44.3,29.72,SE,135,6.2,6.2,83,0.00,,,0.00,VWS V14.01,2013-01-12 08:02:00,
2013-01-12 02:03:00,49.2,44.3,29.72,SE,135,6.2,6.2,83,0.00,,,0.00,VWS V14.01,2013-01-12 08:03:00,
2013-01-12 02:04:00,49.1,43.8,29.72,SE,135,6.2,6.2,82,0.00,,,0.00,VWS V14.01,2013-01-12 08:04:00,
2013-01-12 02:05:00,49.1,43.8,29.72,SE,135,6.2,6.2,82,0.00,,,0.00,VWS V14.01,2013-01-12 08:05:00,
2013-01-12 02:06:00,48.9,44.0,29.72,SE,135,6.2,6.2,83,0.00,,,0.00,VWS V14.01,2013-01-12 08:06:00,
2013-01-12 02:07:00,48.9,44.0,29.72,SE,135,6.2,6.2,83,0.00,,,0.00,VWS V14.01,2013-01-12 08:07:00,
2013-01-12 02:08:00,48.9,44.0,29.72,SE,135,6.2,6.2,83,0.00,,,0.00,VWS V14.01,2013-01-12 08:08:00,
2013-01-12 02:09:00,48.9,44.0,29.72,SE,135,6.2,6.2,83,0.00,,,0.00,VWS V14.01,2013-01-12 08:09:00,
2013-01-12 02:10:00,49.1,44.2,29.72,SE,135,6.2,6.2,83,0.00,,,0.00,VWS V14.01,2013-01-12 08:10:00,
2013-01-12 02:11:00,49.1,44.2,29.72,SE,135,6.2,6.2,83,0.00,,,0.00,VWS V14.01,2013-01-12 08:11:00,
2013-01-12 02:12:00,49.1,44.2,29.72,SE,135,6.2,6.2,83,0.00,,,0.00,VWS V14.01,2013-01-12 08:12:00,
2013-01-12 02:13:00,49.1,44.2,29.72,SE,135,6.2,6.2,83,0.00,,,0.00,VWS V14.01,2013-01-12 08:13:00,
2013-01-12 02:14:00,49.1,44.2,29.72,SE,135,6.2,6.2,83,0.00,,,0.00,VWS V14.01,2013-01-12 08:14:00,
2013-01-12 02:15:00,49.1,43.8,29.72,SE,135,6.2,6.2,82,0.00,,,0.00,VWS V14.01,2013-01-12 08:15:00,
2013-01-12 02:16:00,49.1,43.8,29.72,SE,135,6.2,6.2,82,0.00,,,0.00,VWS V14.01,2013-01-12 08:16:00,
2013-01-12 02:17:00,49.2,44.0,29.72,SE,135,6.2,6.2,82,0.00,,,0.00,VWS V14.01,2013-01-12 08:17:00,
2013-01-12 02:18:00,49.2,44.0,29.72,SE,135,6.2,6.2,82,0.00,,,0.00,VWS V14.01,2013-01-12 08:18:00,
2013-01-12 02:19:00,49.2,44.0,29.72,SE,135,6.2,6.2,82,0.00,,,0.00,VWS V14.01,2013-01-12 08:19:00,
2013-01-12 02:20:00,49.2,44.0,29.72,SE,135,6.2,6.2,82,0.00,,,0.00,VWS V14.01,2013-01-12 08:20:00,
2013-01-12 02:21:00,49.4,44.1,29.72,SE,135,6.2,6.2,82,0.00,,,0.00,VWS V14.01,2013-01-12 08:21:00,
2013-01-12 02:22:00,49.4,44.1,29.72,SE,135,6.2,6.2,82,0.00,,,0.00,VWS V14.01,2013-01-12 08:22:00,
2013-01-12 02:23:00,49.2,44.0,29.72,SE,135,6.2,6.2,82,0.00,,,0.00,VWS V14.01,2013-01-12 08:23:00,
2013-01-12 02:24:00,49.2,44.0,29.72,SE,135,6.2,6.2,82,0.00,,,0.00,VWS V14.01,2013-01-12 08:24:00,
2013-01-12 02:25:00,49.4,44.1,29.72,SE,135,6.2,6.2,82,0.00,,,0.00,VWS V14.01,2013-01-12 08:25:00,
2013-01-12 02:26:00,49.4,44.1,29.72,SE,135,6.2,6.2,82,0.00,,,0.00,VWS V14.01,2013-01-12 08:26:00,
2013-01-12 02:27:00,49.4,44.1,29.73,SE,135,6.2,6.2,82,0.00,,,0.00,VWS V14.01,2013-01-12 08:27:00,
2013-01-12 02:28:00,49.4,44.1,29.72,SE,135,6.2,6.2,82,0.00,,,0.00,VWS V14.01,2013-01-12 08:28:00,
2013-01-12 02:29:00,49.4,44.1,29.72,SE,135,6.2,6.2,82,0.00,,,0.00,VWS V14.01,2013-01-12 08:29:00,
2013-01-12 02:30:00,49.6,44.3,29.73,SE,135,6.2,6.2,82,0.00,,,0.00,VWS V14.01,2013-01-12 08:30:00,
2013-01-12 02:31:00,49.6,44.3,29.73,SE,135,6.2,6.2,82,0.00,,,0.00,VWS V14.01,2013-01-12 08:31:00,
2013-01-12 02:32:00,49.6,44.3,29.73,SE,135,6.2,6.2,82,0.00,,,0.00,VWS V14.01,2013-01-12 08:32:00,
2013-01-12 02:33:00,49.6,44.3,29.74,SE,135,6.2,6.2,82,0.00,,,0.00,VWS V14.01,2013-01-12 08:33:00,
2013-01-12 02:34:00,49.6,44.3,29.74,SE,135,6.2,6.2,82,0.00,,,0.00,VWS V14.01,2013-01-12 08:34:00,
2013-01-12 02:35:00,49.6,44.3,29.73,SE,135,6.2,6.2,82,0.00,,,0.00,VWS V14.01,2013-01-12 08:35:00,
2013-01-12 02:36:00,49.6,44.3,29.73,SE,135,6.2,6.2,82,0.00,,,0.00,VWS V14.01,2013-01-12 08:36:00,
2013-01-12 02:37:00,49.6,44.3,29.73,SE,135,6.2,6.2,82,0.00,,,0.00,VWS V14.01,2013-01-12 08:37:00,
2013-01-12 02:38:00,49.6,44.3,29.73,SE,135,6.2,6.2,82,0.00,,,0.00,VWS V14.01,2013-01-12 08:38:00,
2013-01-12 02:39:00,49.6,44.3,29.73,SE,135,6.2,6.2,82,0.00,,,0.00,VWS V14.01,2013-01-12 08:39:00,
2013-01-12 02:40:00,49.8,44.5,29.72,SE,135,6.2,6.2,82,0.00,,,0.00,VWS V14.01,2013-01-12 08:40:00,
2013-01-12 02:41:00,49.8,44.5,29.73,SE,135,6.2,6.2,82,0.00,,,0.00,VWS V14.01,2013-01-12 08:41:00,
2013-01-12 02:42:00,49.8,44.5,29.73,SE,135,6.2,6.2,82,0.00,,,0.00,VWS V14.01,2013-01-12 08:42:00,
2013-01-12 02:43:00,49.8,44.5,29.73,SE,135,6.2,6.2,82,0.00,,,0.00,VWS V14.01,2013-01-12 08:43:00,
2013-01-12 02:44:00,49.8,44.5,29.73,SE,135,6.2,6.2,82,0.00,,,0.00,VWS V14.01,2013-01-12 08:44:00,
2013-01-12 02:45:00,49.8,44.2,29.73,SE,135,6.2,6.2,81,0.00,,,0.00,VWS V14.01,2013-01-12 08:45:00,
2013-01-12 02:46:00,49.8,44.2,29.74,SE,135,6.2,6.2,81,0.00,,,0.00,VWS V14.01,2013-01-12 08:46:00,
2013-01-12 02:47:00,49.8,44.5,29.74,SE,135,6.2,6.2,82,0.00,,,0.00,VWS V14.01,2013-01-12 08:47:00,
2013-01-12 02:48:00,49.8,44.5,29.74,SE,135,6.2,6.2,82,0.00,,,0.00,VWS V14.01,2013-01-12 08:48:00,
2013-01-12 02:49:00,49.6,44.3,29.74,SE,135,6.2,6.2,82,0.00,,,0.00,VWS V14.01,2013-01-12 08:49:00,
2013-01-12 02:50:00,49.6,44.3,29.73,SE,135,6.2,6.2,82,0.00,,,0.00,VWS V14.01,2013-01-12 08:50:00,
2013-01-12 02:51:00,49.8,44.5,29.74,SE,135,6.2,6.2,82,0.00,,,0.00,VWS V14.01,2013-01-12 08:51:00,
2013-01-12 02:52:00,49.8,44.5,29.74,SE,135,6.2,6.2,82,0.00,,,0.00,VWS V14.01,2013-01-12 08:52:00,
2013-01-12 02:53:00,49.8,44.2,29.74,SE,135,6.2,6.2,81,0.00,,,0.00,VWS V14.01,2013-01-12 08:53:00,
2013-01-12 02:54:00,49.8,44.2,29.74,SE,135,6.2,6.2,81,0.00,,,0.00,VWS V14.01,2013-01-12 08:54:00,
2013-01-12 02:55:00,49.8,44.2,29.74,SE,135,6.2,6.2,81,0.00,,,0.00,VWS V14.01,2013-01-12 08:55:00,
2013-01-12 02:56:00,49.8,44.2,29.74,SE,135,6.2,6.2,81,0.00,,,0.00,VWS V14.01,2013-01-12 08:56:00,
2013-01-12 02:57:00,49.6,44.0,29.74,SE,135,6.2,6.2,81,0.00,,,0.00,VWS V14.01,2013-01-12 08:57:00,
2013-01-12 02:58:00,49.6,44.0,29.74,SE,135,6.2,6.2,81,0.00,,,0.00,VWS V14.01,2013-01-12 08:58:00,
2013-01-12 02:59:00,49.6,44.3,29.74,SE,135,6.2,6.2,82,0.00,,,0.00,VWS V14.01,2013-01-12 08:59:00,
2013-01-12 03:00:00,49.6,44.3,29.74,SE,135,6.2,6.2,82,0.00,,,0.00,VWS V14.01,2013-01-12 09:00:00,
2013-01-12 03:01:00,49.6,44.3,29.74,SE,135,6.2,6.2,82,0.00,,,0.00,VWS V14.01,2013-01-12 09:01:00,
2013-01-12 03:02:00,49.6,44.3,29.74,SE,135,6.2,6.2,82,0.00,,,0.00,VWS V14.01,2013-01-12 09:02:00,
2013-01-12 03:03:00,49.6,44.3,29.74,SE,135,6.2,6.2,82,0.00,,,0.00,VWS V14.01,2013-01-12 09:03:00,
2013-01-12 03:04:00,49.6,44.3,29.74,SE,135,6.2,6.2,82,0.00,,,0.00,VWS V14.01,2013-01-12 09:04:00,
2013-01-12 03:05:00,49.6,44.3,29.74,SE,135,6.2,6.2,82,0.00,,,0.00,VWS V14.01,2013-01-12 09:05:00,
2013-01-12 03:06:00,49.6,44.0,29.74,SE,135,6.2,6.2,81,0.00,,,0.00,VWS V14.01,2013-01-12 09:06:00,
2013-01-12 03:07:00,49.6,44.0,29.74,SE,135,6.2,6.2,81,0.00,,,0.00,VWS V14.01,2013-01-12 09:07:00,
2013-01-12 03:08:00,49.2,43.6,29.74,SE,135,6.2,6.2,81,0.00,,,0.00,VWS V14.01,2013-01-12 09:08:00,
2013-01-12 03:09:00,49.2,43.6,29.74,SE,135,6.2,6.2,81,0.00,,,0.00,VWS V14.01,2013-01-12 09:09:00,
2013-01-12 03:10:00,49.2,44.0,29.74,SE,135,6.2,6.2,82,0.00,,,0.00,VWS V14.01,2013-01-12 09:10:00,
2013-01-12 03:11:00,49.2,44.0,29.74,SE,135,6.2,6.2,82,0.00,,,0.00,VWS V14.01,2013-01-12 09:11:00,
2013-01-12 03:12:00,49.2,44.0,29.74,SE,135,6.2,6.2,82,0.00,,,0.00,VWS V14.01,2013-01-12 09:12:00,
2013-01-12 03:13:00,49.6,44.0,29.74,SE,135,6.2,6.2,81,0.00,,,0.00,VWS V14.01,2013-01-12 09:13:00,
2013-01-12 03:14:00,49.6,44.0,29.74,SE,135,6.2,6.2,81,0.00,,,0.00,VWS V14.01,2013-01-12 09:14:00,
2013-01-12 03:15:00,49.6,44.0,29.74,SE,135,6.2,6.2,81,0.00,,,0.00,VWS V14.01,2013-01-12 09:15:00,
2013-01-12 03:16:00,49.6,44.0,29.74,SE,135,6.2,6.2,81,0.00,,,0.00,VWS V14.01,2013-01-12 09:16:00,
2013-01-12 03:17:00,49.6,44.3,29.74,SE,135,6.2,6.2,82,0.00,,,0.00,VWS V14.01,2013-01-12 09:17:00,
2013-01-12 03:18:00,49.6,44.3,29.74,SE,135,6.2,6.2,82,0.00,,,0.00,VWS V14.01,2013-01-12 09:18:00,
2013-01-12 03:19:00,49.8,44.2,29.74,SE,135,6.2,6.2,81,0.00,,,0.00,VWS V14.01,2013-01-12 09:19:00,
2013-01-12 03:20:00,49.8,44.2,29.74,SE,135,6.2,6.2,81,0.00,,,0.00,VWS V14.01,2013-01-12 09:20:00,
2013-01-12 03:21:00,49.8,44.2,29.74,SE,135,6.2,6.2,81,0.00,,,0.00,VWS V14.01,2013-01-12 09:21:00,
2013-01-12 03:22:00,49.8,44.2,29.74,SE,135,6.2,6.2,81,0.00,,,0.00,VWS V14.01,2013-01-12 09:22:00,
2013-01-12 03:23:00,49.6,44.0,29.74,SE,135,6.2,6.2,81,0.00,,,0.00,VWS V14.01,2013-01-12 09:23:00,
2013-01-12 03:24:00,49.6,44.0,29.74,SE,135,6.2,6.2,81,0.00,,,0.00,VWS V14.01,2013-01-12 09:24:00,
2013-01-12 03:25:00,49.6,44.0,29.74,SE,135,6.2,6.2,81,0.00,,,0.00,VWS V14.01,2013-01-12 09:25:00,
2013-01-12 03:26:00,49.6,44.0,29.75,SE,135,6.2,6.2,81,0.00,,,0.00,VWS V14.01,2013-01-12 09:26:00,
2013-01-12 03:27:00,49.6,44.0,29.75,SE,135,6.2,6.2,81,0.00,,,0.00,VWS V14.01,2013-01-12 09:27:00,
2013-01-12 03:28:00,49.6,44.0,29.75,SE,135,6.2,6.2,81,0.00,,,0.00,VWS V14.01,2013-01-12 09:28:00,
2013-01-12 03:29:00,49.6,44.0,29.75,SE,135,6.2,6.2,81,0.00,,,0.00,VWS V14.01,2013-01-12 09:29:00,
2013-01-12 03:30:00,49.6,44.0,29.75,SE,135,6.2,6.2,81,0.00,,,0.00,VWS V14.01,2013-01-12 09:30:00,
2013-01-12 03:31:00,49.6,44.0,29.75,SE,135,6.2,6.2,81,0.00,,,0.00,VWS V14.01,2013-01-12 09:31:00,
2013-01-12 03:32:00,49.4,43.8,29.75,SE,135,6.2,6.2,81,0.00,,,0.00,VWS V14.01,2013-01-12 09:32:00,
2013-01-12 03:33:00,49.4,43.8,29.75,SE,135,6.2,6.2,81,0.00,,,0.00,VWS V14.01,2013-01-12 09:33:00,
2013-01-12 03:34:00,49.2,43.6,29.75,SE,135,6.2,6.2,81,0.00,,,0.00,VWS V14.01,2013-01-12 09:34:00,
2013-01-12 03:35:00,49.2,43.6,29.75,SE,135,6.2,6.2,81,0.00,,,0.00,VWS V14.01,2013-01-12 09:35:00,
2013-01-12 03:36:00,49.2,43.6,29.75,SE,135,6.2,6.2,81,0.00,,,0.00,VWS V14.01,2013-01-12 09:36:00,
2013-01-12 03:37:00,49.2,43.6,29.75,SE,135,6.2,6.2,81,0.00,,,0.00,VWS V14.01,2013-01-12 09:37:00,
2013-01-12 03:38:00,49.6,44.0,29.75,SE,135,6.2,6.2,81,0.00,,,0.00,VWS V14.01,2013-01-12 09:38:00,
2013-01-12 03:39:00,49.6,44.0,29.75,SE,135,6.2,6.2,81,0.00,,,0.00,VWS V14.01,2013-01-12 09:39:00,
2013-01-12 03:40:00,49.2,43.6,29.75,SE,135,6.2,6.2,81,0.00,,,0.00,VWS V14.01,2013-01-12 09:40:00,
2013-01-12 03:41:00,49.2,43.6,29.75,SE,135,6.2,6.2,81,0.00,,,0.00,VWS V14.01,2013-01-12 09:41:00,
2013-01-12 03:42:00,49.2,43.6,29.75,SE,135,6.2,6.2,81,0.00,,,0.00,VWS V14.01,2013-01-12 09:42:00,
2013-01-12 03:43:00,49.2,43.6,29.75,SE,135,6.2,6.2,81,0.00,,,0.00,VWS V14.01,2013-01-12 09:43:00,
2013-01-12 03:44:00,49.2,43.6,29.75,SE,135,6.2,6.2,81,0.00,,,0.00,VWS V14.01,2013-01-12 09:44:00,
2013-01-12 03:45:00,49.2,43.6,29.75,SE,135,6.2,6.2,81,0.00,,,0.00,VWS V14.01,2013-01-12 09:45:00,
2013-01-12 03:46:00,49.2,43.6,29.75,SE,135,6.2,6.2,81,0.00,,,0.00,VWS V14.01,2013-01-12 09:46:00,
2013-01-12 03:47:00,49.1,43.5,29.75,SE,135,6.2,6.2,81,0.00,,,0.00,VWS V14.01,2013-01-12 09:47:00,
2013-01-12 03:48:00,49.1,43.5,29.75,SE,135,6.2,6.2,81,0.00,,,0.00,VWS V14.01,2013-01-12 09:48:00,
2013-01-12 03:49:00,49.1,43.8,29.75,SE,135,6.2,6.2,82,0.00,,,0.00,VWS V14.01,2013-01-12 09:49:00,
2013-01-12 03:50:00,49.1,43.8,29.76,SE,135,6.2,6.2,82,0.00,,,0.00,VWS V14.01,2013-01-12 09:50:00,
2013-01-12 03:51:00,49.1,43.5,29.76,SE,135,6.2,6.2,81,0.00,,,0.00,VWS V14.01,2013-01-12 09:51:00,
2013-01-12 03:52:00,49.1,43.5,29.75,SE,135,6.2,6.2,81,0.00,,,0.00,VWS V14.01,2013-01-12 09:52:00,
2013-01-12 03:53:00,49.2,43.6,29.75,SE,135,6.2,6.2,81,0.00,,,0.00,VWS V14.01,2013-01-12 09:53:00,
2013-01-12 03:54:00,49.2,43.6,29.76,SE,135,6.2,6.2,81,0.00,,,0.00,VWS V14.01,2013-01-12 09:54:00,
2013-01-12 03:55:00,49.2,43.6,29.76,SE,135,6.2,6.2,81,0.00,,,0.00,VWS V14.01,2013-01-12 09:55:00,
2013-01-12 03:56:00,49.2,43.6,29.76,SE,135,6.2,6.2,81,0.00,,,0.00,VWS V14.01,2013-01-12 09:56:00,
2013-01-12 03:57:00,49.1,43.5,29.76,SE,135,6.2,6.2,81,0.00,,,0.00,VWS V14.01,2013-01-12 09:57:00,
2013-01-12 03:58:00,49.1,43.5,29.76,SE,135,6.2,6.2,81,0.00,,,0.00,VWS V14.01,2013-01-12 09:58:00,
2013-01-12 03:59:00,49.1,43.5,29.76,SE,135,6.2,6.2,81,0.00,,,0.00,VWS V14.01,2013-01-12 09:59:00,
2013-01-12 04:00:00,48.9,43.3,29.76,SE,135,6.2,6.2,81,0.00,,,0.00,VWS V14.01,2013-01-12 10:00:00,
2013-01-12 04:01:00,48.9,43.3,29.76,SE,135,6.2,6.2,81,0.00,,,0.00,VWS V14.01,2013-01-12 10:01:00,
2013-01-12 04:02:00,48.7,43.5,29.76,SE,135,6.2,6.2,82,0.00,,,0.00,VWS V14.01,2013-01-12 10:02:00,
2013-01-12 04:03:00,48.7,43.5,29.76,SE,135,6.2,6.2,82,0.00,,,0.00,VWS V14.01,2013-01-12 10:03:00,
2013-01-12 04:04:00,48.7,43.5,29.76,SE,135,6.2,6.2,82,0.00,,,0.00,VWS V14.01,2013-01-12 10:04:00,
2013-01-12 04:05:00,48.7,43.5,29.77,SE,135,6.2,6.2,82,0.00,,,0.00,VWS V14.01,2013-01-12 10:05:00,
2013-01-12 04:06:00,48.7,43.5,29.77,SE,135,6.2,6.2,82,0.00,,,0.00,VWS V14.01,2013-01-12 10:06:00,
2013-01-12 04:07:00,48.7,43.5,29.77,SE,135,6.2,6.2,82,0.00,,,0.00,VWS V14.01,2013-01-12 10:07:00,
2013-01-12 04:08:00,48.7,43.5,29.77,SE,135,6.2,6.2,82,0.00,,,0.00,VWS V14.01,2013-01-12 10:08:00,
2013-01-12 04:09:00,48.7,43.5,29.77,SE,135,6.2,6.2,82,0.00,,,0.00,VWS V14.01,2013-01-12 10:09:00,
2013-01-12 04:10:00,48.7,43.5,29.77,SE,135,6.2,6.2,82,0.00,,,0.00,VWS V14.01,2013-01-12 10:10:00,
2013-01-12 04:11:00,48.7,43.5,29.77,SE,135,6.2,6.2,82,0.00,,,0.00,VWS V14.01,2013-01-12 10:11:00,
2013-01-12 04:12:00,48.7,43.1,29.77,SE,135,6.2,6.2,81,0.00,,,0.00,VWS V14.01,2013-01-12 10:12:00,
2013-01-12 04:13:00,48.7,43.1,29.77,SE,135,6.2,6.2,81,0.00,,,0.00,VWS V14.01,2013-01-12 10:13:00,
2013-01-12 04:14:00,48.7,43.1,29.77,SE,135,6.2,6.2,81,0.00,,,0.00,VWS V14.01,2013-01-12 10:14:00,
2013-01-12 04:15:00,48.7,43.1,29.77,SE,135,6.2,6.2,81,0.00,,,0.00,VWS V14.01,2013-01-12 10:15:00,
2013-01-12 04:16:00,48.7,43.1,29.77,SE,135,6.2,6.2,81,0.00,,,0.00,VWS V14.01,2013-01-12 10:16:00,
2013-01-12 04:17:00,48.7,43.5,29.77,SE,135,6.2,6.2,82,0.00,,,0.00,VWS V14.01,2013-01-12 10:17:00,
2013-01-12 04:18:00,48.7,43.5,29.77,SE,135,6.2,6.2,82,0.00,,,0.00,VWS V14.01,2013-01-12 10:18:00,
2013-01-12 04:19:00,48.7,43.1,29.77,SE,135,6.2,6.2,81,0.00,,,0.00,VWS V14.01,2013-01-12 10:19:00,
2013-01-12 04:20:00,48.7,43.1,29.77,SE,135,6.2,6.2,81,0.00,,,0.00,VWS V14.01,2013-01-12 10:20:00,
2013-01-12 04:21:00,48.7,43.1,29.77,SE,135,6.2,6.2,81,0.00,,,0.00,VWS V14.01,2013-01-12 10:21:00,
2013-01-12 04:22:00,48.7,43.1,29.77,SE,135,6.2,6.2,81,0.00,,,0.00,VWS V14.01,2013-01-12 10:22:00,
2013-01-12 04:23:00,48.5,43.3,29.78,SE,135,6.2,6.2,82,0.00,,,0.00,VWS V14.01,2013-01-12 10:23:00,
2013-01-12 04:24:00,48.5,43.3,29.78,SE,135,6.2,6.2,82,0.00,,,0.00,VWS V14.01,2013-01-12 10:24:00,
2013-01-12 04:25:00,48.3,43.1,29.78,SE,135,6.2,6.2,82,0.00,,,0.00,VWS V14.01,2013-01-12 10:25:00,
2013-01-12 04:26:00,48.3,43.1,29.78,SE,135,6.2,6.2,82,0.00,,,0.00,VWS V14.01,2013-01-12 10:26:00,
2013-01-12 04:27:00,48.3,43.1,29.78,SE,135,6.2,6.2,82,0.00,,,0.00,VWS V14.01,2013-01-12 10:27:00,
2013-01-12 04:28:00,48.3,43.1,29.78,SE,135,6.2,6.2,82,0.00,,,0.00,VWS V14.01,2013-01-12 10:28:00,
2013-01-12 04:29:00,48.3,43.1,29.78,SE,135,6.2,6.2,82,0.00,,,0.00,VWS V14.01,2013-01-12 10:29:00,
2013-01-12 04:30:00,48.3,43.1,29.78,SE,135,6.2,6.2,82,0.00,,,0.00,VWS V14.01,2013-01-12 10:30:00,
2013-01-12 04:31:00,48.3,43.1,29.78,SE,135,6.2,6.2,82,0.00,,,0.00,VWS V14.01,2013-01-12 10:31:00,
2013-01-12 04:32:00,48.3,43.1,29.78,SE,135,6.2,6.2,82,0.00,,,0.00,VWS V14.01,2013-01-12 10:32:00,
2013-01-12 04:33:00,48.3,42.8,29.79,SE,135,6.2,6.2,81,0.00,,,0.00,VWS V14.01,2013-01-12 10:33:00,
2013-01-12 04:34:00,48.3,42.8,29.79,SE,135,6.2,6.2,81,0.00,,,0.00,VWS V14.01,2013-01-12 10:34:00,
2013-01-12 04:35:00,48.3,42.8,29.79,SE,135,6.2,6.2,81,0.00,,,0.00,VWS V14.01,2013-01-12 10:35:00,
2013-01-12 04:36:00,47.8,41.0,29.80,SE,135,6.2,6.2,77,0.00,,,0.00,VWS V14.01,2013-01-12 10:36:00,
2013-01-12 04:37:00,47.8,41.0,29.80,SE,135,6.2,6.2,77,0.00,,,0.00,VWS V14.01,2013-01-12 10:37:00,
2013-01-12 04:38:00,45.6,39.5,29.81,SE,135,6.2,6.2,79,0.00,,,0.00,VWS V14.01,2013-01-12 10:38:00,
2013-01-12 04:39:00,45.6,39.5,29.81,SE,135,6.2,6.2,79,0.00,,,0.00,VWS V14.01,2013-01-12 10:39:00,
2013-01-12 04:40:00,43.8,38.0,29.81,SE,135,6.2,6.2,80,0.00,,,0.00,VWS V14.01,2013-01-12 10:40:00,
2013-01-12 04:41:00,43.8,38.0,29.81,SE,135,6.2,6.2,80,0.00,,,0.00,VWS V14.01,2013-01-12 10:41:00,
2013-01-12 04:42:00,43.8,38.0,29.81,SE,135,6.2,6.2,80,0.00,,,0.00,VWS V14.01,2013-01-12 10:42:00,
2013-01-12 04:43:00,42.6,37.5,29.81,SE,135,6.2,6.2,82,0.00,,,0.00,VWS V14.01,2013-01-12 10:43:00,
2013-01-12 04:44:00,42.0,36.9,29.82,SE,135,6.2,6.2,82,0.00,,,0.00,VWS V14.01,2013-01-12 10:44:00,
2013-01-12 04:45:00,42.0,36.9,29.82,SE,135,6.2,6.2,82,0.00,,,0.00,VWS V14.01,2013-01-12 10:45:00,
2013-01-12 04:46:00,42.0,36.9,29.82,SE,135,6.2,6.2,82,0.00,,,0.00,VWS V14.01,2013-01-12 10:46:00,
2013-01-12 04:47:00,42.0,36.9,29.82,SE,135,6.2,6.2,82,0.00,,,0.00,VWS V14.01,2013-01-12 10:47:00,
2013-01-12 04:48:00,41.5,36.7,29.82,SE,135,6.2,6.2,83,0.00,,,0.00,VWS V14.01,2013-01-12 10:48:00,
2013-01-12 04:49:00,41.1,36.3,29.82,SE,135,6.2,6.2,83,0.00,,,0.00,VWS V14.01,2013-01-12 10:49:00,
2013-01-12 04:50:00,41.1,36.3,29.82,SE,135,6.2,6.2,83,0.00,,,0.00,VWS V14.01,2013-01-12 10:50:00,
2013-01-12 04:51:00,40.8,36.3,29.82,SE,135,6.2,6.2,84,0.00,,,0.00,VWS V14.01,2013-01-12 10:51:00,
2013-01-12 04:52:00,40.8,36.3,29.82,SE,135,6.2,6.2,84,0.00,,,0.00,VWS V14.01,2013-01-12 10:52:00,
2013-01-12 04:53:00,40.4,36.0,29.82,SE,135,6.2,6.2,84,0.00,,,0.00,VWS V14.01,2013-01-12 10:53:00,
2013-01-12 04:54:00,40.4,36.0,29.83,SE,135,6.2,6.2,84,0.00,,,0.00,VWS V14.01,2013-01-12 10:54:00,
2013-01-12 04:55:00,40.1,36.0,29.83,SE,135,6.2,6.2,85,0.00,,,0.00,VWS V14.01,2013-01-12 10:55:00,
2013-01-12 04:56:00,40.1,36.0,29.83,SE,135,6.2,6.2,85,0.00,,,0.00,VWS V14.01,2013-01-12 10:56:00,
2013-01-12 04:57:00,40.1,36.0,29.83,SE,135,6.2,6.2,85,0.00,,,0.00,VWS V14.01,2013-01-12 10:57:00,
2013-01-12 04:58:00,39.9,35.5,29.83,SE,135,6.2,6.2,84,0.00,,,0.00,VWS V14.01,2013-01-12 10:58:00,
2013-01-12 04:59:00,39.5,35.1,29.84,SE,135,6.2,6.2,84,0.00,,,0.00,VWS V14.01,2013-01-12 10:59:00,
2013-01-12 05:00:00,39.5,35.1,29.84,SE,135,6.2,6.2,84,0.00,,,0.00,VWS V14.01,2013-01-12 11:00:00,
2013-01-12 05:01:00,39.5,35.1,29.84,SE,135,6.2,6.2,84,0.00,,,0.00,VWS V14.01,2013-01-12 11:01:00,
2013-01-12 05:02:00,39.5,35.1,29.84,SE,135,6.2,6.2,84,0.00,,,0.00,VWS V14.01,2013-01-12 11:02:00,
2013-01-12 05:03:00,39.3,34.9,29.83,SE,135,6.2,6.2,84,0.00,,,0.00,VWS V14.01,2013-01-12 11:03:00,
2013-01-12 05:04:00,39.0,34.6,29.84,SE,135,6.2,6.2,84,0.00,,,0.00,VWS V14.01,2013-01-12 11:04:00,
2013-01-12 05:05:00,39.0,34.6,29.84,SE,135,6.2,6.2,84,0.00,,,0.00,VWS V14.01,2013-01-12 11:05:00,
2013-01-12 05:06:00,38.8,34.7,29.84,SE,135,6.2,6.2,85,0.00,,,0.00,VWS V14.01,2013-01-12 11:06:00,
2013-01-12 05:07:00,38.8,34.7,29.84,SE,135,6.2,6.2,85,0.00,,,0.00,VWS V14.01,2013-01-12 11:07:00,
2013-01-12 05:08:00,38.8,34.7,29.84,SE,135,6.2,6.2,85,0.00,,,0.00,VWS V14.01,2013-01-12 11:08:00,
2013-01-12 05:09:00,38.8,34.7,29.84,SE,135,6.2,6.2,85,0.00,,,0.00,VWS V14.01,2013-01-12 11:09:00,
2013-01-12 05:10:00,38.4,34.3,29.84,SE,135,6.2,6.2,85,0.00,,,0.00,VWS V14.01,2013-01-12 11:10:00,
2013-01-12 05:11:00,38.4,34.3,29.84,SE,135,6.2,6.2,85,0.00,,,0.00,VWS V14.01,2013-01-12 11:11:00,
2013-01-12 05:12:00,38.4,34.3,29.84,SE,135,6.2,6.2,85,0.00,,,0.00,VWS V14.01,2013-01-12 11:12:00,
2013-01-12 05:13:00,38.3,34.2,29.84,SE,135,6.2,6.2,85,0.00,,,0.00,VWS V14.01,2013-01-12 11:13:00,
2013-01-12 05:14:00,38.3,34.2,29.85,SE,135,6.2,6.2,85,0.00,,,0.00,VWS V14.01,2013-01-12 11:14:00,
2013-01-12 05:15:00,38.1,34.0,29.85,SE,135,6.2,6.2,85,0.00,,,0.00,VWS V14.01,2013-01-12 11:15:00,
2013-01-12 05:16:00,38.1,34.0,29.85,SE,135,6.2,6.2,85,0.00,,,0.00,VWS V14.01,2013-01-12 11:16:00,
2013-01-12 05:17:00,38.1,34.0,29.85,SE,135,6.2,6.2,85,0.00,,,0.00,VWS V14.01,2013-01-12 11:17:00,
2013-01-12 05:18:00,37.9,33.8,29.85,SE,135,6.2,6.2,85,0.00,,,0.00,VWS V14.01,2013-01-12 11:18:00,
2013-01-12 05:19:00,37.9,33.8,29.85,SE,135,6.2,6.2,85,0.00,,,0.00,VWS V14.01,2013-01-12 11:19:00,
2013-01-12 05:20:00,37.9,33.8,29.85,SE,135,6.2,6.2,85,0.00,,,0.00,VWS V14.01,2013-01-12 11:20:00,
2013-01-12 05:21:00,37.7,33.6,29.85,SE,135,6.2,6.2,85,0.00,,,0.00,VWS V14.01,2013-01-12 11:21:00,
2013-01-12 05:22:00,37.7,33.6,29.85,SE,135,6.2,6.2,85,0.00,,,0.00,VWS V14.01,2013-01-12 11:22:00,
2013-01-12 05:23:00,37.7,33.9,29.86,SE,135,6.2,6.2,86,0.00,,,0.00,VWS V14.01,2013-01-12 11:23:00,
2013-01-12 05:24:00,37.7,33.9,29.86,SE,135,6.2,6.2,86,0.00,,,0.00,VWS V14.01,2013-01-12 11:24:00,
2013-01-12 05:25:00,37.5,33.7,29.86,SE,135,6.2,6.2,86,0.00,,,0.00,VWS V14.01,2013-01-12 11:25:00,
2013-01-12 05:26:00,37.5,33.7,29.86,SE,135,6.2,6.2,86,0.00,,,0.00,VWS V14.01,2013-01-12 11:26:00,
2013-01-12 05:27:00,37.5,33.7,29.86,SE,135,6.2,6.2,86,0.00,,,0.00,VWS V14.01,2013-01-12 11:27:00,
2013-01-12 05:28:00,37.4,33.6,29.86,SE,135,6.2,6.2,86,0.00,,,0.00,VWS V14.01,2013-01-12 11:28:00,
2013-01-12 05:29:00,37.2,33.4,29.86,SE,135,6.2,6.2,86,0.00,,,0.00,VWS V14.01,2013-01-12 11:29:00,
2013-01-12 05:30:00,37.2,33.4,29.85,SE,135,6.2,6.2,86,0.00,,,0.00,VWS V14.01,2013-01-12 11:30:00,
2013-01-12 05:31:00,37.2,33.4,29.86,SE,135,6.2,6.2,86,0.00,,,0.00,VWS V14.01,2013-01-12 11:31:00,
2013-01-12 05:32:00,37.2,33.4,29.86,SE,135,6.2,6.2,86,0.00,,,0.00,VWS V14.01,2013-01-12 11:32:00,
2013-01-12 05:33:00,37.2,33.4,29.86,SE,135,6.2,6.2,86,0.00,,,0.00,VWS V14.01,2013-01-12 11:33:00,
2013-01-12 05:34:00,37.0,33.2,29.87,SE,135,6.2,6.2,86,0.00,,,0.00,VWS V14.01,2013-01-12 11:34:00,
2013-01-12 05:35:00,37.0,33.2,29.87,SE,135,6.2,6.2,86,0.00,,,0.00,VWS V14.01,2013-01-12 11:35:00,
2013-01-12 05:36:00,37.0,32.9,29.87,SE,135,6.2,6.2,85,0.00,,,0.00,VWS V14.01,2013-01-12 11:36:00,
2013-01-12 05:37:00,37.0,32.9,29.87,SE,135,6.2,6.2,85,0.00,,,0.00,VWS V14.01,2013-01-12 11:37:00,
2013-01-12 05:38:00,36.8,32.7,29.87,SE,135,6.2,6.2,85,0.00,,,0.00,VWS V14.01,2013-01-12 11:38:00,
2013-01-12 05:39:00,36.8,32.7,29.87,SE,135,6.2,6.2,85,0.00,,,0.00,VWS V14.01,2013-01-12 11:39:00,
2013-01-12 05:40:00,36.5,32.4,29.87,SE,135,6.2,6.2,85,0.00,,,0.00,VWS V14.01,2013-01-12 11:40:00,
2013-01-12 05:41:00,36.5,32.4,29.87,SE,135,6.2,6.2,85,0.00,,,0.00,VWS V14.01,2013-01-12 11:41:00,
2013-01-12 05:42:00,36.5,32.4,29.87,SE,135,6.2,6.2,85,0.00,,,0.00,VWS V14.01,2013-01-12 11:42:00,
2013-01-12 05:43:00,36.3,32.2,29.87,SE,135,6.2,6.2,85,0.00,,,0.00,VWS V14.01,2013-01-12 11:43:00,
2013-01-12 05:44:00,36.3,32.2,29.87,SE,135,6.2,6.2,85,0.00,,,0.00,VWS V14.01,2013-01-12 11:44:00,
2013-01-12 05:45:00,36.3,32.2,29.87,SE,135,6.2,6.2,85,0.00,,,0.00,VWS V14.01,2013-01-12 11:45:00,
2013-01-12 05:46:00,36.3,32.2,29.87,SE,135,6.2,6.2,85,0.00,,,0.00,VWS V14.01,2013-01-12 11:46:00,
2013-01-12 05:47:00,36.3,32.2,29.87,SE,135,6.2,6.2,85,0.00,,,0.00,VWS V14.01,2013-01-12 11:47:00,
2013-01-12 05:48:00,36.1,32.0,29.87,SE,135,6.2,6.2,85,0.00,,,0.00,VWS V14.01,2013-01-12 11:48:00,
2013-01-12 05:49:00,35.9,31.8,29.87,SSE,158,6.7,6.7,85,0.00,,,0.00,VWS V14.01,2013-01-12 11:49:00,
2013-01-12 05:50:00,35.9,31.8,29.87,SSE,158,6.7,6.7,85,0.00,,,0.00,VWS V14.01,2013-01-12 11:50:00,
2013-01-12 05:51:00,35.9,31.8,29.87,WSW,248,4.6,6.7,85,0.00,,,0.00,VWS V14.01,2013-01-12 11:51:00,
2013-01-12 05:52:00,35.9,31.8,29.87,WSW,248,4.6,4.6,85,0.00,,,0.00,VWS V14.01,2013-01-12 11:52:00,
2013-01-12 05:53:00,35.7,31.4,29.88,SSW,202,3.8,4.6,84,0.00,,,0.00,VWS V14.01,2013-01-12 11:53:00,
2013-01-12 05:54:00,35.7,31.4,29.88,SSW,202,3.8,3.8,84,0.00,,,0.00,VWS V14.01,2013-01-12 11:54:00,
2013-01-12 05:55:00,35.4,31.1,29.88,West,270,6.9,6.9,84,0.00,,,0.00,VWS V14.01,2013-01-12 11:55:00,
2013-01-12 05:56:00,35.4,31.1,29.88,West,270,6.9,6.9,84,0.00,,,0.00,VWS V14.01,2013-01-12 11:56:00,
2013-01-12 05:57:00,35.4,31.1,29.88,West,270,6.9,6.9,84,0.00,,,0.00,VWS V14.01,2013-01-12 11:57:00,
2013-01-12 05:58:00,35.4,31.1,29.88,WSW,248,6.0,6.0,84,0.00,,,0.00,VWS V14.01,2013-01-12 11:58:00,
2013-01-12 05:59:00,35.4,31.1,29.88,WSW,248,6.0,6.0,84,0.00,,,0.00,VWS V14.01,2013-01-12 11:59:00,
2013-01-12 06:00:00,35.2,30.9,29.88,WSW,248,6.0,6.0,84,0.00,,,0.00,VWS V14.01,2013-01-12 12:00:00,
2013-01-12 06:01:00,35.2,30.9,29.88,WSW,248,6.0,6.0,84,0.00,,,0.00,VWS V14.01,2013-01-12 12:01:00,
2013-01-12 06:02:00,35.2,30.9,29.88,WSW,248,6.0,6.0,84,0.00,,,0.00,VWS V14.01,2013-01-12 12:02:00,
2013-01-12 06:03:00,35.2,30.9,29.88,WSW,248,6.0,6.0,84,0.00,,,0.00,VWS V14.01,2013-01-12 12:03:00,
2013-01-12 06:04:00,34.8,30.5,29.88,WSW,248,6.0,6.0,84,0.00,,,0.00,VWS V14.01,2013-01-12 12:04:00,
2013-01-12 06:05:00,34.8,30.5,29.88,WSW,248,6.0,6.0,84,0.00,,,0.00,VWS V14.01,2013-01-12 12:05:00,
2013-01-12 06:06:00,34.8,30.5,29.89,SW,225,5.1,6.0,84,0.00,,,0.00,VWS V14.01,2013-01-12 12:06:00,
2013-01-12 06:07:00,34.8,30.5,29.89,SW,225,5.1,5.1,84,0.00,,,0.00,VWS V14.01,2013-01-12 12:07:00,
2013-01-12 06:08:00,34.8,30.5,29.89,SW,225,6.4,6.4,84,0.00,,,0.00,VWS V14.01,2013-01-12 12:08:00,
2013-01-12 06:09:00,34.8,30.5,29.88,SW,225,6.4,6.4,84,0.00,,,0.00,VWS V14.01,2013-01-12 12:09:00,
2013-01-12 06:10:00,34.7,30.4,29.88,WSW,248,8.0,8.0,84,0.00,,,0.00,VWS V14.01,2013-01-12 12:10:00,
2013-01-12 06:11:00,34.7,30.4,29.89,WSW,248,8.0,8.0,84,0.00,,,0.00,VWS V14.01,2013-01-12 12:11:00,
2013-01-12 06:12:00,34.7,30.4,29.89,WSW,248,8.0,8.0,84,0.00,,,0.00,VWS V14.01,2013-01-12 12:12:00,
2013-01-12 06:13:00,34.5,30.2,29.89,WSW,248,7.1,7.1,84,0.00,,,0.00,VWS V14.01,2013-01-12 12:13:00,
2013-01-12 06:14:00,34.3,30.0,29.89,SW,225,9.6,9.6,84,0.00,,,0.00,VWS V14.01,2013-01-12 12:14:00,
2013-01-12 06:15:00,34.3,30.0,29.89,SW,225,9.6,9.6,84,0.00,,,0.00,VWS V14.01,2013-01-12 12:15:00,
2013-01-12 06:16:00,34.3,30.0,29.89,SW,225,9.6,9.6,84,0.00,,,0.00,VWS V14.01,2013-01-12 12:16:00,
2013-01-12 06:17:00,34.3,30.0,29.89,SW,225,9.6,9.6,84,0.00,,,0.00,VWS V14.01,2013-01-12 12:17:00,
2013-01-12 06:18:00,34.3,30.0,29.89,SW,225,9.6,9.6,84,0.00,,,0.00,VWS V14.01,2013-01-12 12:18:00,
2013-01-12 06:19:00,34.3,30.0,29.89,SW,225,6.0,9.6,84,0.00,,,0.00,VWS V14.01,2013-01-12 12:19:00,
2013-01-12 06:20:00,34.3,30.0,29.89,SW,225,6.0,6.0,84,0.00,,,0.00,VWS V14.01,2013-01-12 12:20:00,
2013-01-12 06:21:00,34.3,30.0,29.89,West,270,4.4,6.0,84,0.00,,,0.00,VWS V14.01,2013-01-12 12:21:00,
2013-01-12 06:22:00,34.3,30.0,29.89,West,270,4.4,4.4,84,0.00,,,0.00,VWS V14.01,2013-01-12 12:22:00,
2013-01-12 06:23:00,34.1,29.8,29.89,WSW,248,6.4,6.4,84,0.00,,,0.00,VWS V14.01,2013-01-12 12:23:00,
2013-01-12 06:24:00,34.1,29.8,29.89,WSW,248,6.4,6.4,84,0.00,,,0.00,VWS V14.01,2013-01-12 12:24:00,
2013-01-12 06:25:00,33.9,29.9,29.89,West,270,6.0,6.4,85,0.00,,,0.00,VWS V14.01,2013-01-12 12:25:00,
2013-01-12 06:26:00,33.9,29.9,29.90,West,270,6.0,6.0,85,0.00,,,0.00,VWS V14.01,2013-01-12 12:26:00,
2013-01-12 06:27:00,33.9,29.9,29.90,West,270,6.0,6.0,85,0.00,,,0.00,VWS V14.01,2013-01-12 12:27:00,
2013-01-12 06:28:00,33.8,29.5,29.90,SSW,202,3.5,3.5,84,0.00,,,0.00,VWS V14.01,2013-01-12 12:28:00,
2013-01-12 06:29:00,33.6,29.3,29.90,WNW,292,6.7,6.7,84,0.00,,,0.00,VWS V14.01,2013-01-12 12:29:00,
2013-01-12 06:30:00,33.6,29.3,29.90,WNW,292,6.7,6.7,84,0.00,,,0.00,VWS V14.01,2013-01-12 12:30:00,
2013-01-12 06:31:00,33.6,29.3,29.90,WNW,292,7.3,7.3,84,0.00,,,0.00,VWS V14.01,2013-01-12 12:31:00,
2013-01-12 06:32:00,33.6,29.3,29.90,WNW,292,7.3,7.3,84,0.00,,,0.00,VWS V14.01,2013-01-12 12:32:00,
2013-01-12 06:33:00,33.6,29.3,29.91,WNW,292,7.3,7.3,84,0.00,,,0.00,VWS V14.01,2013-01-12 12:33:00,
2013-01-12 06:34:00,33.6,29.3,29.91,West,270,4.2,7.3,84,0.00,,,0.00,VWS V14.01,2013-01-12 12:34:00,
2013-01-12 06:35:00,33.6,29.3,29.91,West,270,4.2,4.2,84,0.00,,,0.00,VWS V14.01,2013-01-12 12:35:00,
2013-01-12 06:36:00,33.4,29.1,29.91,SSW,202,3.8,4.2,84,0.00,,,0.00,VWS V14.01,2013-01-12 12:36:00,
2013-01-12 06:37:00,33.4,29.1,29.91,SSW,202,3.8,3.8,84,0.00,,,0.00,VWS V14.01,2013-01-12 12:37:00,
2013-01-12 06:38:00,33.4,28.8,29.91,WSW,248,4.6,4.6,83,0.00,,,0.00,VWS V14.01,2013-01-12 12:38:00,
2013-01-12 06:39:00,33.4,28.8,29.91,WSW,248,4.6,4.6,83,0.00,,,0.00,VWS V14.01,2013-01-12 12:39:00,
2013-01-12 06:40:00,33.4,28.8,29.91,West,270,5.8,5.8,83,0.00,,,0.00,VWS V14.01,2013-01-12 12:40:00,
2013-01-12 06:41:00,33.4,28.8,29.91,West,270,5.8,5.8,83,0.00,,,0.00,VWS V14.01,2013-01-12 12:41:00,
2013-01-12 06:42:00,33.4,28.8,29.91,West,270,5.8,5.8,83,0.00,,,0.00,VWS V14.01,2013-01-12 12:42:00,
2013-01-12 06:43:00,33.2,28.6,29.91,West,270,3.1,3.1,83,0.00,,,0.00,VWS V14.01,2013-01-12 12:43:00,
2013-01-12 06:44:00,33.2,28.6,29.92,WNW,292,6.4,6.4,83,0.00,,,0.00,VWS V14.01,2013-01-12 12:44:00,
2013-01-12 06:45:00,33.0,28.4,29.92,WNW,292,6.4,6.4,83,0.00,,,0.00,VWS V14.01,2013-01-12 12:45:00,
2013-01-12 06:46:00,33.0,28.4,29.92,WNW,292,3.3,6.4,83,0.00,,,0.00,VWS V14.01,2013-01-12 12:46:00,
2013-01-12 06:47:00,33.0,28.4,29.92,WNW,292,3.3,3.3,83,0.00,,,0.00,VWS V14.01,2013-01-12 12:47:00,
2013-01-12 06:48:00,33.0,28.4,29.92,WNW,292,3.3,3.3,83,0.00,,,0.00,VWS V14.01,2013-01-12 12:48:00,
2013-01-12 06:49:00,32.9,28.3,29.92,SSW,202,4.2,4.2,83,0.00,,,0.00,VWS V14.01,2013-01-12 12:49:00,
2013-01-12 06:50:00,32.9,28.3,29.92,SSW,202,4.2,4.2,83,0.00,,,0.00,VWS V14.01,2013-01-12 12:50:00,
2013-01-12 06:51:00,32.7,28.1,29.93,West,270,6.2,6.2,83,0.00,,,0.00,VWS V14.01,2013-01-12 12:51:00,
2013-01-12 06:52:00,32.7,28.1,29.93,West,270,6.2,6.2,83,0.00,,,0.00,VWS V14.01,2013-01-12 12:52:00,
2013-01-12 06:53:00,32.7,28.4,29.92,West,270,3.8,6.2,84,0.00,,,0.00,VWS V14.01,2013-01-12 12:53:00,
2013-01-12 06:54:00,32.7,28.4,29.92,West,270,3.8,3.8,84,0.00,,,0.00,VWS V14.01,2013-01-12 12:54:00,
2013-01-12 06:55:00,32.7,28.4,29.92,West,270,5.8,5.8,84,0.00,,,0.00,VWS V14.01,2013-01-12 12:55:00,
2013-01-12 06:56:00,32.7,28.4,29.92,West,270,5.8,5.8,84,0.00,,,0.00,VWS V14.01,2013-01-12 12:56:00,
2013-01-12 06:57:00,32.7,28.4,29.92,West,270,5.8,5.8,84,0.00,,,0.00,VWS V14.01,2013-01-12 12:57:00,
2013-01-12 06:58:00,32.5,28.2,29.92,West,270,3.8,3.8,84,0.00,,,0.00,VWS V14.01,2013-01-12 12:58:00,
2013-01-12 06:59:00,32.5,28.2,29.92,NNW,338,6.0,6.0,84,0.00,,,0.00,VWS V14.01,2013-01-12 12:59:00,
2013-01-12 07:00:00,32.5,28.2,29.92,NNW,338,6.0,6.0,84,0.00,,,0.00,VWS V14.01,2013-01-12 13:00:00,
2013-01-12 07:01:00,32.5,28.2,29.92,West,270,5.5,6.0,84,0.00,,,0.00,VWS V14.01,2013-01-12 13:01:00,
2013-01-12 07:02:00,32.5,28.2,29.92,West,270,5.5,5.5,84,0.00,,,0.00,VWS V14.01,2013-01-12 13:02:00,
2013-01-12 07:03:00,32.5,28.2,29.93,West,270,5.5,5.5,84,0.00,,,0.00,VWS V14.01,2013-01-12 13:03:00,
2013-01-12 07:04:00,32.5,28.2,29.93,West,270,4.4,5.5,84,0.00,,,0.00,VWS V14.01,2013-01-12 13:04:00,
2013-01-12 07:05:00,32.5,28.2,29.94,West,270,4.4,4.4,84,0.00,,,0.00,VWS V14.01,2013-01-12 13:05:00,
2013-01-12 07:06:00,32.5,28.5,29.94,WSW,248,4.4,4.4,85,0.00,,,0.00,VWS V14.01,2013-01-12 13:06:00,
2013-01-12 07:07:00,32.5,28.5,29.94,WSW,248,4.4,4.4,85,0.00,,,0.00,VWS V14.01,2013-01-12 13:07:00,
2013-01-12 07:08:00,32.3,28.3,29.94,West,270,9.1,9.1,85,0.00,,,0.00,VWS V14.01,2013-01-12 13:08:00,
2013-01-12 07:09:00,32.3,28.3,29.94,West,270,9.1,9.1,85,0.00,,,0.00,VWS V14.01,2013-01-12 13:09:00,
2013-01-12 07:10:00,32.3,28.3,29.94,West,270,12.7,12.7,85,0.00,,,0.00,VWS V14.01,2013-01-12 13:10:00,
2013-01-12 07:11:00,32.3,28.3,29.94,West,270,12.7,12.7,85,0.00,,,0.00,VWS V14.01,2013-01-12 13:11:00,
2013-01-12 07:12:00,32.3,28.3,29.94,West,270,12.7,12.7,85,0.00,,,0.00,VWS V14.01,2013-01-12 13:12:00,
2013-01-12 07:13:00,32.3,28.0,29.94,West,270,5.3,5.3,84,0.00,,,0.00,VWS V14.01,2013-01-12 13:13:00,
2013-01-12 07:14:00,32.3,28.0,29.94,West,270,3.8,5.3,84,0.00,,,0.00,VWS V14.01,2013-01-12 13:14:00,
2013-01-12 07:15:00,32.3,28.0,29.94,West,270,3.8,3.8,84,0.00,,,0.00,VWS V14.01,2013-01-12 13:15:00,
2013-01-12 07:16:00,32.3,28.0,29.94,West,270,4.4,4.4,84,0.00,,,0.00,VWS V14.01,2013-01-12 13:16:00,
2013-01-12 07:17:00,32.3,28.0,29.94,West,270,4.4,4.4,84,0.00,,,0.00,VWS V14.01,2013-01-12 13:17:00,
2013-01-12 07:18:00,32.1,27.8,29.95,West,270,4.4,4.4,84,0.00,,,0.00,VWS V14.01,2013-01-12 13:18:00,
2013-01-12 07:19:00,32.1,27.8,29.95,West,270,10.5,10.5,84,0.00,,,0.00,VWS V14.01,2013-01-12 13:19:00,
2013-01-12 07:20:00,32.1,27.8,29.95,West,270,10.5,10.5,84,0.00,,,0.00,VWS V14.01,2013-01-12 13:20:00,
2013-01-12 07:21:00,32.1,27.8,29.95,WNW,292,3.1,10.5,84,0.00,,,0.00,VWS V14.01,2013-01-12 13:21:00,
2013-01-12 07:22:00,32.1,27.8,29.95,WNW,292,3.1,3.1,84,0.00,,,0.00,VWS V14.01,2013-01-12 13:22:00,
2013-01-12 07:23:00,31.8,27.5,29.95,West,270,9.3,9.3,84,0.00,,,0.00,VWS V14.01,2013-01-12 13:23:00,
2013-01-12 07:24:00,31.8,27.5,29.95,West,270,9.3,9.3,84,0.00,,,0.00,VWS V14.01,2013-01-12 13:24:00,
2013-01-12 07:25:00,32.0,27.7,29.95,West,270,2.0,9.3,84,0.00,,,0.00,VWS V14.01,2013-01-12 13:25:00,
2013-01-12 07:26:00,32.0,27.7,29.95,West,270,2.0,2.0,84,0.00,,,0.00,VWS V14.01,2013-01-12 13:26:00,
2013-01-12 07:27:00,32.0,27.7,29.95,West,270,2.0,2.0,84,0.00,,,0.00,VWS V14.01,2013-01-12 13:27:00,
2013-01-12 07:28:00,31.8,27.5,29.95,WNW,292,3.5,3.5,84,0.00,,,0.00,VWS V14.01,2013-01-12 13:28:00,
2013-01-12 07:29:00,31.8,27.5,29.95,West,270,2.6,3.5,84,0.00,,,0.00,VWS V14.01,2013-01-12 13:29:00,
2013-01-12 07:30:00,31.8,27.5,29.95,West,270,2.6,2.6,84,0.00,,,0.00,VWS V14.01,2013-01-12 13:30:00,
2013-01-12 07:31:00,31.8,27.5,29.96,West,270,1.3,2.6,84,0.00,,,0.00,VWS V14.01,2013-01-12 13:31:00,
2013-01-12 07:32:00,31.8,27.5,29.96,West,270,1.3,1.3,84,0.00,,,0.00,VWS V14.01,2013-01-12 13:32:00,
2013-01-12 07:33:00,31.8,27.5,29.96,West,270,1.3,1.3,84,0.00,,,0.00,VWS V14.01,2013-01-12 13:33:00,
2013-01-12 07:34:00,31.8,27.5,29.96,WNW,292,9.1,9.1,84,0.00,,,0.00,VWS V14.01,2013-01-12 13:34:00,
2013-01-12 07:35:00,31.8,27.5,29.96,WNW,292,9.1,9.1,84,0.00,,,0.00,VWS V14.01,2013-01-12 13:35:00,
2013-01-12 07:36:00,31.6,27.3,29.95,West,270,5.5,9.1,84,0.00,,,0.00,VWS V14.01,2013-01-12 13:36:00,
2013-01-12 07:37:00,31.6,27.3,29.95,West,270,5.5,5.5,84,0.00,,,0.00,VWS V14.01,2013-01-12 13:37:00,
2013-01-12 07:38:00,31.6,27.0,29.95,SSW,202,3.8,5.5,83,0.00,,,0.00,VWS V14.01,2013-01-12 13:38:00,
2013-01-12 07:39:00,31.6,27.0,29.96,SSW,202,3.8,3.8,83,0.00,,,0.00,VWS V14.01,2013-01-12 13:39:00,
2013-01-12 07:40:00,31.2,26.4,29.96,West,270,2.9,3.8,82,0.00,,,0.00,VWS V14.01,2013-01-12 13:40:00,
2013-01-12 07:41:00,31.2,26.4,29.95,West,270,2.9,2.9,82,0.00,,,0.00,VWS V14.01,2013-01-12 13:41:00,
2013-01-12 07:42:00,31.2,26.4,29.95,West,270,2.9,2.9,82,0.00,,,0.00,VWS V14.01,2013-01-12 13:42:00,
2013-01-12 07:43:00,31.2,26.4,29.96,WSW,248,3.5,3.5,82,0.00,,,0.00,VWS V14.01,2013-01-12 13:43:00,
2013-01-12 07:44:00,31.1,26.3,29.96,West,270,7.1,7.1,82,0.00,,,0.00,VWS V14.01,2013-01-12 13:44:00,
2013-01-12 07:45:00,31.1,26.3,29.97,West,270,7.1,7.1,82,0.00,,,0.00,VWS V14.01,2013-01-12 13:45:00,
2013-01-12 07:46:00,31.1,26.0,29.96,WNW,292,8.2,8.2,81,0.00,,,0.00,VWS V14.01,2013-01-12 13:46:00,
2013-01-12 07:47:00,31.1,26.0,29.96,WNW,292,8.2,8.2,81,0.00,,,0.00,VWS V14.01,2013-01-12 13:47:00,
2013-01-12 07:48:00,31.1,26.0,29.97,WNW,292,8.2,8.2,81,0.00,,,0.00,VWS V14.01,2013-01-12 13:48:00,
2013-01-12 07:49:00,30.9,25.8,29.97,WNW,292,6.2,8.2,81,0.00,,,0.00,VWS V14.01,2013-01-12 13:49:00,
2013-01-12 07:50:00,30.9,25.8,29.97,WNW,292,6.2,6.2,81,0.00,,,0.00,VWS V14.01,2013-01-12 13:50:00,
2013-01-12 07:51:00,30.7,25.6,29.97,West,270,6.7,6.7,81,0.00,,,0.00,VWS V14.01,2013-01-12 13:51:00,
2013-01-12 07:52:00,30.7,25.6,29.97,West,270,6.7,6.7,81,0.00,,,0.00,VWS V14.01,2013-01-12 13:52:00,
2013-01-12 07:53:00,30.7,25.6,29.97,West,270,9.1,9.1,81,0.00,,,0.00,VWS V14.01,2013-01-12 13:53:00,
2013-01-12 07:54:00,30.7,25.6,29.97,West,270,9.1,9.1,81,0.00,,,0.00,VWS V14.01,2013-01-12 13:54:00,
2013-01-12 07:55:00,30.7,25.6,29.97,WNW,292,6.9,9.1,81,0.00,,,0.00,VWS V14.01,2013-01-12 13:55:00,
2013-01-12 07:56:00,30.7,25.6,29.97,WNW,292,6.9,6.9,81,0.00,,,0.00,VWS V14.01,2013-01-12 13:56:00,
2013-01-12 07:57:00,30.7,25.6,29.97,WNW,292,6.9,6.9,81,0.00,,,0.00,VWS V14.01,2013-01-12 13:57:00,
2013-01-12 07:58:00,30.7,25.6,29.97,West,270,5.3,5.3,81,0.00,,,0.00,VWS V14.01,2013-01-12 13:58:00,
2013-01-12 07:59:00,30.7,25.6,29.98,WNW,292,3.3,5.3,81,0.00,,,0.00,VWS V14.01,2013-01-12 13:59:00,
2013-01-12 08:00:00,30.7,25.6,29.98,WNW,292,3.3,3.3,81,0.00,,,0.00,VWS V14.01,2013-01-12 14:00:00,
2013-01-12 08:01:00,30.7,25.6,29.98,West,270,8.9,8.9,81,0.00,,,0.00,VWS V14.01,2013-01-12 14:01:00,
2013-01-12 08:02:00,30.7,25.6,29.98,West,270,8.9,8.9,81,0.00,,,0.00,VWS V14.01,2013-01-12 14:02:00,
2013-01-12 08:03:00,30.7,25.6,29.98,West,270,8.9,8.9,81,0.00,,,0.00,VWS V14.01,2013-01-12 14:03:00,
2013-01-12 08:04:00,30.7,25.9,29.98,West,270,10.2,10.2,82,0.00,,,0.00,VWS V14.01,2013-01-12 14:04:00,
2013-01-12 08:05:00,30.7,25.9,29.98,West,270,10.2,10.2,82,0.00,,,0.00,VWS V14.01,2013-01-12 14:05:00,
2013-01-12 08:06:00,30.7,25.6,29.98,WNW,292,4.6,10.2,81,0.00,,,0.00,VWS V14.01,2013-01-12 14:06:00,
2013-01-12 08:07:00,30.7,25.6,29.98,WNW,292,4.6,4.6,81,0.00,,,0.00,VWS V14.01,2013-01-12 14:07:00,
2013-01-12 08:08:00,30.5,25.4,29.98,West,270,13.4,13.4,81,0.00,,,0.00,VWS V14.01,2013-01-12 14:08:00,
2013-01-12 08:09:00,30.5,25.4,29.98,West,270,13.4,13.4,81,0.00,,,0.00,VWS V14.01,2013-01-12 14:09:00,
2013-01-12 08:10:00,30.5,25.4,29.98,WNW,292,6.9,13.4,81,0.00,,,0.00,VWS V14.01,2013-01-12 14:10:00,
2013-01-12 08:11:00,30.5,25.4,29.97,WNW,292,6.9,6.9,81,0.00,,,0.00,VWS V14.01,2013-01-12 14:11:00,
2013-01-12 08:12:00,30.5,25.4,29.97,WNW,292,6.9,6.9,81,0.00,,,0.00,VWS V14.01,2013-01-12 14:12:00,
2013-01-12 08:13:00,30.3,25.2,29.98,WSW,248,4.9,4.9,81,0.00,,,0.00,VWS V14.01,2013-01-12 14:13:00,
2013-01-12 08:14:00,30.3,25.2,29.98,WNW,292,9.6,9.6,81,0.00,,,0.00,VWS V14.01,2013-01-12 14:14:00,
2013-01-12 08:15:00,30.3,25.2,29.98,WNW,292,9.6,9.6,81,0.00,,,0.00,VWS V14.01,2013-01-12 14:15:00,
2013-01-12 08:16:00,30.3,25.2,29.98,WNW,292,9.6,9.6,81,0.00,,,0.00,VWS V14.01,2013-01-12 14:16:00,
2013-01-12 08:17:00,30.3,25.2,29.98,WNW,292,9.6,9.6,81,0.00,,,0.00,VWS V14.01,2013-01-12 14:17:00,
2013-01-12 08:18:00,30.3,25.2,29.98,West,270,3.5,3.5,81,0.00,,,0.00,VWS V14.01,2013-01-12 14:18:00,
2013-01-12 08:19:00,30.2,24.8,29.98,West,270,11.1,11.1,80,0.00,,,0.00,VWS V14.01,2013-01-12 14:19:00,
2013-01-12 08:20:00,30.2,24.8,29.99,West,270,11.1,11.1,80,0.00,,,0.00,VWS V14.01,2013-01-12 14:20:00,
2013-01-12 08:21:00,30.0,24.3,29.99,West,270,9.1,11.1,79,0.00,,,0.00,VWS V14.01,2013-01-12 14:21:00,
2013-01-12 08:22:00,30.0,24.3,29.99,West,270,9.1,9.1,79,0.00,,,0.00,VWS V14.01,2013-01-12 14:22:00,
2013-01-12 08:23:00,30.5,25.1,30.00,West,270,5.5,9.1,80,0.00,,,0.00,VWS V14.01,2013-01-12 14:23:00,
2013-01-12 08:24:00,30.5,25.1,29.99,West,270,5.5,5.5,80,0.00,,,0.00,VWS V14.01,2013-01-12 14:24:00,
2013-01-12 08:25:00,30.3,24.9,29.99,WSW,248,5.5,5.5,80,0.00,,,0.00,VWS V14.01,2013-01-12 14:25:00,
2013-01-12 08:26:00,30.3,24.9,29.99,WSW,248,5.5,5.5,80,0.00,,,0.00,VWS V14.01,2013-01-12 14:26:00,
2013-01-12 08:27:00,30.3,24.9,29.99,WSW,248,5.5,5.5,80,0.00,,,0.00,VWS V14.01,2013-01-12 14:27:00,
2013-01-12 08:28:00,30.2,25.1,29.99,West,270,2.6,2.6,81,0.00,,,0.00,VWS V14.01,2013-01-12 14:28:00,
2013-01-12 08:29:00,30.0,24.9,29.98,West,270,3.3,3.3,81,0.00,,,0.00,VWS V14.01,2013-01-12 14:29:00,
2013-01-12 08:30:00,30.0,24.9,29.99,West,270,3.3,3.3,81,0.00,,,0.00,VWS V14.01,2013-01-12 14:30:00,
2013-01-12 08:31:00,30.2,25.1,29.99,West,270,7.3,7.3,81,0.00,,,0.00,VWS V14.01,2013-01-12 14:31:00,
2013-01-12 08:32:00,30.2,25.1,29.99,West,270,7.3,7.3,81,0.00,,,0.00,VWS V14.01,2013-01-12 14:32:00,
2013-01-12 08:33:00,30.2,25.1,29.99,West,270,7.3,7.3,81,0.00,,,0.00,VWS V14.01,2013-01-12 14:33:00,
2013-01-12 08:34:00,30.3,24.9,29.99,WNW,292,5.3,7.3,80,0.00,,,0.00,VWS V14.01,2013-01-12 14:34:00,
2013-01-12 08:35:00,30.3,24.9,30.00,WNW,292,5.3,5.3,80,0.00,,,0.00,VWS V14.01,2013-01-12 14:35:00,
2013-01-12 08:36:00,30.3,24.6,29.99,WSW,248,7.3,7.3,79,0.00,,,0.00,VWS V14.01,2013-01-12 14:36:00,
2013-01-12 08:37:00,30.3,24.6,29.99,WSW,248,7.3,7.3,79,0.00,,,0.00,VWS V14.01,2013-01-12 14:37:00,
2013-01-12 08:38:00,30.9,25.2,29.99,West,270,5.8,7.3,79,0.00,,,0.00,VWS V14.01,2013-01-12 14:38:00,
2013-01-12 08:39:00,30.9,25.2,29.99,West,270,5.8,5.8,79,0.00,,,0.00,VWS V14.01,2013-01-12 14:39:00,
2013-01-12 08:40:00,31.1,25.4,29.99,West,270,6.4,6.4,79,0.00,,,0.00,VWS V14.01,2013-01-12 14:40:00,
2013-01-12 08:41:00,31.1,25.4,30.00,West,270,6.4,6.4,79,0.00,,,0.00,VWS V14.01,2013-01-12 14:41:00,
2013-01-12 08:42:00,31.1,25.4,30.00,West,270,6.4,6.4,79,0.00,,,0.00,VWS V14.01,2013-01-12 14:42:00,
2013-01-12 08:43:00,31.1,25.4,30.00,WSW,248,5.3,5.3,79,0.00,,,0.00,VWS V14.01,2013-01-12 14:43:00,
2013-01-12 08:44:00,31.2,25.8,30.00,West,270,2.2,5.3,80,0.00,,,0.00,VWS V14.01,2013-01-12 14:44:00,
2013-01-12 08:45:00,31.2,25.8,30.00,West,270,2.2,2.2,80,0.00,,,0.00,VWS V14.01,2013-01-12 14:45:00,
2013-01-12 08:46:00,31.2,25.8,30.01,WSW,248,6.4,6.4,80,0.00,,,0.00,VWS V14.01,2013-01-12 14:46:00,
2013-01-12 08:47:00,31.2,25.8,30.01,WSW,248,6.4,6.4,80,0.00,,,0.00,VWS V14.01,2013-01-12 14:47:00,
2013-01-12 08:48:00,31.2,25.5,30.01,WSW,248,6.4,6.4,79,0.00,,,0.00,VWS V14.01,2013-01-12 14:48:00,
2013-01-12 08:49:00,31.1,25.4,30.01,WSW,248,6.2,6.4,79,0.00,,,0.00,VWS V14.01,2013-01-12 14:49:00,
2013-01-12 08:50:00,31.1,25.4,30.01,WSW,248,6.2,6.2,79,0.00,,,0.00,VWS V14.01,2013-01-12 14:50:00,
2013-01-12 08:51:00,30.9,25.5,30.01,NW,315,5.5,6.2,80,0.00,,,0.00,VWS V14.01,2013-01-12 14:51:00,
2013-01-12 08:52:00,30.9,25.5,30.01,NW,315,5.5,5.5,80,0.00,,,0.00,VWS V14.01,2013-01-12 14:52:00,
2013-01-12 08:53:00,30.7,25.3,30.01,West,270,5.5,5.5,80,0.00,,,0.00,VWS V14.01,2013-01-12 14:53:00,
2013-01-12 08:54:00,30.7,25.3,30.01,West,270,5.5,5.5,80,0.00,,,0.00,VWS V14.01,2013-01-12 14:54:00,
2013-01-12 08:55:00,30.7,24.7,30.01,West,270,13.6,13.6,78,0.00,,,0.00,VWS V14.01,2013-01-12 14:55:00,
2013-01-12 08:56:00,30.7,24.7,30.01,West,270,13.6,13.6,78,0.00,,,0.00,VWS V14.01,2013-01-12 14:56:00,
2013-01-12 08:57:00,30.7,24.7,30.01,West,270,13.6,13.6,78,0.00,,,0.00,VWS V14.01,2013-01-12 14:57:00,
2013-01-12 08:58:00,30.5,23.9,30.01,SW,225,4.9,4.9,76,0.00,,,0.00,VWS V14.01,2013-01-12 14:58:00,
2013-01-12 08:59:00,30.2,23.6,30.01,WSW,248,7.6,7.6,76,0.00,,,0.00,VWS V14.01,2013-01-12 14:59:00,
2013-01-12 09:00:00,30.2,23.6,30.01,WSW,248,7.6,7.6,76,0.00,,,0.00,VWS V14.01,2013-01-12 15:00:00,
2013-01-12 09:01:00,30.2,23.6,30.02,WSW,248,7.6,7.6,76,0.00,,,0.00,VWS V14.01,2013-01-12 15:01:00,
2013-01-12 09:02:00,30.2,23.6,30.02,WSW,248,7.6,7.6,76,0.00,,,0.00,VWS V14.01,2013-01-12 15:02:00,
2013-01-12 09:03:00,30.2,23.2,30.02,West,270,3.1,3.1,75,0.00,,,0.00,VWS V14.01,2013-01-12 15:03:00,
2013-01-12 09:04:00,29.6,22.7,30.02,WSW,248,10.9,10.9,75,0.00,,,0.00,VWS V14.01,2013-01-12 15:04:00,
2013-01-12 09:05:00,29.6,22.7,30.02,WSW,248,10.9,10.9,75,0.00,,,0.00,VWS V14.01,2013-01-12 15:05:00,
2013-01-12 09:06:00,29.4,22.5,30.02,West,270,5.8,10.9,75,0.00,,,0.00,VWS V14.01,2013-01-12 15:06:00,
2013-01-12 09:07:00,29.4,22.5,30.02,West,270,5.8,5.8,75,0.00,,,0.00,VWS V14.01,2013-01-12 15:07:00,
2013-01-12 09:08:00,28.9,22.3,30.02,South,180,4.2,5.8,76,0.00,,,0.00,VWS V14.01,2013-01-12 15:08:00,
2013-01-12 09:09:00,28.9,22.3,30.02,South,180,4.2,4.2,76,0.00,,,0.00,VWS V14.01,2013-01-12 15:09:00,
2013-01-12 09:10:00,28.7,22.1,30.02,West,270,6.2,6.2,76,0.00,,,0.00,VWS V14.01,2013-01-12 15:10:00,
2013-01-12 09:11:00,28.7,22.1,30.02,West,270,6.2,6.2,76,0.00,,,0.00,VWS V14.01,2013-01-12 15:11:00,
2013-01-12 09:12:00,28.7,22.1,30.02,West,270,6.2,6.2,76,0.00,,,0.00,VWS V14.01,2013-01-12 15:12:00,
2013-01-12 09:13:00,28.7,22.1,30.02,WNW,292,4.9,4.9,76,0.00,,,0.00,VWS V14.01,2013-01-12 15:13:00,
2013-01-12 09:14:00,28.7,22.1,30.02,WSW,248,5.5,5.5,76,0.00,,,0.00,VWS V14.01,2013-01-12 15:14:00,
2013-01-12 09:15:00,28.7,22.1,30.02,WSW,248,5.5,5.5,76,0.00,,,0.00,VWS V14.01,2013-01-12 15:15:00,
2013-01-12 09:16:00,28.7,22.1,30.02,North,0,0.0,5.5,76,0.00,,,0.00,VWS V14.01,2013-01-12 15:16:00,
2013-01-12 09:17:00,28.7,22.1,30.02,North,0,0.0,0.0,76,0.00,,,0.00,VWS V14.01,2013-01-12 15:17:00,
2013-01-12 09:18:00,28.9,22.3,30.02,WNW,292,6.4,6.4,76,0.00,,,0.00,VWS V14.01,2013-01-12 15:18:00,
2013-01-12 09:19:00,28.9,22.0,30.02,WSW,248,4.2,6.4,75,0.00,,,0.00,VWS V14.01,2013-01-12 15:19:00,
2013-01-12 09:20:00,28.9,22.0,30.02,WSW,248,4.2,4.2,75,0.00,,,0.00,VWS V14.01,2013-01-12 15:20:00,
2013-01-12 09:21:00,28.7,21.8,30.02,West,270,4.9,4.9,75,0.00,,,0.00,VWS V14.01,2013-01-12 15:21:00,
2013-01-12 09:22:00,28.7,21.8,30.02,West,270,4.9,4.9,75,0.00,,,0.00,VWS V14.01,2013-01-12 15:22:00,
2013-01-12 09:23:00,28.5,21.6,30.02,West,270,10.5,10.5,75,0.00,,,0.00,VWS V14.01,2013-01-12 15:23:00,
2013-01-12 09:24:00,28.5,21.6,30.02,West,270,10.5,10.5,75,0.00,,,0.00,VWS V14.01,2013-01-12 15:24:00,
2013-01-12 09:25:00,28.2,21.6,30.01,West,270,6.9,10.5,76,0.00,,,0.00,VWS V14.01,2013-01-12 15:25:00,
2013-01-12 09:26:00,28.2,21.6,30.02,West,270,6.9,6.9,76,0.00,,,0.00,VWS V14.01,2013-01-12 15:26:00,
2013-01-12 09:27:00,28.2,21.6,30.02,West,270,6.9,6.9,76,0.00,,,0.00,VWS V14.01,2013-01-12 15:27:00,
2013-01-12 09:28:00,28.2,21.6,30.02,West,270,6.0,6.0,76,0.00,,,0.00,VWS V14.01,2013-01-12 15:28:00,
2013-01-12 09:29:00,28.2,21.6,30.02,West,270,6.0,6.0,76,0.00,,,0.00,VWS V14.01,2013-01-12 15:29:00,
2013-01-12 09:30:00,28.5,21.6,30.02,West,270,6.0,6.0,75,0.00,,,0.00,VWS V14.01,2013-01-12 15:30:00,
2013-01-12 09:31:00,28.5,21.6,30.02,West,270,6.0,6.0,75,0.00,,,0.00,VWS V14.01,2013-01-12 15:31:00,
2013-01-12 09:32:00,28.5,21.6,30.02,West,270,6.0,6.0,75,0.00,,,0.00,VWS V14.01,2013-01-12 15:32:00,
2013-01-12 09:33:00,28.4,21.8,30.02,WNW,292,5.3,5.3,76,0.00,,,0.00,VWS V14.01,2013-01-12 15:33:00,
2013-01-12 09:34:00,28.5,21.9,30.02,West,270,4.6,5.3,76,0.00,,,0.00,VWS V14.01,2013-01-12 15:34:00,
2013-01-12 09:35:00,28.5,21.9,30.03,West,270,4.6,4.6,76,0.00,,,0.00,VWS V14.01,2013-01-12 15:35:00,
2013-01-12 09:36:00,28.5,21.9,30.03,WSW,248,4.9,4.9,76,0.00,,,0.00,VWS V14.01,2013-01-12 15:36:00,
2013-01-12 09:37:00,28.5,21.9,30.03,WSW,248,4.9,4.9,76,0.00,,,0.00,VWS V14.01,2013-01-12 15:37:00,
2013-01-12 09:38:00,28.7,22.4,30.02,West,270,4.6,4.9,77,0.00,,,0.00,VWS V14.01,2013-01-12 15:38:00,
2013-01-12 09:39:00,28.7,22.4,30.02,West,270,4.6,4.6,77,0.00,,,0.00,VWS V14.01,2013-01-12 15:39:00,
2013-01-12 09:40:00,28.7,22.4,30.02,WNW,292,7.8,7.8,77,0.00,,,0.00,VWS V14.01,2013-01-12 15:40:00,
2013-01-12 09:41:00,28.7,22.4,30.02,WNW,292,7.8,7.8,77,0.00,,,0.00,VWS V14.01,2013-01-12 15:41:00,
2013-01-12 09:42:00,28.7,22.4,30.02,WNW,292,7.8,7.8,77,0.00,,,0.00,VWS V14.01,2013-01-12 15:42:00,
2013-01-12 09:43:00,28.7,22.4,30.03,West,270,5.5,5.5,77,0.00,,,0.00,VWS V14.01,2013-01-12 15:43:00,
2013-01-12 09:44:00,28.5,21.9,30.03,WNW,292,3.3,5.5,76,0.00,,,0.00,VWS V14.01,2013-01-12 15:44:00,
2013-01-12 09:45:00,28.5,21.9,30.03,WNW,292,3.3,3.3,76,0.00,,,0.00,VWS V14.01,2013-01-12 15:45:00,
2013-01-12 09:46:00,28.2,21.9,30.03,WNW,292,3.3,3.3,77,0.00,,,0.00,VWS V14.01,2013-01-12 15:46:00,
2013-01-12 09:47:00,28.2,21.9,30.03,WNW,292,3.3,3.3,77,0.00,,,0.00,VWS V14.01,2013-01-12 15:47:00,
2013-01-12 09:48:00,28.2,21.9,30.03,WNW,292,7.1,7.1,77,0.00,,,0.00,VWS V14.01,2013-01-12 15:48:00,
2013-01-12 09:49:00,28.2,21.9,30.03,West,270,14.3,14.3,77,0.00,,,0.00,VWS V14.01,2013-01-12 15:49:00,
2013-01-12 09:50:00,28.2,21.9,30.03,West,270,14.3,14.3,77,0.00,,,0.00,VWS V14.01,2013-01-12 15:50:00,
2013-01-12 09:51:00,28.2,21.9,30.03,SW,225,8.5,14.3,77,0.00,,,0.00,VWS V14.01,2013-01-12 15:51:00,
2013-01-12 09:52:00,28.2,21.9,30.03,SW,225,8.5,8.5,77,0.00,,,0.00,VWS V14.01,2013-01-12 15:52:00,
2013-01-12 09:53:00,27.6,20.7,30.03,West,270,6.7,8.5,75,0.00,,,0.00,VWS V14.01,2013-01-12 15:53:00,
2013-01-12 09:54:00,27.6,20.7,30.03,West,270,6.7,6.7,75,0.00,,,0.00,VWS V14.01,2013-01-12 15:54:00,
2013-01-12 09:55:00,27.6,21.0,30.03,WNW,292,8.5,8.5,76,0.00,,,0.00,VWS V14.01,2013-01-12 15:55:00,
2013-01-12 09:56:00,27.6,21.0,30.03,WNW,292,8.5,8.5,76,0.00,,,0.00,VWS V14.01,2013-01-12 15:56:00,
2013-01-12 09:57:00,27.6,21.0,30.03,WNW,292,8.5,8.5,76,0.00,,,0.00,VWS V14.01,2013-01-12 15:57:00,
2013-01-12 09:58:00,27.5,20.9,30.03,WSW,248,6.7,6.7,76,0.00,,,0.00,VWS V14.01,2013-01-12 15:58:00,
2013-01-12 09:59:00,27.8,20.9,30.03,WSW,248,6.7,6.7,75,0.00,,,0.00,VWS V14.01,2013-01-12 15:59:00,
2013-01-12 10:00:00,27.8,20.9,30.03,West,270,7.1,7.1,75,0.00,,,0.00,VWS V14.01,2013-01-12 16:00:00,
2013-01-12 10:01:00,27.8,20.9,30.03,West,270,7.1,7.1,75,0.00,,,0.00,VWS V14.01,2013-01-12 16:01:00,
2013-01-12 10:02:00,27.8,20.9,30.03,West,270,7.1,7.1,75,0.00,,,0.00,VWS V14.01,2013-01-12 16:02:00,
2013-01-12 10:03:00,28.0,21.1,30.03,WNW,292,5.1,5.1,75,0.00,,,0.00,VWS V14.01,2013-01-12 16:03:00,
2013-01-12 10:04:00,28.0,21.1,30.03,WSW,248,2.9,5.1,75,0.00,,,0.00,VWS V14.01,2013-01-12 16:04:00,
2013-01-12 10:05:00,28.0,21.1,30.03,WSW,248,2.9,2.9,75,0.00,,,0.00,VWS V14.01,2013-01-12 16:05:00,
2013-01-12 10:06:00,28.0,20.8,30.04,West,270,3.1,3.1,74,0.00,,,0.00,VWS V14.01,2013-01-12 16:06:00,
2013-01-12 10:07:00,28.0,20.8,30.04,West,270,3.1,3.1,74,0.00,,,0.00,VWS V14.01,2013-01-12 16:07:00,
2013-01-12 10:08:00,28.0,21.1,30.04,WNW,292,4.6,4.6,75,0.00,,,0.00,VWS V14.01,2013-01-12 16:08:00,
2013-01-12 10:09:00,28.0,21.1,30.04,WNW,292,4.6,4.6,75,0.00,,,0.00,VWS V14.01,2013-01-12 16:09:00,
2013-01-12 10:10:00,28.2,21.3,30.04,West,270,3.5,4.6,75,0.00,,,0.00,VWS V14.01,2013-01-12 16:10:00,
2013-01-12 10:11:00,28.2,21.3,30.05,West,270,3.5,3.5,75,0.00,,,0.00,VWS V14.01,2013-01-12 16:11:00,
2013-01-12 10:12:00,28.2,21.3,30.05,West,270,3.5,3.5,75,0.00,,,0.00,VWS V14.01,2013-01-12 16:12:00,
2013-01-12 10:13:00,29.6,22.7,30.05,West,270,1.5,1.5,75,0.00,,,0.00,VWS V14.01,2013-01-12 16:13:00,
2013-01-12 10:14:00,31.1,23.5,30.05,SSW,202,5.8,5.8,73,0.00,,,0.00,VWS V14.01,2013-01-12 16:14:00,
2013-01-12 10:15:00,31.1,23.5,30.05,SSW,202,5.8,5.8,73,0.00,,,0.00,VWS V14.01,2013-01-12 16:15:00,
2013-01-12 10:16:00,31.1,23.5,30.05,SSW,202,5.8,5.8,73,0.00,,,0.00,VWS V14.01,2013-01-12 16:16:00,
2013-01-12 10:17:00,31.1,23.5,30.05,SSW,202,5.8,5.8,73,0.00,,,0.00,VWS V14.01,2013-01-12 16:17:00,
2013-01-12 10:18:00,32.1,24.1,30.06,WSW,248,2.9,2.9,72,0.00,,,0.00,VWS V14.01,2013-01-12 16:18:00,
2013-01-12 10:19:00,33.0,24.6,30.06,West,270,3.5,3.5,71,0.00,,,0.00,VWS V14.01,2013-01-12 16:19:00,
2013-01-12 10:20:00,33.0,24.6,30.05,West,270,3.5,3.5,71,0.00,,,0.00,VWS V14.01,2013-01-12 16:20:00,
2013-01-12 10:21:00,33.4,24.7,30.05,WSW,248,2.4,3.5,70,0.00,,,0.00,VWS V14.01,2013-01-12 16:21:00,
2013-01-12 10:22:00,33.4,24.7,30.05,WSW,248,2.4,2.4,70,0.00,,,0.00,VWS V14.01,2013-01-12 16:22:00,
2013-01-12 10:23:00,33.4,24.0,30.05,West,270,4.0,4.0,68,0.00,,,0.00,VWS V14.01,2013-01-12 16:23:00,
2013-01-12 10:24:00,33.4,24.0,30.05,West,270,4.0,4.0,68,0.00,,,0.00,VWS V14.01,2013-01-12 16:24:00,
2013-01-12 10:25:00,32.7,23.0,30.05,SW,225,4.9,4.9,67,0.00,,,0.00,VWS V14.01,2013-01-12 16:25:00,
2013-01-12 10:26:00,32.7,23.0,30.05,SW,225,4.9,4.9,67,0.00,,,0.00,VWS V14.01,2013-01-12 16:26:00,
2013-01-12 10:27:00,32.7,23.0,30.05,SW,225,4.9,4.9,67,0.00,,,0.00,VWS V14.01,2013-01-12 16:27:00,
2013-01-12 10:28:00,32.7,23.0,30.05,West,270,5.3,5.3,67,0.00,,,0.00,VWS V14.01,2013-01-12 16:28:00,
2013-01-12 10:29:00,32.7,23.0,30.05,West,270,5.3,5.3,67,0.00,,,0.00,VWS V14.01,2013-01-12 16:29:00,
2013-01-12 10:30:00,32.1,22.4,30.05,West,270,5.3,5.3,67,0.00,,,0.00,VWS V14.01,2013-01-12 16:30:00,
2013-01-12 10:31:00,32.1,22.4,30.05,West,270,5.3,5.3,67,0.00,,,0.00,VWS V14.01,2013-01-12 16:31:00,
2013-01-12 10:32:00,32.1,22.4,30.05,West,270,5.3,5.3,67,0.00,,,0.00,VWS V14.01,2013-01-12 16:32:00,
2013-01-12 10:33:00,31.8,22.1,30.05,West,270,8.5,8.5,67,0.00,,,0.00,VWS V14.01,2013-01-12 16:33:00,
2013-01-12 10:34:00,31.8,22.1,30.04,WSW,248,5.8,8.5,67,0.00,,,0.00,VWS V14.01,2013-01-12 16:34:00,
2013-01-12 10:35:00,31.8,22.1,30.05,WSW,248,5.8,5.8,67,0.00,,,0.00,VWS V14.01,2013-01-12 16:35:00,
2013-01-12 10:36:00,31.6,22.3,30.05,WNW,292,7.1,7.1,68,0.00,,,0.00,VWS V14.01,2013-01-12 16:36:00,
2013-01-12 10:37:00,31.6,22.3,30.05,WNW,292,7.1,7.1,68,0.00,,,0.00,VWS V14.01,2013-01-12 16:37:00,
2013-01-12 10:38:00,30.9,21.6,30.04,WNW,292,2.6,7.1,68,0.00,,,0.00,VWS V14.01,2013-01-12 16:38:00,
2013-01-12 10:39:00,30.9,21.6,30.04,WNW,292,2.6,2.6,68,0.00,,,0.00,VWS V14.01,2013-01-12 16:39:00,
2013-01-12 10:40:00,30.5,21.9,30.04,West,270,4.6,4.6,70,0.00,,,0.00,VWS V14.01,2013-01-12 16:40:00,
2013-01-12 10:41:00,30.5,21.9,30.04,West,270,4.6,4.6,70,0.00,,,0.00,VWS V14.01,2013-01-12 16:41:00,
2013-01-12 10:42:00,30.5,21.9,30.04,West,270,4.6,4.6,70,0.00,,,0.00,VWS V14.01,2013-01-12 16:42:00,
2013-01-12 10:43:00,30.7,21.8,30.04,WNW,292,4.9,4.9,69,0.00,,,0.00,VWS V14.01,2013-01-12 16:43:00,
2013-01-12 10:44:00,30.5,21.9,30.05,WNW,292,10.2,10.2,70,0.00,,,0.00,VWS V14.01,2013-01-12 16:44:00,
2013-01-12 10:45:00,30.5,21.9,30.05,WNW,292,10.2,10.2,70,0.00,,,0.00,VWS V14.01,2013-01-12 16:45:00,
2013-01-12 10:46:00,30.2,21.6,30.05,WNW,292,10.2,10.2,70,0.00,,,0.00,VWS V14.01,2013-01-12 16:46:00,
2013-01-12 10:47:00,30.2,21.6,30.05,WNW,292,10.2,10.2,70,0.00,,,0.00,VWS V14.01,2013-01-12 16:47:00,
2013-01-12 10:48:00,30.2,21.6,30.05,SW,225,4.2,4.2,70,0.00,,,0.00,VWS V14.01,2013-01-12 16:48:00,
2013-01-12 10:49:00,30.5,22.2,30.05,SSW,202,4.6,4.6,71,0.00,,,0.00,VWS V14.01,2013-01-12 16:49:00,
2013-01-12 10:50:00,30.5,22.2,30.05,SSW,202,4.6,4.6,71,0.00,,,0.00,VWS V14.01,2013-01-12 16:50:00,
2013-01-12 10:51:00,30.7,22.4,30.05,West,270,0.0,4.6,71,0.00,,,0.00,VWS V14.01,2013-01-12 16:51:00,
2013-01-12 10:52:00,30.7,22.4,30.05,West,270,0.0,0.0,71,0.00,,,0.00,VWS V14.01,2013-01-12 16:52:00,
2013-01-12 10:53:00,30.5,22.2,30.04,West,270,4.2,4.2,71,0.00,,,0.00,VWS V14.01,2013-01-12 16:53:00,
2013-01-12 10:54:00,30.5,22.2,30.04,West,270,4.2,4.2,71,0.00,,,0.00,VWS V14.01,2013-01-12 16:54:00,
2013-01-12 10:55:00,30.5,22.2,30.04,WNW,292,4.9,4.9,71,0.00,,,0.00,VWS V14.01,2013-01-12 16:55:00,
2013-01-12 10:56:00,30.5,22.2,30.04,WNW,292,4.9,4.9,71,0.00,,,0.00,VWS V14.01,2013-01-12 16:56:00,
2013-01-12 10:57:00,30.5,22.2,30.04,WNW,292,4.9,4.9,71,0.00,,,0.00,VWS V14.01,2013-01-12 16:57:00,
2013-01-12 10:58:00,30.7,22.4,30.05,West,270,5.5,5.5,71,0.00,,,0.00,VWS V14.01,2013-01-12 16:58:00,
2013-01-12 10:59:00,31.2,22.9,30.05,SW,225,3.1,5.5,71,0.00,,,0.00,VWS V14.01,2013-01-12 16:59:00,
2013-01-12 11:00:00,31.2,22.9,30.05,SW,225,3.1,3.1,71,0.00,,,0.00,VWS V14.01,2013-01-12 17:00:00,
2013-01-12 11:01:00,31.2,22.9,30.05,WNW,292,4.2,4.2,71,0.00,,,0.00,VWS V14.01,2013-01-12 17:01:00,
2013-01-12 11:02:00,31.2,22.9,30.05,WNW,292,4.2,4.2,71,0.00,,,0.00,VWS V14.01,2013-01-12 17:02:00,
2013-01-12 11:03:00,31.2,22.9,30.04,WNW,292,4.2,4.2,71,0.00,,,0.00,VWS V14.01,2013-01-12 17:03:00,
2013-01-12 11:04:00,30.7,22.1,30.05,WSW,248,3.3,4.2,70,0.00,,,0.00,VWS V14.01,2013-01-12 17:04:00,
2013-01-12 11:05:00,30.7,22.1,30.05,WSW,248,3.3,3.3,70,0.00,,,0.00,VWS V14.01,2013-01-12 17:05:00,
2013-01-12 11:06:00,30.0,22.1,30.05,WNW,292,5.5,5.5,72,0.00,,,0.00,VWS V14.01,2013-01-12 17:06:00,
2013-01-12 11:07:00,30.0,22.1,30.05,WNW,292,5.5,5.5,72,0.00,,,0.00,VWS V14.01,2013-01-12 17:07:00,
2013-01-12 11:08:00,30.0,22.1,30.05,WNW,292,5.5,5.5,72,0.00,,,0.00,VWS V14.01,2013-01-12 17:08:00,
2013-01-12 11:09:00,29.6,21.4,30.05,West,270,7.6,7.6,71,0.00,,,0.00,VWS V14.01,2013-01-12 17:09:00,
2013-01-12 11:10:00,29.3,21.7,30.05,SW,225,2.0,7.6,73,0.00,,,0.00,VWS V14.01,2013-01-12 17:10:00,
2013-01-12 11:11:00,29.3,21.7,30.05,SW,225,2.0,2.0,73,0.00,,,0.00,VWS V14.01,2013-01-12 17:11:00,
2013-01-12 11:12:00,29.3,21.7,30.05,SW,225,2.0,2.0,73,0.00,,,0.00,VWS V14.01,2013-01-12 17:12:00,
2013-01-12 11:13:00,29.3,21.4,30.05,SSW,202,3.1,3.1,72,0.00,,,0.00,VWS V14.01,2013-01-12 17:13:00,
2013-01-12 11:14:00,29.4,21.5,30.05,WSW,248,7.1,7.1,72,0.00,,,0.00,VWS V14.01,2013-01-12 17:14:00,
2013-01-12 11:15:00,29.4,21.8,30.05,WSW,248,7.1,7.1,73,0.00,,,0.00,VWS V14.01,2013-01-12 17:15:00,
2013-01-12 11:16:00,29.6,22.0,30.05,SW,225,3.8,7.1,73,0.00,,,0.00,VWS V14.01,2013-01-12 17:16:00,
2013-01-12 11:17:00,29.6,22.0,30.05,SW,225,3.8,3.8,73,0.00,,,0.00,VWS V14.01,2013-01-12 17:17:00,
2013-01-12 11:18:00,29.6,22.0,30.05,SW,225,3.8,3.8,73,0.00,,,0.00,VWS V14.01,2013-01-12 17:18:00,
2013-01-12 11:19:00,30.0,22.7,30.05,WSW,248,2.9,3.8,74,0.00,,,0.00,VWS V14.01,2013-01-12 17:19:00,
2013-01-12 11:20:00,30.0,22.7,30.05,WSW,248,2.9,2.9,74,0.00,,,0.00,VWS V14.01,2013-01-12 17:20:00,
2013-01-12 11:21:00,30.0,22.4,30.05,West,270,3.8,3.8,73,0.00,,,0.00,VWS V14.01,2013-01-12 17:21:00,
2013-01-12 11:22:00,30.0,22.4,30.05,West,270,3.8,3.8,73,0.00,,,0.00,VWS V14.01,2013-01-12 17:22:00,
2013-01-12 11:23:00,30.0,22.4,30.05,WNW,292,5.8,5.8,73,0.00,,,0.00,VWS V14.01,2013-01-12 17:23:00,
2013-01-12 11:24:00,30.0,22.4,30.05,WNW,292,5.8,5.8,73,0.00,,,0.00,VWS V14.01,2013-01-12 17:24:00,
2013-01-12 11:25:00,30.0,21.8,30.05,West,270,3.1,5.8,71,0.00,,,0.00,VWS V14.01,2013-01-12 17:25:00,
2013-01-12 11:26:00,30.0,21.8,30.05,West,270,3.1,3.1,71,0.00,,,0.00,VWS V14.01,2013-01-12 17:26:00,
2013-01-12 11:27:00,30.0,21.8,30.05,West,270,3.1,3.1,71,0.00,,,0.00,VWS V14.01,2013-01-12 17:27:00,
2013-01-12 11:28:00,30.3,21.7,30.05,West,270,1.3,1.3,70,0.00,,,0.00,VWS V14.01,2013-01-12 17:28:00,
2013-01-12 11:29:00,30.5,21.6,30.04,West,270,5.5,5.5,69,0.00,,,0.00,VWS V14.01,2013-01-12 17:29:00,
2013-01-12 11:30:00,30.5,21.6,30.05,West,270,5.5,5.5,69,0.00,,,0.00,VWS V14.01,2013-01-12 17:30:00,
2013-01-12 11:31:00,30.3,21.0,30.04,West,270,5.8,5.8,68,0.00,,,0.00,VWS V14.01,2013-01-12 17:31:00,
2013-01-12 11:32:00,30.3,21.0,30.04,West,270,5.8,5.8,68,0.00,,,0.00,VWS V14.01,2013-01-12 17:32:00,
2013-01-12 11:33:00,30.3,21.0,30.04,West,270,5.8,5.8,68,0.00,,,0.00,VWS V14.01,2013-01-12 17:33:00,
2013-01-12 11:34:00,30.3,21.0,30.05,West,270,3.8,5.8,68,0.00,,,0.00,VWS V14.01,2013-01-12 17:34:00,
2013-01-12 11:35:00,30.3,21.0,30.04,West,270,3.8,3.8,68,0.00,,,0.00,VWS V14.01,2013-01-12 17:35:00,
2013-01-12 11:36:00,30.7,21.8,30.04,WSW,248,5.1,5.1,69,0.00,,,0.00,VWS V14.01,2013-01-12 17:36:00,
2013-01-12 11:37:00,30.7,21.8,30.04,WSW,248,5.1,5.1,69,0.00,,,0.00,VWS V14.01,2013-01-12 17:37:00,
2013-01-12 11:38:00,30.9,21.6,30.04,SSW,202,5.3,5.3,68,0.00,,,0.00,VWS V14.01,2013-01-12 17:38:00,
2013-01-12 11:39:00,30.9,21.6,30.04,SSW,202,5.3,5.3,68,0.00,,,0.00,VWS V14.01,2013-01-12 17:39:00,
2013-01-12 11:40:00,30.9,21.2,30.04,West,270,5.5,5.5,67,0.00,,,0.00,VWS V14.01,2013-01-12 17:40:00,
2013-01-12 11:41:00,30.9,21.2,30.04,West,270,5.5,5.5,67,0.00,,,0.00,VWS V14.01,2013-01-12 17:41:00,
2013-01-12 11:42:00,30.9,21.2,30.04,West,270,5.5,5.5,67,0.00,,,0.00,VWS V14.01,2013-01-12 17:42:00,
2013-01-12 11:43:00,30.7,20.3,30.05,WNW,292,4.6,4.6,65,0.00,,,0.00,VWS V14.01,2013-01-12 17:43:00,
2013-01-12 11:44:00,30.2,19.5,30.04,WNW,292,6.4,6.4,64,0.00,,,0.00,VWS V14.01,2013-01-12 17:44:00,
2013-01-12 11:45:00,30.2,19.5,30.05,WNW,292,6.4,6.4,64,0.00,,,0.00,VWS V14.01,2013-01-12 17:45:00,
2013-01-12 11:46:00,30.2,19.5,30.04,West,270,6.4,6.4,64,0.00,,,0.00,VWS V14.01,2013-01-12 17:46:00,
2013-01-12 11:47:00,30.2,19.5,30.04,West,270,6.4,6.4,64,0.00,,,0.00,VWS V14.01,2013-01-12 17:47:00,
2013-01-12 11:48:00,29.8,19.1,30.04,West,270,6.4,6.4,64,0.00,,,0.00,VWS V14.01,2013-01-12 17:48:00,
2013-01-12 11:49:00,29.8,19.5,30.04,West,270,6.0,6.4,65,0.00,,,0.00,VWS V14.01,2013-01-12 17:49:00,
2013-01-12 11:50:00,29.8,19.5,30.05,West,270,6.0,6.0,65,0.00,,,0.00,VWS V14.01,2013-01-12 17:50:00,
2013-01-12 11:51:00,29.8,19.5,30.05,WSW,248,4.9,6.0,65,0.00,,,0.00,VWS V14.01,2013-01-12 17:51:00,
2013-01-12 11:52:00,29.8,19.5,30.05,WSW,248,4.9,4.9,65,0.00,,,0.00,VWS V14.01,2013-01-12 17:52:00,
2013-01-12 11:53:00,30.2,19.9,30.05,West,270,5.3,5.3,65,0.00,,,0.00,VWS V14.01,2013-01-12 17:53:00,
2013-01-12 11:54:00,30.2,19.9,30.05,West,270,5.3,5.3,65,0.00,,,0.00,VWS V14.01,2013-01-12 17:54:00,
2013-01-12 11:55:00,30.5,20.1,30.05,WSW,248,5.3,5.3,65,0.00,,,0.00,VWS V14.01,2013-01-12 17:55:00,
2013-01-12 11:56:00,30.5,20.1,30.05,WSW,248,5.3,5.3,65,0.00,,,0.00,VWS V14.01,2013-01-12 17:56:00,
2013-01-12 11:57:00,30.5,20.1,30.05,WSW,248,5.3,5.3,65,0.00,,,0.00,VWS V14.01,2013-01-12 17:57:00,
2013-01-12 11:58:00,30.5,19.8,30.05,WNW,292,6.4,6.4,64,0.00,,,0.00,VWS V14.01,2013-01-12 17:58:00,
2013-01-12 11:59:00,30.2,19.9,30.05,West,270,0.6,6.4,65,0.00,,,0.00,VWS V14.01,2013-01-12 17:59:00,
2013-01-12 12:00:00,30.2,19.9,30.05,West,270,0.6,0.6,65,0.00,,,0.00,VWS V14.01,2013-01-12 18:00:00,
2013-01-12 12:01:00,30.2,20.2,30.05,West,270,1.5,1.5,66,0.00,,,0.00,VWS V14.01,2013-01-12 18:01:00,
2013-01-12 12:02:00,30.2,20.2,30.05,West,270,1.5,1.5,66,0.00,,,0.00,VWS V14.01,2013-01-12 18:02:00,
2013-01-12 12:03:00,30.2,20.2,30.05,West,270,1.5,1.5,66,0.00,,,0.00,VWS V14.01,2013-01-12 18:03:00,
2013-01-12 12:04:00,29.8,19.8,30.05,WSW,248,6.4,6.4,66,0.00,,,0.00,VWS V14.01,2013-01-12 18:04:00,
2013-01-12 12:05:00,29.8,19.8,30.05,WSW,248,6.4,6.4,66,0.00,,,0.00,VWS V14.01,2013-01-12 18:05:00,
2013-01-12 12:06:00,29.6,20.4,30.05,SSW,202,3.1,6.4,68,0.00,,,0.00,VWS V14.01,2013-01-12 18:06:00,
2013-01-12 12:07:00,29.6,20.4,30.05,SSW,202,3.1,3.1,68,0.00,,,0.00,VWS V14.01,2013-01-12 18:07:00,
2013-01-12 12:08:00,29.8,20.5,30.05,West,270,5.1,5.1,68,0.00,,,0.00,VWS V14.01,2013-01-12 18:08:00,
2013-01-12 12:09:00,29.8,20.5,30.05,West,270,5.1,5.1,68,0.00,,,0.00,VWS V14.01,2013-01-12 18:09:00,
2013-01-12 12:10:00,29.8,20.5,30.05,SSW,202,2.4,5.1,68,0.00,,,0.00,VWS V14.01,2013-01-12 18:10:00,
2013-01-12 12:11:00,29.8,20.5,30.05,SSW,202,2.4,2.4,68,0.00,,,0.00,VWS V14.01,2013-01-12 18:11:00,
2013-01-12 12:12:00,29.8,20.5,30.05,SSW,202,2.4,2.4,68,0.00,,,0.00,VWS V14.01,2013-01-12 18:12:00,
2013-01-12 12:13:00,29.8,20.5,30.05,West,270,6.4,6.4,68,0.00,,,0.00,VWS V14.01,2013-01-12 18:13:00,
2013-01-12 12:14:00,29.4,20.2,30.05,SSW,202,2.6,6.4,68,0.00,,,0.00,VWS V14.01,2013-01-12 18:14:00,
2013-01-12 12:15:00,29.4,20.2,30.05,SSW,202,2.6,2.6,68,0.00,,,0.00,VWS V14.01,2013-01-12 18:15:00,
2013-01-12 12:16:00,29.4,20.2,30.05,WSW,248,6.4,6.4,68,0.00,,,0.00,VWS V14.01,2013-01-12 18:16:00,
2013-01-12 12:17:00,29.4,20.2,30.05,WSW,248,6.4,6.4,68,0.00,,,0.00,VWS V14.01,2013-01-12 18:17:00,
2013-01-12 12:18:00,29.6,20.4,30.05,WSW,248,6.4,6.4,68,0.00,,,0.00,VWS V14.01,2013-01-12 18:18:00,
2013-01-12 12:19:00,29.6,20.4,30.05,SW,225,6.0,6.4,68,0.00,,,0.00,VWS V14.01,2013-01-12 18:19:00,
2013-01-12 12:20:00,29.6,20.4,30.05,SW,225,6.0,6.0,68,0.00,,,0.00,VWS V14.01,2013-01-12 18:20:00,
2013-01-12 12:21:00,29.6,21.0,30.05,WSW,248,4.4,6.0,70,0.00,,,0.00,VWS V14.01,2013-01-12 18:21:00,
2013-01-12 12:22:00,29.6,21.0,30.05,WSW,248,4.4,4.4,70,0.00,,,0.00,VWS V14.01,2013-01-12 18:22:00,
2013-01-12 12:23:00,29.6,20.4,30.06,West,270,4.4,4.4,68,0.00,,,0.00,VWS V14.01,2013-01-12 18:23:00,
2013-01-12 12:24:00,29.6,20.4,30.06,West,270,4.4,4.4,68,0.00,,,0.00,VWS V14.01,2013-01-12 18:24:00,
2013-01-12 12:25:00,29.6,20.7,30.06,WSW,248,3.3,4.4,69,0.00,,,0.00,VWS V14.01,2013-01-12 18:25:00,
2013-01-12 12:26:00,29.6,20.7,30.06,WSW,248,3.3,3.3,69,0.00,,,0.00,VWS V14.01,2013-01-12 18:26:00,
2013-01-12 12:27:00,29.6,20.7,30.06,WSW,248,3.3,3.3,69,0.00,,,0.00,VWS V14.01,2013-01-12 18:27:00,
2013-01-12 12:28:00,30.0,20.7,30.05,WNW,292,4.9,4.9,68,0.00,,,0.00,VWS V14.01,2013-01-12 18:28:00,
2013-01-12 12:29:00,30.2,21.3,30.05,SSW,202,3.1,4.9,69,0.00,,,0.00,VWS V14.01,2013-01-12 18:29:00,
2013-01-12 12:30:00,30.2,21.3,30.05,SSW,202,3.1,3.1,69,0.00,,,0.00,VWS V14.01,2013-01-12 18:30:00,
2013-01-12 12:31:00,30.2,21.3,30.05,West,270,4.4,4.4,69,0.00,,,0.00,VWS V14.01,2013-01-12 18:31:00,
2013-01-12 12:32:00,30.2,21.3,30.05,West,270,4.4,4.4,69,0.00,,,0.00,VWS V14.01,2013-01-12 18:32:00,
2013-01-12 12:33:00,30.7,21.8,30.05,West,270,4.4,4.4,69,0.00,,,0.00,VWS V14.01,2013-01-12 18:33:00,
2013-01-12 12:34:00,30.7,21.4,30.05,West,270,6.9,6.9,68,0.00,,,0.00,VWS V14.01,2013-01-12 18:34:00,
2013-01-12 12:35:00,30.7,21.4,30.05,West,270,6.9,6.9,68,0.00,,,0.00,VWS V14.01,2013-01-12 18:35:00,
2013-01-12 12:36:00,30.9,21.2,30.05,South,180,5.5,6.9,67,0.00,,,0.00,VWS V14.01,2013-01-12 18:36:00,
2013-01-12 12:37:00,30.9,21.2,30.05,South,180,5.5,5.5,67,0.00,,,0.00,VWS V14.01,2013-01-12 18:37:00,
2013-01-12 12:38:00,30.7,21.1,30.06,WSW,248,4.9,5.5,67,0.00,,,0.00,VWS V14.01,2013-01-12 18:38:00,
2013-01-12 12:39:00,30.7,21.1,30.05,WSW,248,4.9,4.9,67,0.00,,,0.00,VWS V14.01,2013-01-12 18:39:00,
2013-01-12 12:40:00,31.1,21.4,30.05,West,270,4.2,4.9,67,0.00,,,0.00,VWS V14.01,2013-01-12 18:40:00,
2013-01-12 12:41:00,31.1,21.4,30.05,West,270,4.2,4.2,67,0.00,,,0.00,VWS V14.01,2013-01-12 18:41:00,
2013-01-12 12:42:00,31.1,21.4,30.05,West,270,4.2,4.2,67,0.00,,,0.00,VWS V14.01,2013-01-12 18:42:00,
2013-01-12 12:43:00,31.6,21.9,30.05,SW,225,4.4,4.4,67,0.00,,,0.00,VWS V14.01,2013-01-12 18:43:00,
2013-01-12 12:44:00,31.6,21.6,30.05,SSW,202,3.5,4.4,66,0.00,,,0.00,VWS V14.01,2013-01-12 18:44:00,
2013-01-12 12:45:00,31.2,21.2,30.05,SSW,202,3.5,3.5,66,0.00,,,0.00,VWS V14.01,2013-01-12 18:45:00,
2013-01-12 12:46:00,31.1,21.1,30.05,SSW,202,4.9,4.9,66,0.00,,,0.00,VWS V14.01,2013-01-12 18:46:00,
2013-01-12 12:47:00,31.1,21.1,30.05,SSW,202,4.9,4.9,66,0.00,,,0.00,VWS V14.01,2013-01-12 18:47:00,
2013-01-12 12:48:00,31.1,21.1,30.06,SSW,202,4.9,4.9,66,0.00,,,0.00,VWS V14.01,2013-01-12 18:48:00,
2013-01-12 12:49:00,30.7,21.1,30.06,SSW,202,6.0,6.0,67,0.00,,,0.00,VWS V14.01,2013-01-12 18:49:00,
2013-01-12 12:50:00,30.7,21.1,30.06,SSW,202,6.0,6.0,67,0.00,,,0.00,VWS V14.01,2013-01-12 18:50:00,
2013-01-12 12:51:00,30.7,21.1,30.06,WSW,248,7.8,7.8,67,0.00,,,0.00,VWS V14.01,2013-01-12 18:51:00,
2013-01-12 12:52:00,30.7,21.1,30.06,WSW,248,7.8,7.8,67,0.00,,,0.00,VWS V14.01,2013-01-12 18:52:00,
2013-01-12 12:53:00,30.5,20.9,30.05,SSW,202,3.8,7.8,67,0.00,,,0.00,VWS V14.01,2013-01-12 18:53:00,
2013-01-12 12:54:00,30.5,20.9,30.05,SSW,202,3.8,3.8,67,0.00,,,0.00,VWS V14.01,2013-01-12 18:54:00,
2013-01-12 12:55:00,30.2,20.9,30.05,WNW,292,5.5,5.5,68,0.00,,,0.00,VWS V14.01,2013-01-12 18:55:00,
2013-01-12 12:56:00,30.2,20.9,30.05,WNW,292,5.5,5.5,68,0.00,,,0.00,VWS V14.01,2013-01-12 18:56:00,
2013-01-12 12:57:00,30.2,20.9,30.05,WNW,292,5.5,5.5,68,0.00,,,0.00,VWS V14.01,2013-01-12 18:57:00,
2013-01-12 12:58:00,30.0,20.7,30.04,West,270,3.5,3.5,68,0.00,,,0.00,VWS V14.01,2013-01-12 18:58:00,
2013-01-12 12:59:00,29.4,20.2,30.05,West,270,1.1,3.5,68,0.00,,,0.00,VWS V14.01,2013-01-12 18:59:00,
2013-01-12 13:00:00,29.4,20.2,30.05,West,270,1.1,1.1,68,0.00,,,0.00,VWS V14.01,2013-01-12 19:00:00,
2013-01-12 13:01:00,29.4,20.2,30.05,West,270,4.4,4.4,68,0.00,,,0.00,VWS V14.01,2013-01-12 19:01:00,
2013-01-12 13:02:00,29.4,20.2,30.05,West,270,4.4,4.4,68,0.00,,,0.00,VWS V14.01,2013-01-12 19:02:00,
2013-01-12 13:03:00,29.4,20.5,30.04,West,270,4.4,4.4,69,0.00,,,0.00,VWS V14.01,2013-01-12 19:03:00,
2013-01-12 13:04:00,29.6,20.7,30.05,West,270,3.8,4.4,69,0.00,,,0.00,VWS V14.01,2013-01-12 19:04:00,
2013-01-12 13:05:00,29.6,20.7,30.05,West,270,3.8,3.8,69,0.00,,,0.00,VWS V14.01,2013-01-12 19:05:00,
2013-01-12 13:06:00,29.4,20.8,30.04,WSW,248,4.0,4.0,70,0.00,,,0.00,VWS V14.01,2013-01-12 19:06:00,
2013-01-12 13:07:00,29.4,20.8,30.04,WSW,248,4.0,4.0,70,0.00,,,0.00,VWS V14.01,2013-01-12 19:07:00,
2013-01-12 13:08:00,29.4,20.8,30.04,West,270,4.2,4.2,70,0.00,,,0.00,VWS V14.01,2013-01-12 19:08:00,
2013-01-12 13:09:00,29.4,20.8,30.04,West,270,4.2,4.2,70,0.00,,,0.00,VWS V14.01,2013-01-12 19:09:00,
2013-01-12 13:10:00,29.6,21.0,30.04,West,270,11.4,11.4,70,0.00,,,0.00,VWS V14.01,2013-01-12 19:10:00,
2013-01-12 13:11:00,29.6,21.0,30.03,West,270,11.4,11.4,70,0.00,,,0.00,VWS V14.01,2013-01-12 19:11:00,
2013-01-12 13:12:00,29.6,21.0,30.03,West,270,11.4,11.4,70,0.00,,,0.00,VWS V14.01,2013-01-12 19:12:00,
2013-01-12 13:13:00,29.4,20.5,30.03,West,270,4.2,4.2,69,0.00,,,0.00,VWS V14.01,2013-01-12 19:13:00,
2013-01-12 13:14:00,29.4,20.8,30.04,WNW,292,15.4,15.4,70,0.00,,,0.00,VWS V14.01,2013-01-12 19:14:00,
2013-01-12 13:15:00,29.4,20.8,30.04,WNW,292,15.4,15.4,70,0.00,,,0.00,VWS V14.01,2013-01-12 19:15:00,
2013-01-12 13:16:00,29.3,20.7,30.04,WNW,292,12.5,15.4,70,0.00,,,0.00,VWS V14.01,2013-01-12 19:16:00,
2013-01-12 13:17:00,29.3,20.7,30.04,WNW,292,12.5,12.5,70,0.00,,,0.00,VWS V14.01,2013-01-12 19:17:00,
2013-01-12 13:18:00,29.3,20.4,30.03,WNW,292,12.5,12.5,69,0.00,,,0.00,VWS V14.01,2013-01-12 19:18:00,
2013-01-12 13:19:00,29.3,20.4,30.04,WNW,292,12.3,12.5,69,0.00,,,0.00,VWS V14.01,2013-01-12 19:19:00,
2013-01-12 13:20:00,29.3,20.4,30.04,WNW,292,12.3,12.3,69,0.00,,,0.00,VWS V14.01,2013-01-12 19:20:00,
2013-01-12 13:21:00,29.1,20.2,30.04,West,270,7.3,12.3,69,0.00,,,0.00,VWS V14.01,2013-01-12 19:21:00,
2013-01-12 13:22:00,29.1,20.2,30.04,West,270,7.3,7.3,69,0.00,,,0.00,VWS V14.01,2013-01-12 19:22:00,
2013-01-12 13:23:00,28.9,20.4,30.05,WNW,292,4.0,7.3,70,0.00,,,0.00,VWS V14.01,2013-01-12 19:23:00,
2013-01-12 13:24:00,28.9,20.4,30.05,WNW,292,4.0,4.0,70,0.00,,,0.00,VWS V14.01,2013-01-12 19:24:00,
2013-01-12 13:25:00,28.9,20.4,30.05,West,270,4.0,4.0,70,0.00,,,0.00,VWS V14.01,2013-01-12 19:25:00,
2013-01-12 13:26:00,28.9,20.4,30.05,West,270,4.0,4.0,70,0.00,,,0.00,VWS V14.01,2013-01-12 19:26:00,
2013-01-12 13:27:00,28.9,20.4,30.05,West,270,4.0,4.0,70,0.00,,,0.00,VWS V14.01,2013-01-12 19:27:00,
2013-01-12 13:28:00,28.9,20.4,30.05,West,270,4.9,4.9,70,0.00,,,0.00,VWS V14.01,2013-01-12 19:28:00,
2013-01-12 13:29:00,28.7,20.2,30.04,West,270,7.3,7.3,70,0.00,,,0.00,VWS V14.01,2013-01-12 19:29:00,
2013-01-12 13:30:00,28.7,20.2,30.04,West,270,7.3,7.3,70,0.00,,,0.00,VWS V14.01,2013-01-12 19:30:00,
2013-01-12 13:31:00,28.7,20.2,30.05,West,270,7.3,7.3,70,0.00,,,0.00,VWS V14.01,2013-01-12 19:31:00,
2013-01-12 13:32:00,28.7,20.2,30.05,West,270,7.3,7.3,70,0.00,,,0.00,VWS V14.01,2013-01-12 19:32:00,
2013-01-12 13:33:00,28.5,19.6,30.05,West,270,5.1,5.1,69,0.00,,,0.00,VWS V14.01,2013-01-12 19:33:00,
2013-01-12 13:34:00,28.5,20.0,30.05,WNW,292,4.6,5.1,70,0.00,,,0.00,VWS V14.01,2013-01-12 19:34:00,
2013-01-12 13:35:00,28.5,20.0,30.05,WNW,292,4.6,4.6,70,0.00,,,0.00,VWS V14.01,2013-01-12 19:35:00,
2013-01-12 13:36:00,28.5,20.0,30.05,WNW,292,5.3,5.3,70,0.00,,,0.00,VWS V14.01,2013-01-12 19:36:00,
2013-01-12 13:37:00,28.5,20.0,30.05,WNW,292,5.3,5.3,70,0.00,,,0.00,VWS V14.01,2013-01-12 19:37:00,
2013-01-12 13:38:00,28.5,19.6,30.05,WNW,292,10.7,10.7,69,0.00,,,0.00,VWS V14.01,2013-01-12 19:38:00,
2013-01-12 13:39:00,28.5,19.6,30.05,WNW,292,10.7,10.7,69,0.00,,,0.00,VWS V14.01,2013-01-12 19:39:00,
2013-01-12 13:40:00,28.2,19.7,30.05,WNW,292,2.9,10.7,70,0.00,,,0.00,VWS V14.01,2013-01-12 19:40:00,
2013-01-12 13:41:00,28.2,19.7,30.05,WNW,292,2.9,2.9,70,0.00,,,0.00,VWS V14.01,2013-01-12 19:41:00,
2013-01-12 13:42:00,28.2,19.7,30.05,WNW,292,2.9,2.9,70,0.00,,,0.00,VWS V14.01,2013-01-12 19:42:00,
2013-01-12 13:43:00,28.2,19.7,30.05,West,270,3.8,3.8,70,0.00,,,0.00,VWS V14.01,2013-01-12 19:43:00,
2013-01-12 13:44:00,28.2,20.0,30.05,SW,225,2.9,3.8,71,0.00,,,0.00,VWS V14.01,2013-01-12 19:44:00,
2013-01-12 13:45:00,28.2,20.0,30.05,SW,225,2.9,2.9,71,0.00,,,0.00,VWS V14.01,2013-01-12 19:45:00,
2013-01-12 13:46:00,28.2,20.0,30.05,West,270,3.8,3.8,71,0.00,,,0.00,VWS V14.01,2013-01-12 19:46:00,
2013-01-12 13:47:00,28.2,20.0,30.05,West,270,3.8,3.8,71,0.00,,,0.00,VWS V14.01,2013-01-12 19:47:00,
2013-01-12 13:48:00,28.2,20.0,30.05,West,270,3.8,3.8,71,0.00,,,0.00,VWS V14.01,2013-01-12 19:48:00,
2013-01-12 13:49:00,28.2,20.4,30.05,West,270,1.1,3.8,72,0.00,,,0.00,VWS V14.01,2013-01-12 19:49:00,
2013-01-12 13:50:00,28.2,20.4,30.05,West,270,1.1,1.1,72,0.00,,,0.00,VWS V14.01,2013-01-12 19:50:00,
2013-01-12 13:51:00,28.4,20.5,30.05,West,270,0.6,1.1,72,0.00,,,0.00,VWS V14.01,2013-01-12 19:51:00,
2013-01-12 13:52:00,28.4,20.5,30.05,West,270,0.6,0.6,72,0.00,,,0.00,VWS V14.01,2013-01-12 19:52:00,
2013-01-12 13:53:00,28.4,20.5,30.05,West,270,2.9,2.9,72,0.00,,,0.00,VWS V14.01,2013-01-12 19:53:00,
2013-01-12 13:54:00,28.4,20.5,30.06,West,270,2.9,2.9,72,0.00,,,0.00,VWS V14.01,2013-01-12 19:54:00,
2013-01-12 13:55:00,28.2,19.7,30.06,SW,225,2.0,2.9,70,0.00,,,0.00,VWS V14.01,2013-01-12 19:55:00,
2013-01-12 13:56:00,28.2,19.7,30.06,SW,225,2.0,2.0,70,0.00,,,0.00,VWS V14.01,2013-01-12 19:56:00,
2013-01-12 13:57:00,28.2,19.7,30.06,SW,225,2.0,2.0,70,0.00,,,0.00,VWS V14.01,2013-01-12 19:57:00,
2013-01-12 13:58:00,28.0,19.5,30.06,West,270,6.2,6.2,70,0.00,,,0.00,VWS V14.01,2013-01-12 19:58:00,
2013-01-12 13:59:00,27.8,19.0,30.06,WNW,292,6.4,6.4,69,0.00,,,0.00,VWS V14.01,2013-01-12 19:59:00,
2013-01-12 14:00:00,27.8,19.0,30.05,WNW,292,6.4,6.4,69,0.00,,,0.00,VWS V14.01,2013-01-12 20:00:00,
2013-01-12 14:01:00,27.6,19.4,30.05,WNW,292,6.4,6.4,71,0.00,,,0.00,VWS V14.01,2013-01-12 20:01:00,
2013-01-12 14:02:00,27.6,19.4,30.05,WNW,292,6.4,6.4,71,0.00,,,0.00,VWS V14.01,2013-01-12 20:02:00,
2013-01-12 14:03:00,27.6,19.4,30.05,West,270,6.0,6.0,71,0.00,,,0.00,VWS V14.01,2013-01-12 20:03:00,
2013-01-12 14:04:00,27.6,19.4,30.05,WNW,292,3.8,6.0,71,0.00,,,0.00,VWS V14.01,2013-01-12 20:04:00,
2013-01-12 14:05:00,27.6,19.4,30.05,WNW,292,3.8,3.8,71,0.00,,,0.00,VWS V14.01,2013-01-12 20:05:00,
2013-01-12 14:06:00,27.6,19.4,30.05,West,270,5.5,5.5,71,0.00,,,0.00,VWS V14.01,2013-01-12 20:06:00,
2013-01-12 14:07:00,27.6,19.4,30.05,West,270,5.5,5.5,71,0.00,,,0.00,VWS V14.01,2013-01-12 20:07:00,
2013-01-12 14:08:00,27.5,19.7,30.06,West,270,4.4,5.5,72,0.00,,,0.00,VWS V14.01,2013-01-12 20:08:00,
2013-01-12 14:09:00,27.5,19.7,30.05,West,270,4.4,4.4,72,0.00,,,0.00,VWS V14.01,2013-01-12 20:09:00,
2013-01-12 14:10:00,27.6,19.1,30.05,WNW,292,2.4,4.4,70,0.00,,,0.00,VWS V14.01,2013-01-12 20:10:00,
2013-01-12 14:11:00,27.6,19.1,30.06,WNW,292,2.4,2.4,70,0.00,,,0.00,VWS V14.01,2013-01-12 20:11:00,
2013-01-12 14:12:00,27.6,19.1,30.06,WNW,292,2.4,2.4,70,0.00,,,0.00,VWS V14.01,2013-01-12 20:12:00,
2013-01-12 14:13:00,27.3,18.5,30.06,West,270,7.3,7.3,69,0.00,,,0.00,VWS V14.01,2013-01-12 20:13:00,
2013-01-12 14:14:00,27.1,18.6,30.06,West,270,6.0,7.3,70,0.00,,,0.00,VWS V14.01,2013-01-12 20:14:00,
2013-01-12 14:15:00,27.1,18.6,30.05,West,270,6.0,6.0,70,0.00,,,0.00,VWS V14.01,2013-01-12 20:15:00,
2013-01-12 14:16:00,27.1,18.6,30.06,WNW,292,4.2,6.0,70,0.00,,,0.00,VWS V14.01,2013-01-12 20:16:00,
2013-01-12 14:17:00,27.1,18.6,30.06,WNW,292,4.2,4.2,70,0.00,,,0.00,VWS V14.01,2013-01-12 20:17:00,
2013-01-12 14:18:00,27.1,18.3,30.06,WNW,292,4.2,4.2,69,0.00,,,0.00,VWS V14.01,2013-01-12 20:18:00,
2013-01-12 14:19:00,27.1,18.6,30.06,West,270,4.2,4.2,70,0.00,,,0.00,VWS V14.01,2013-01-12 20:19:00,
2013-01-12 14:20:00,27.1,18.6,30.06,West,270,4.2,4.2,70,0.00,,,0.00,VWS V14.01,2013-01-12 20:20:00,
2013-01-12 14:21:00,26.9,18.1,30.06,WNW,292,7.3,7.3,69,0.00,,,0.00,VWS V14.01,2013-01-12 20:21:00,
2013-01-12 14:22:00,26.9,18.1,30.06,WNW,292,7.3,7.3,69,0.00,,,0.00,VWS V14.01,2013-01-12 20:22:00,
2013-01-12 14:23:00,26.9,18.1,30.06,WNW,292,13.1,13.1,69,0.00,,,0.00,VWS V14.01,2013-01-12 20:23:00,
2013-01-12 14:24:00,26.9,18.1,30.06,WNW,292,13.1,13.1,69,0.00,,,0.00,VWS V14.01,2013-01-12 20:24:00,
2013-01-12 14:25:00,26.7,17.9,30.06,West,270,5.8,13.1,69,0.00,,,0.00,VWS V14.01,2013-01-12 20:25:00,
2013-01-12 14:26:00,26.7,17.9,30.07,West,270,5.8,5.8,69,0.00,,,0.00,VWS V14.01,2013-01-12 20:26:00,
2013-01-12 14:27:00,26.7,17.9,30.07,West,270,5.8,5.8,69,0.00,,,0.00,VWS V14.01,2013-01-12 20:27:00,
2013-01-12 14:28:00,26.7,17.2,30.07,WNW,292,5.5,5.5,67,0.00,,,0.00,VWS V14.01,2013-01-12 20:28:00,
2013-01-12 14:29:00,26.6,17.8,30.07,West,270,6.7,6.7,69,0.00,,,0.00,VWS V14.01,2013-01-12 20:29:00,
2013-01-12 14:30:00,26.6,17.8,30.07,West,270,6.7,6.7,69,0.00,,,0.00,VWS V14.01,2013-01-12 20:30:00,
2013-01-12 14:31:00,26.6,17.8,30.07,West,270,1.1,6.7,69,0.00,,,0.00,VWS V14.01,2013-01-12 20:31:00,
2013-01-12 14:32:00,26.6,17.8,30.07,West,270,1.1,1.1,69,0.00,,,0.00,VWS V14.01,2013-01-12 20:32:00,
2013-01-12 14:33:00,26.6,18.1,30.06,West,270,2.0,2.0,70,0.00,,,0.00,VWS V14.01,2013-01-12 20:33:00,
2013-01-12 14:34:00,26.7,18.2,30.07,West,270,2.0,2.0,70,0.00,,,0.00,VWS V14.01,2013-01-12 20:34:00,
2013-01-12 14:35:00,26.7,18.2,30.07,West,270,2.0,2.0,70,0.00,,,0.00,VWS V14.01,2013-01-12 20:35:00,
2013-01-12 14:36:00,26.7,18.2,30.07,West,270,4.4,4.4,70,0.00,,,0.00,VWS V14.01,2013-01-12 20:36:00,
2013-01-12 14:37:00,26.7,18.2,30.07,West,270,4.4,4.4,70,0.00,,,0.00,VWS V14.01,2013-01-12 20:37:00,
2013-01-12 14:38:00,26.6,18.5,30.06,West,270,5.1,5.1,71,0.00,,,0.00,VWS V14.01,2013-01-12 20:38:00,
2013-01-12 14:39:00,26.6,18.5,30.07,West,270,5.1,5.1,71,0.00,,,0.00,VWS V14.01,2013-01-12 20:39:00,
2013-01-12 14:40:00,26.6,18.1,30.07,NW,315,10.9,10.9,70,0.00,,,0.00,VWS V14.01,2013-01-12 20:40:00,
2013-01-12 14:41:00,26.6,18.1,30.07,NW,315,10.9,10.9,70,0.00,,,0.00,VWS V14.01,2013-01-12 20:41:00,
2013-01-12 14:42:00,26.6,18.1,30.07,NW,315,10.9,10.9,70,0.00,,,0.00,VWS V14.01,2013-01-12 20:42:00,
2013-01-12 14:43:00,26.6,18.1,30.07,WNW,292,6.4,6.4,70,0.00,,,0.00,VWS V14.01,2013-01-12 20:43:00,
2013-01-12 14:44:00,26.7,18.6,30.06,WNW,292,4.0,6.4,71,0.00,,,0.00,VWS V14.01,2013-01-12 20:44:00,
2013-01-12 14:45:00,26.7,18.6,30.06,WNW,292,4.0,4.0,71,0.00,,,0.00,VWS V14.01,2013-01-12 20:45:00,
2013-01-12 14:46:00,26.6,18.1,30.07,WNW,292,7.1,7.1,70,0.00,,,0.00,VWS V14.01,2013-01-12 20:46:00,
2013-01-12 14:47:00,26.6,18.1,30.07,WNW,292,7.1,7.1,70,0.00,,,0.00,VWS V14.01,2013-01-12 20:47:00,
2013-01-12 14:48:00,26.6,18.1,30.07,WNW,292,7.1,7.1,70,0.00,,,0.00,VWS V14.01,2013-01-12 20:48:00,
2013-01-12 14:49:00,26.4,17.6,30.07,West,270,9.8,9.8,69,0.00,,,0.00,VWS V14.01,2013-01-12 20:49:00,
2013-01-12 14:50:00,26.4,17.6,30.07,West,270,9.8,9.8,69,0.00,,,0.00,VWS V14.01,2013-01-12 20:50:00,
2013-01-12 14:51:00,26.4,17.6,30.07,WNW,292,12.9,12.9,69,0.00,,,0.00,VWS V14.01,2013-01-12 20:51:00,
2013-01-12 14:52:00,26.4,17.6,30.07,WNW,292,12.9,12.9,69,0.00,,,0.00,VWS V14.01,2013-01-12 20:52:00,
2013-01-12 14:53:00,26.2,17.8,30.08,WNW,292,10.5,12.9,70,0.00,,,0.00,VWS V14.01,2013-01-12 20:53:00,
2013-01-12 14:54:00,26.2,17.8,30.08,WNW,292,10.5,10.5,70,0.00,,,0.00,VWS V14.01,2013-01-12 20:54:00,
2013-01-12 14:55:00,26.0,17.2,30.08,WNW,292,9.8,10.5,69,0.00,,,0.00,VWS V14.01,2013-01-12 20:55:00,
2013-01-12 14:56:00,26.0,17.2,30.08,WNW,292,9.8,9.8,69,0.00,,,0.00,VWS V14.01,2013-01-12 20:56:00,
2013-01-12 14:57:00,26.0,17.2,30.08,WNW,292,9.8,9.8,69,0.00,,,0.00,VWS V14.01,2013-01-12 20:57:00,
2013-01-12 14:58:00,26.0,17.6,30.08,WNW,292,14.7,14.7,70,0.00,,,0.00,VWS V14.01,2013-01-12 20:58:00,
2013-01-12 14:59:00,25.7,17.3,30.08,WNW,292,13.6,14.7,70,0.00,,,0.00,VWS V14.01,2013-01-12 20:59:00,
2013-01-12 15:00:00,25.7,17.3,30.08,WNW,292,13.6,13.6,70,0.00,,,0.00,VWS V14.01,2013-01-12 21:00:00,
2013-01-12 15:01:00,25.7,17.3,30.08,WNW,292,8.0,13.6,70,0.00,,,0.00,VWS V14.01,2013-01-12 21:01:00,
2013-01-12 15:02:00,25.7,17.3,30.08,WNW,292,8.0,8.0,70,0.00,,,0.00,VWS V14.01,2013-01-12 21:02:00,
2013-01-12 15:03:00,25.7,17.3,30.08,WNW,292,8.0,8.0,70,0.00,,,0.00,VWS V14.01,2013-01-12 21:03:00,
2013-01-12 15:04:00,25.7,17.3,30.08,West,270,6.0,8.0,70,0.00,,,0.00,VWS V14.01,2013-01-12 21:04:00,
2013-01-12 15:05:00,25.7,17.3,30.09,West,270,6.0,6.0,70,0.00,,,0.00,VWS V14.01,2013-01-12 21:05:00,
2013-01-12 15:06:00,25.5,17.1,30.09,WNW,292,12.0,12.0,70,0.00,,,0.00,VWS V14.01,2013-01-12 21:06:00,
2013-01-12 15:07:00,25.5,17.1,30.09,WNW,292,12.0,12.0,70,0.00,,,0.00,VWS V14.01,2013-01-12 21:07:00,
2013-01-12 15:08:00,25.7,17.0,30.09,WNW,292,11.6,12.0,69,0.00,,,0.00,VWS V14.01,2013-01-12 21:08:00,
2013-01-12 15:09:00,25.7,17.0,30.09,WNW,292,11.6,11.6,69,0.00,,,0.00,VWS V14.01,2013-01-12 21:09:00,
2013-01-12 15:10:00,25.5,17.1,30.09,NW,315,8.9,11.6,70,0.00,,,0.00,VWS V14.01,2013-01-12 21:10:00,
2013-01-12 15:11:00,25.5,17.1,30.09,NW,315,8.9,8.9,70,0.00,,,0.00,VWS V14.01,2013-01-12 21:11:00,
2013-01-12 15:12:00,25.5,17.1,30.09,NW,315,8.9,8.9,70,0.00,,,0.00,VWS V14.01,2013-01-12 21:12:00,
2013-01-12 15:13:00,25.5,17.4,30.09,WNW,292,8.9,8.9,71,0.00,,,0.00,VWS V14.01,2013-01-12 21:13:00,
2013-01-12 15:14:00,25.5,17.1,30.09,WNW,292,11.6,11.6,70,0.00,,,0.00,VWS V14.01,2013-01-12 21:14:00,
2013-01-12 15:15:00,25.5,17.1,30.09,WNW,292,11.6,11.6,70,0.00,,,0.00,VWS V14.01,2013-01-12 21:15:00,
2013-01-12 15:16:00,25.5,17.1,30.09,WNW,292,6.9,11.6,70,0.00,,,0.00,VWS V14.01,2013-01-12 21:16:00,
2013-01-12 15:17:00,25.5,17.1,30.09,WNW,292,6.9,6.9,70,0.00,,,0.00,VWS V14.01,2013-01-12 21:17:00,
2013-01-12 15:18:00,25.5,17.4,30.09,WNW,292,6.9,6.9,71,0.00,,,0.00,VWS V14.01,2013-01-12 21:18:00,
2013-01-12 15:19:00,25.5,17.1,30.09,WNW,292,14.0,14.0,70,0.00,,,0.00,VWS V14.01,2013-01-12 21:19:00,
2013-01-12 15:20:00,25.5,17.1,30.09,WNW,292,14.0,14.0,70,0.00,,,0.00,VWS V14.01,2013-01-12 21:20:00,
2013-01-12 15:21:00,25.5,17.4,30.09,West,270,16.1,16.1,71,0.00,,,0.00,VWS V14.01,2013-01-12 21:21:00,
2013-01-12 15:22:00,25.5,17.4,30.09,West,270,16.1,16.1,71,0.00,,,0.00,VWS V14.01,2013-01-12 21:22:00,
2013-01-12 15:23:00,25.5,17.4,30.09,WNW,292,9.8,16.1,71,0.00,,,0.00,VWS V14.01,2013-01-12 21:23:00,
2013-01-12 15:24:00,25.5,17.4,30.09,WNW,292,9.8,9.8,71,0.00,,,0.00,VWS V14.01,2013-01-12 21:24:00,
2013-01-12 15:25:00,25.3,16.9,30.09,West,270,10.5,10.5,70,0.00,,,0.00,VWS V14.01,2013-01-12 21:25:00,
2013-01-12 15:26:00,25.3,16.9,30.09,West,270,10.5,10.5,70,0.00,,,0.00,VWS V14.01,2013-01-12 21:26:00,
2013-01-12 15:27:00,25.3,16.9,30.09,West,270,10.5,10.5,70,0.00,,,0.00,VWS V14.01,2013-01-12 21:27:00,
2013-01-12 15:28:00,25.1,17.0,30.10,NW,315,12.9,12.9,71,0.00,,,0.00,VWS V14.01,2013-01-12 21:28:00,
2013-01-12 15:29:00,25.1,17.0,30.09,WNW,292,10.9,12.9,71,0.00,,,0.00,VWS V14.01,2013-01-12 21:29:00,
2013-01-12 15:30:00,25.1,17.0,30.09,WNW,292,10.9,10.9,71,0.00,,,0.00,VWS V14.01,2013-01-12 21:30:00,
2013-01-12 15:31:00,25.1,17.0,30.10,NW,315,10.2,10.9,71,0.00,,,0.00,VWS V14.01,2013-01-12 21:31:00,
2013-01-12 15:32:00,25.1,17.0,30.10,NW,315,10.2,10.2,71,0.00,,,0.00,VWS V14.01,2013-01-12 21:32:00,
2013-01-12 15:33:00,25.1,17.0,30.10,WNW,292,4.4,10.2,71,0.00,,,0.00,VWS V14.01,2013-01-12 21:33:00,
2013-01-12 15:34:00,25.1,17.4,30.10,WNW,292,4.4,4.4,72,0.00,,,0.00,VWS V14.01,2013-01-12 21:34:00,
2013-01-12 15:35:00,25.1,17.4,30.09,WNW,292,4.4,4.4,72,0.00,,,0.00,VWS V14.01,2013-01-12 21:35:00,
2013-01-12 15:36:00,25.1,17.4,30.09,West,270,11.4,11.4,72,0.00,,,0.00,VWS V14.01,2013-01-12 21:36:00,
2013-01-12 15:37:00,25.1,17.4,30.09,West,270,11.4,11.4,72,0.00,,,0.00,VWS V14.01,2013-01-12 21:37:00,
2013-01-12 15:38:00,25.1,16.7,30.09,WNW,292,7.6,11.4,70,0.00,,,0.00,VWS V14.01,2013-01-12 21:38:00,
2013-01-12 15:39:00,25.1,16.7,30.10,WNW,292,7.6,7.6,70,0.00,,,0.00,VWS V14.01,2013-01-12 21:39:00,
2013-01-12 15:40:00,24.9,17.2,30.09,WNW,292,5.3,7.6,72,0.00,,,0.00,VWS V14.01,2013-01-12 21:40:00,
2013-01-12 15:41:00,24.9,17.2,30.09,WNW,292,5.3,5.3,72,0.00,,,0.00,VWS V14.01,2013-01-12 21:41:00,
2013-01-12 15:42:00,24.9,17.2,30.09,WNW,292,5.3,5.3,72,0.00,,,0.00,VWS V14.01,2013-01-12 21:42:00,
2013-01-12 15:43:00,25.1,17.4,30.10,WNW,292,6.7,6.7,72,0.00,,,0.00,VWS V14.01,2013-01-12 21:43:00,
2013-01-12 15:44:00,25.1,17.4,30.10,West,270,9.6,9.6,72,0.00,,,0.00,VWS V14.01,2013-01-12 21:44:00,
2013-01-12 15:45:00,25.1,17.4,30.10,West,270,9.6,9.6,72,0.00,,,0.00,VWS V14.01,2013-01-12 21:45:00,
2013-01-12 15:46:00,24.9,17.2,30.10,West,270,6.2,9.6,72,0.00,,,0.00,VWS V14.01,2013-01-12 21:46:00,
2013-01-12 15:47:00,24.9,17.2,30.10,West,270,6.2,6.2,72,0.00,,,0.00,VWS V14.01,2013-01-12 21:47:00,
2013-01-12 15:48:00,24.9,17.2,30.10,West,270,4.4,6.2,72,0.00,,,0.00,VWS V14.01,2013-01-12 21:48:00,
2013-01-12 15:49:00,25.1,17.4,30.10,West,270,4.4,4.4,72,0.00,,,0.00,VWS V14.01,2013-01-12 21:49:00,
2013-01-12 15:50:00,25.1,17.4,30.10,West,270,4.4,4.4,72,0.00,,,0.00,VWS V14.01,2013-01-12 21:50:00,
2013-01-12 15:51:00,24.9,17.2,30.10,WNW,292,7.3,7.3,72,0.00,,,0.00,VWS V14.01,2013-01-12 21:51:00,
2013-01-12 15:52:00,24.9,17.2,30.10,WNW,292,7.3,7.3,72,0.00,,,0.00,VWS V14.01,2013-01-12 21:52:00,
2013-01-12 15:53:00,24.9,17.5,30.10,West,270,4.2,7.3,73,0.00,,,0.00,VWS V14.01,2013-01-12 21:53:00,
2013-01-12 15:54:00,24.9,17.5,30.09,West,270,4.2,4.2,73,0.00,,,0.00,VWS V14.01,2013-01-12 21:54:00,
2013-01-12 15:55:00,24.9,17.2,30.09,WNW,292,6.9,6.9,72,0.00,,,0.00,VWS V14.01,2013-01-12 21:55:00,
2013-01-12 15:56:00,24.9,17.2,30.09,WNW,292,6.9,6.9,72,0.00,,,0.00,VWS V14.01,2013-01-12 21:56:00,
2013-01-12 15:57:00,24.9,17.2,30.09,WNW,292,6.9,6.9,72,0.00,,,0.00,VWS V14.01,2013-01-12 21:57:00,
2013-01-12 15:58:00,25.1,17.4,30.09,WNW,292,10.2,10.2,72,0.00,,,0.00,VWS V14.01,2013-01-12 21:58:00,
2013-01-12 15:59:00,24.9,17.2,30.08,West,270,10.0,10.2,72,0.00,,,0.00,VWS V14.01,2013-01-12 21:59:00,
2013-01-12 16:00:00,24.9,17.2,30.08,West,270,10.0,10.0,72,0.00,,,0.00,VWS V14.01,2013-01-12 22:00:00,
2013-01-12 16:01:00,24.9,17.2,30.08,WNW,292,8.5,10.0,72,0.00,,,0.00,VWS V14.01,2013-01-12 22:01:00,
2013-01-12 16:02:00,24.9,17.2,30.08,WNW,292,8.5,8.5,72,0.00,,,0.00,VWS V14.01,2013-01-12 22:02:00,
2013-01-12 16:03:00,24.9,17.2,30.08,WNW,292,7.1,8.5,72,0.00,,,0.00,VWS V14.01,2013-01-12 22:03:00,
2013-01-12 16:04:00,24.9,17.2,30.08,WNW,292,7.1,7.1,72,0.00,,,0.00,VWS V14.01,2013-01-12 22:04:00,
2013-01-12 16:05:00,24.9,17.2,30.09,WNW,292,7.1,7.1,72,0.00,,,0.00,VWS V14.01,2013-01-12 22:05:00,
2013-01-12 16:06:00,24.9,17.2,30.09,West,270,6.0,7.1,72,0.00,,,0.00,VWS V14.01,2013-01-12 22:06:00,
2013-01-12 16:07:00,24.9,17.2,30.09,West,270,6.0,6.0,72,0.00,,,0.00,VWS V14.01,2013-01-12 22:07:00,
2013-01-12 16:08:00,24.9,17.2,30.08,WNW,292,9.3,9.3,72,0.00,,,0.00,VWS V14.01,2013-01-12 22:08:00,
2013-01-12 16:09:00,24.9,17.2,30.08,WNW,292,9.3,9.3,72,0.00,,,0.00,VWS V14.01,2013-01-12 22:09:00,
2013-01-12 16:10:00,24.9,17.2,30.08,WNW,292,9.6,9.6,72,0.00,,,0.00,VWS V14.01,2013-01-12 22:10:00,
2013-01-12 16:11:00,24.9,17.2,30.08,WNW,292,9.6,9.6,72,0.00,,,0.00,VWS V14.01,2013-01-12 22:11:00,
2013-01-12 16:12:00,24.9,17.2,30.08,WNW,292,9.6,9.6,72,0.00,,,0.00,VWS V14.01,2013-01-12 22:12:00,
2013-01-12 16:13:00,24.9,17.2,30.08,WNW,292,12.7,12.7,72,0.00,,,0.00,VWS V14.01,2013-01-12 22:13:00,
2013-01-12 16:14:00,24.9,17.2,30.08,WNW,292,14.0,14.0,72,0.00,,,0.00,VWS V14.01,2013-01-12 22:14:00,
2013-01-12 16:15:00,24.9,17.2,30.08,WNW,292,14.0,14.0,72,0.00,,,0.00,VWS V14.01,2013-01-12 22:15:00,
2013-01-12 16:16:00,24.9,16.8,30.09,WNW,292,8.9,14.0,71,0.00,,,0.00,VWS V14.01,2013-01-12 22:16:00,
2013-01-12 16:17:00,24.9,16.8,30.09,WNW,292,8.9,8.9,71,0.00,,,0.00,VWS V14.01,2013-01-12 22:17:00,
2013-01-12 16:18:00,24.9,16.8,30.08,WNW,292,10.7,10.7,71,0.00,,,0.00,VWS V14.01,2013-01-12 22:18:00,
2013-01-12 16:19:00,24.9,17.2,30.08,WNW,292,10.7,10.7,72,0.00,,,0.00,VWS V14.01,2013-01-12 22:19:00,
2013-01-12 16:20:00,24.9,17.2,30.08,WNW,292,10.7,10.7,72,0.00,,,0.00,VWS V14.01,2013-01-12 22:20:00,
2013-01-12 16:21:00,24.9,17.2,30.08,WNW,292,9.3,10.7,72,0.00,,,0.00,VWS V14.01,2013-01-12 22:21:00,
2013-01-12 16:22:00,24.9,17.2,30.08,WNW,292,9.3,9.3,72,0.00,,,0.00,VWS V14.01,2013-01-12 22:22:00,
2013-01-12 16:23:00,24.9,17.2,30.08,WNW,292,3.8,9.3,72,0.00,,,0.00,VWS V14.01,2013-01-12 22:23:00,
2013-01-12 16:24:00,24.9,17.2,30.08,WNW,292,3.8,3.8,72,0.00,,,0.00,VWS V14.01,2013-01-12 22:24:00,
2013-01-12 16:25:00,24.9,17.5,30.08,West,270,12.0,12.0,73,0.00,,,0.00,VWS V14.01,2013-01-12 22:25:00,
2013-01-12 16:26:00,24.9,17.5,30.08,West,270,12.0,12.0,73,0.00,,,0.00,VWS V14.01,2013-01-12 22:26:00,
2013-01-12 16:27:00,24.9,17.5,30.08,West,270,12.0,12.0,73,0.00,,,0.00,VWS V14.01,2013-01-12 22:27:00,
2013-01-12 16:28:00,25.1,17.4,30.08,WNW,292,8.7,8.7,72,0.00,,,0.00,VWS V14.01,2013-01-12 22:28:00,
2013-01-12 16:29:00,24.9,17.2,30.07,West,270,9.1,9.1,72,0.00,,,0.00,VWS V14.01,2013-01-12 22:29:00,
2013-01-12 16:30:00,24.9,17.2,30.07,West,270,9.1,9.1,72,0.00,,,0.00,VWS V14.01,2013-01-12 22:30:00,
2013-01-12 16:31:00,24.9,17.2,30.07,WNW,292,5.1,9.1,72,0.00,,,0.00,VWS V14.01,2013-01-12 22:31:00,
2013-01-12 16:32:00,24.9,17.2,30.07,WNW,292,5.1,5.1,72,0.00,,,0.00,VWS V14.01,2013-01-12 22:32:00,
2013-01-12 16:33:00,24.9,17.2,30.06,NW,315,9.1,9.1,72,0.00,,,0.00,VWS V14.01,2013-01-12 22:33:00,
2013-01-12 16:34:00,24.9,17.2,30.06,NW,315,9.1,9.1,72,0.00,,,0.00,VWS V14.01,2013-01-12 22:34:00,
2013-01-12 16:35:00,24.9,17.2,30.06,NW,315,9.1,9.1,72,0.00,,,0.00,VWS V14.01,2013-01-12 22:35:00,
2013-01-12 16:36:00,24.9,17.2,30.06,WNW,292,8.7,8.7,72,0.00,,,0.00,VWS V14.01,2013-01-12 22:36:00,
2013-01-12 16:37:00,24.9,17.2,30.06,WNW,292,8.7,8.7,72,0.00,,,0.00,VWS V14.01,2013-01-12 22:37:00,
2013-01-12 16:38:00,24.8,17.1,30.06,WNW,292,1.7,8.7,72,0.00,,,0.00,VWS V14.01,2013-01-12 22:38:00,
2013-01-12 16:39:00,24.8,17.1,30.05,WNW,292,1.7,1.7,72,0.00,,,0.00,VWS V14.01,2013-01-12 22:39:00,
2013-01-12 16:40:00,24.9,17.2,30.05,WNW,292,8.2,8.2,72,0.00,,,0.00,VWS V14.01,2013-01-12 22:40:00,
2013-01-12 16:41:00,24.9,17.2,30.05,WNW,292,8.2,8.2,72,0.00,,,0.00,VWS V14.01,2013-01-12 22:41:00,
2013-01-12 16:42:00,24.9,17.2,30.05,WNW,292,8.2,8.2,72,0.00,,,0.00,VWS V14.01,2013-01-12 22:42:00,
2013-01-12 16:43:00,24.9,17.2,30.05,WNW,292,11.4,11.4,72,0.00,,,0.00,VWS V14.01,2013-01-12 22:43:00,
2013-01-12 16:44:00,24.9,17.2,30.05,WNW,292,10.9,11.4,72,0.00,,,0.00,VWS V14.01,2013-01-12 22:44:00,
2013-01-12 16:45:00,24.9,17.2,30.05,WNW,292,10.9,10.9,72,0.00,,,0.00,VWS V14.01,2013-01-12 22:45:00,
2013-01-12 16:46:00,24.9,17.2,30.05,WNW,292,7.3,10.9,72,0.00,,,0.00,VWS V14.01,2013-01-12 22:46:00,
2013-01-12 16:47:00,24.9,17.2,30.05,WNW,292,7.3,7.3,72,0.00,,,0.00,VWS V14.01,2013-01-12 22:47:00,
2013-01-12 16:48:00,24.9,17.2,30.05,WNW,292,6.4,7.3,72,0.00,,,0.00,VWS V14.01,2013-01-12 22:48:00,
2013-01-12 16:49:00,24.9,17.2,30.05,WNW,292,6.4,6.4,72,0.00,,,0.00,VWS V14.01,2013-01-12 22:49:00,
2013-01-12 16:50:00,24.9,17.2,30.04,WNW,292,6.4,6.4,72,0.00,,,0.00,VWS V14.01,2013-01-12 22:50:00,
2013-01-12 16:51:00,24.8,17.1,30.04,WNW,292,9.8,9.8,72,0.00,,,0.00,VWS V14.01,2013-01-12 22:51:00,
2013-01-12 16:52:00,24.8,17.1,30.04,WNW,292,9.8,9.8,72,0.00,,,0.00,VWS V14.01,2013-01-12 22:52:00,
2013-01-12 16:53:00,24.8,17.1,30.04,NW,315,5.8,9.8,72,0.00,,,0.00,VWS V14.01,2013-01-12 22:53:00,
2013-01-12 16:54:00,24.8,17.1,30.04,NW,315,5.8,5.8,72,0.00,,,0.00,VWS V14.01,2013-01-12 22:54:00,
2013-01-12 16:55:00,24.6,16.9,30.04,WNW,292,9.3,9.3,72,0.00,,,0.00,VWS V14.01,2013-01-12 22:55:00,
2013-01-12 16:56:00,24.6,16.9,30.04,WNW,292,9.3,9.3,72,0.00,,,0.00,VWS V14.01,2013-01-12 22:56:00,
2013-01-12 16:57:00,24.6,16.9,30.04,WNW,292,9.3,9.3,72,0.00,,,0.00,VWS V14.01,2013-01-12 22:57:00,
2013-01-12 16:58:00,24.8,17.1,30.05,WNW,292,6.0,6.0,72,0.00,,,0.00,VWS V14.01,2013-01-12 22:58:00,
2013-01-12 16:59:00,24.6,16.9,30.05,WNW,292,4.6,6.0,72,0.00,,,0.00,VWS V14.01,2013-01-12 22:59:00,
2013-01-12 17:00:00,24.6,16.9,30.05,WNW,292,4.6,4.6,72,0.00,,,0.00,VWS V14.01,2013-01-12 23:00:00,
2013-01-12 17:01:00,24.8,17.4,30.05,West,270,5.3,5.3,73,0.00,,,0.00,VWS V14.01,2013-01-12 23:01:00,
2013-01-12 17:02:00,24.8,17.4,30.05,West,270,5.3,5.3,73,0.00,,,0.00,VWS V14.01,2013-01-12 23:02:00,
2013-01-12 17:03:00,24.9,17.5,30.05,NW,315,7.1,7.1,73,0.00,,,0.00,VWS V14.01,2013-01-12 23:03:00,
2013-01-12 17:04:00,24.9,17.5,30.05,NW,315,7.1,7.1,73,0.00,,,0.00,VWS V14.01,2013-01-12 23:04:00,
2013-01-12 17:05:00,24.9,17.5,30.05,NW,315,7.1,7.1,73,0.00,,,0.00,VWS V14.01,2013-01-12 23:05:00,
2013-01-12 17:06:00,24.9,17.5,30.05,North,0,4.0,7.1,73,0.00,,,0.00,VWS V14.01,2013-01-12 23:06:00,
2013-01-12 17:07:00,24.9,17.5,30.05,North,0,4.0,4.0,73,0.00,,,0.00,VWS V14.01,2013-01-12 23:07:00,
2013-01-12 17:08:00,24.9,17.5,30.05,NW,315,0.0,4.0,73,0.00,,,0.00,VWS V14.01,2013-01-12 23:08:00,
2013-01-12 17:09:00,24.9,17.5,30.05,NW,315,0.0,0.0,73,0.00,,,0.00,VWS V14.01,2013-01-12 23:09:00,
2013-01-12 17:10:00,24.9,17.8,30.05,NW,315,7.8,7.8,74,0.00,,,0.00,VWS V14.01,2013-01-12 23:10:00,
2013-01-12 17:11:00,24.9,17.8,30.05,NW,315,7.8,7.8,74,0.00,,,0.00,VWS V14.01,2013-01-12 23:11:00,
2013-01-12 17:12:00,24.9,17.8,30.05,NW,315,7.8,7.8,74,0.00,,,0.00,VWS V14.01,2013-01-12 23:12:00,
2013-01-12 17:13:00,24.9,17.5,30.04,North,0,6.7,6.7,73,0.00,,,0.00,VWS V14.01,2013-01-12 23:13:00,
2013-01-12 17:14:00,24.9,17.2,30.04,NW,315,8.2,8.2,72,0.00,,,0.00,VWS V14.01,2013-01-12 23:14:00,
2013-01-12 17:15:00,24.9,17.2,30.04,NW,315,8.2,8.2,72,0.00,,,0.00,VWS V14.01,2013-01-12 23:15:00,
2013-01-12 17:16:00,24.9,17.2,30.04,WNW,292,4.4,8.2,72,0.00,,,0.00,VWS V14.01,2013-01-12 23:16:00,
2013-01-12 17:17:00,24.9,17.2,30.04,WNW,292,4.4,4.4,72,0.00,,,0.00,VWS V14.01,2013-01-12 23:17:00,
2013-01-12 17:18:00,24.6,16.9,30.04,NNW,338,6.9,6.9,72,0.00,,,0.00,VWS V14.01,2013-01-12 23:18:00,
2013-01-12 17:19:00,24.6,16.9,30.04,NNW,338,6.9,6.9,72,0.00,,,0.00,VWS V14.01,2013-01-12 23:19:00,
2013-01-12 17:20:00,24.6,16.9,30.04,NNW,338,6.9,6.9,72,0.00,,,0.00,VWS V14.01,2013-01-12 23:20:00,
2013-01-12 17:21:00,24.6,16.9,30.05,NW,315,1.3,6.9,72,0.00,,,0.00,VWS V14.01,2013-01-12 23:21:00,
2013-01-12 17:22:00,24.6,16.9,30.05,NW,315,1.3,1.3,72,0.00,,,0.00,VWS V14.01,2013-01-12 23:22:00,
2013-01-12 17:23:00,24.6,16.9,30.05,NW,315,5.5,5.5,72,0.00,,,0.00,VWS V14.01,2013-01-12 23:23:00,
2013-01-12 17:24:00,24.6,16.9,30.05,NW,315,5.5,5.5,72,0.00,,,0.00,VWS V14.01,2013-01-12 23:24:00,
2013-01-12 17:25:00,24.6,16.9,30.06,WNW,292,6.9,6.9,72,0.00,,,0.00,VWS V14.01,2013-01-12 23:25:00,
2013-01-12 17:26:00,24.6,16.9,30.06,WNW,292,6.9,6.9,72,0.00,,,0.00,VWS V14.01,2013-01-12 23:26:00,
2013-01-12 17:27:00,24.6,16.9,30.06,WNW,292,6.9,6.9,72,0.00,,,0.00,VWS V14.01,2013-01-12 23:27:00,
2013-01-12 17:28:00,24.6,16.9,30.05,WNW,292,5.1,5.1,72,0.00,,,0.00,VWS V14.01,2013-01-12 23:28:00,
2013-01-12 17:29:00,24.6,16.9,30.05,NW,315,8.0,8.0,72,0.00,,,0.00,VWS V14.01,2013-01-12 23:29:00,
2013-01-12 17:30:00,24.6,16.9,30.04,NW,315,8.0,8.0,72,0.00,,,0.00,VWS V14.01,2013-01-12 23:30:00,
2013-01-12 17:31:00,24.6,16.9,30.05,WNW,292,6.7,8.0,72,0.00,,,0.00,VWS V14.01,2013-01-12 23:31:00,
2013-01-12 17:32:00,24.6,16.9,30.05,WNW,292,6.7,6.7,72,0.00,,,0.00,VWS V14.01,2013-01-12 23:32:00,
2013-01-12 17:33:00,24.6,16.9,30.05,WNW,292,7.3,7.3,72,0.00,,,0.00,VWS V14.01,2013-01-12 23:33:00,
2013-01-12 17:34:00,24.6,16.9,30.05,WNW,292,7.3,7.3,72,0.00,,,0.00,VWS V14.01,2013-01-12 23:34:00,
2013-01-12 17:35:00,24.6,16.9,30.05,WNW,292,7.3,7.3,72,0.00,,,0.00,VWS V14.01,2013-01-12 23:35:00,
2013-01-12 17:36:00,24.6,16.9,30.05,WNW,292,6.0,7.3,72,0.00,,,0.00,VWS V14.01,2013-01-12 23:36:00,
2013-01-12 17:37:00,24.6,16.9,30.05,WNW,292,6.0,6.0,72,0.00,,,0.00,VWS V14.01,2013-01-12 23:37:00,
2013-01-12 17:38:00,24.6,16.9,30.06,WNW,292,1.5,6.0,72,0.00,,,0.00,VWS V14.01,2013-01-12 23:38:00,
2013-01-12 17:39:00,24.6,16.9,30.07,WNW,292,1.5,1.5,72,0.00,,,0.00,VWS V14.01,2013-01-12 23:39:00,
2013-01-12 17:40:00,24.6,17.2,30.07,WNW,292,7.6,7.6,73,0.00,,,0.00,VWS V14.01,2013-01-12 23:40:00,
2013-01-12 17:41:00,24.6,17.2,30.07,WNW,292,7.6,7.6,73,0.00,,,0.00,VWS V14.01,2013-01-12 23:41:00,
2013-01-12 17:42:00,24.6,17.2,30.07,WNW,292,7.6,7.6,73,0.00,,,0.00,VWS V14.01,2013-01-12 23:42:00,
2013-01-12 17:43:00,24.6,16.9,30.06,West,270,9.3,9.3,72,0.00,,,0.00,VWS V14.01,2013-01-12 23:43:00,
2013-01-12 17:44:00,24.6,16.9,30.06,WNW,292,5.5,9.3,72,0.00,,,0.00,VWS V14.01,2013-01-12 23:44:00,
2013-01-12 17:45:00,24.6,16.9,30.06,WNW,292,5.5,5.5,72,0.00,,,0.00,VWS V14.01,2013-01-12 23:45:00,
2013-01-12 17:46:00,24.6,16.9,30.06,WNW,292,5.3,5.5,72,0.00,,,0.00,VWS V14.01,2013-01-12 23:46:00,
2013-01-12 17:47:00,24.6,16.9,30.06,WNW,292,5.3,5.3,72,0.00,,,0.00,VWS V14.01,2013-01-12 23:47:00,
2013-01-12 17:48:00,24.6,16.9,30.06,NNW,338,2.4,5.3,72,0.00,,,0.00,VWS V14.01,2013-01-12 23:48:00,
2013-01-12 17:49:00,24.6,16.9,30.06,NNW,338,2.4,2.4,72,0.00,,,0.00,VWS V14.01,2013-01-12 23:49:00,
2013-01-12 17:50:00,24.6,16.9,30.06,NNW,338,2.4,2.4,72,0.00,,,0.00,VWS V14.01,2013-01-12 23:50:00,
2013-01-12 17:51:00,24.6,16.9,30.06,WNW,292,2.2,2.4,72,0.00,,,0.00,VWS V14.01,2013-01-12 23:51:00,
2013-01-12 17:52:00,24.6,16.9,30.06,WNW,292,2.2,2.2,72,0.00,,,0.00,VWS V14.01,2013-01-12 23:52:00,
2013-01-12 17:53:00,24.6,16.9,30.06,WNW,292,11.6,11.6,72,0.00,,,0.00,VWS V14.01,2013-01-12 23:53:00,
2013-01-12 17:54:00,24.6,16.9,30.06,WNW,292,11.6,11.6,72,0.00,,,0.00,VWS V14.01,2013-01-12 23:54:00,
2013-01-12 17:55:00,24.6,16.9,30.06,WNW,292,7.1,11.6,72,0.00,,,0.00,VWS V14.01,2013-01-12 23:55:00,
2013-01-12 17:56:00,24.6,16.9,30.06,WNW,292,7.1,7.1,72,0.00,,,0.00,VWS V14.01,2013-01-12 23:56:00,
2013-01-12 17:57:00,24.6,16.9,30.06,WNW,292,7.1,7.1,72,0.00,,,0.00,VWS V14.01,2013-01-12 23:57:00,
2013-01-12 17:58:00,24.6,16.9,30.06,WNW,292,6.9,6.9,72,0.00,,,0.00,VWS V14.01,2013-01-12 23:58:00,
2013-01-12 17:59:00,24.6,17.2,30.06,NW,315,3.3,6.9,73,0.00,,,0.00,VWS V14.01,2013-01-12 23:59:00,
2013-01-12 18:00:00,24.6,17.2,30.06,NW,315,3.3,3.3,73,0.00,,,0.00,VWS V14.01,2013-01-13 00:00:00,
2013-01-12 18:01:00,24.6,17.2,30.06,NNW,338,4.0,4.0,73,0.00,,,0.00,VWS V14.01,2013-01-13 00:01:00,
2013-01-12 18:02:00,24.6,17.2,30.06,NNW,338,4.0,4.0,73,0.00,,,0.00,VWS V14.01,2013-01-13 00:02:00,
2013-01-12 18:03:00,24.6,17.2,30.06,WNW,292,5.8,5.8,73,0.00,,,0.00,VWS V14.01,2013-01-13 00:03:00,
2013-01-12 18:04:00,24.6,16.9,30.07,WNW,292,5.8,5.8,72,0.00,,,0.00,VWS V14.01,2013-01-13 00:04:00,
2013-01-12 18:05:00,24.6,16.9,30.07,WNW,292,5.8,5.8,72,0.00,,,0.00,VWS V14.01,2013-01-13 00:05:00,
2013-01-12 18:06:00,24.6,17.2,30.07,WNW,292,5.3,5.8,73,0.00,,,0.00,VWS V14.01,2013-01-13 00:06:00,
2013-01-12 18:07:00,24.6,17.2,30.07,WNW,292,5.3,5.3,73,0.00,,,0.00,VWS V14.01,2013-01-13 00:07:00,
2013-01-12 18:08:00,24.6,17.2,30.06,NW,315,6.4,6.4,73,0.00,,,0.00,VWS V14.01,2013-01-13 00:08:00,
2013-01-12 18:09:00,24.6,17.2,30.06,NW,315,6.4,6.4,73,0.00,,,0.00,VWS V14.01,2013-01-13 00:09:00,
2013-01-12 18:10:00,24.6,17.2,30.06,WNW,292,7.3,7.3,73,0.00,,,0.00,VWS V14.01,2013-01-13 00:10:00,
2013-01-12 18:11:00,24.6,17.2,30.06,WNW,292,7.3,7.3,73,0.00,,,0.00,VWS V14.01,2013-01-13 00:11:00,
2013-01-12 18:12:00,24.6,17.2,30.06,WNW,292,7.3,7.3,73,0.00,,,0.00,VWS V14.01,2013-01-13 00:12:00,
2013-01-12 18:13:00,24.6,17.2,30.06,WNW,292,8.7,8.7,73,0.00,,,0.00,VWS V14.01,2013-01-13 00:13:00,
2013-01-12 18:14:00,24.6,17.2,30.06,WNW,292,4.4,8.7,73,0.00,,,0.00,VWS V14.01,2013-01-13 00:14:00,
2013-01-12 18:15:00,24.6,17.2,30.06,WNW,292,4.4,4.4,73,0.00,,,0.00,VWS V14.01,2013-01-13 00:15:00,
2013-01-12 18:16:00,24.6,17.2,30.06,NNW,338,6.9,6.9,73,0.00,,,0.00,VWS V14.01,2013-01-13 00:16:00,
2013-01-12 18:17:00,24.6,17.2,30.06,NNW,338,6.9,6.9,73,0.00,,,0.00,VWS V14.01,2013-01-13 00:17:00,
2013-01-12 18:18:00,24.6,17.2,30.06,NNW,338,6.9,6.9,73,0.00,,,0.00,VWS V14.01,2013-01-13 00:18:00,
2013-01-12 18:19:00,24.6,17.5,30.06,North,0,7.6,7.6,74,0.00,,,0.00,VWS V14.01,2013-01-13 00:19:00,
2013-01-12 18:20:00,24.6,17.5,30.06,North,0,7.6,7.6,74,0.00,,,0.00,VWS V14.01,2013-01-13 00:20:00,
2013-01-12 18:21:00,24.6,17.5,30.07,NW,315,5.5,7.6,74,0.00,,,0.00,VWS V14.01,2013-01-13 00:21:00,
2013-01-12 18:22:00,24.6,17.5,30.07,NW,315,5.5,5.5,74,0.00,,,0.00,VWS V14.01,2013-01-13 00:22:00,
2013-01-12 18:23:00,24.6,17.2,30.08,NW,315,6.2,6.2,73,0.00,,,0.00,VWS V14.01,2013-01-13 00:23:00,
2013-01-12 18:24:00,24.6,17.2,30.08,NW,315,6.2,6.2,73,0.00,,,0.00,VWS V14.01,2013-01-13 00:24:00,
2013-01-12 18:25:00,24.4,17.0,30.07,NW,315,1.1,6.2,73,0.00,,,0.00,VWS V14.01,2013-01-13 00:25:00,
2013-01-12 18:26:00,24.4,17.0,30.07,NW,315,1.1,1.1,73,0.00,,,0.00,VWS V14.01,2013-01-13 00:26:00,
2013-01-12 18:27:00,24.4,17.0,30.07,NW,315,1.1,1.1,73,0.00,,,0.00,VWS V14.01,2013-01-13 00:27:00,
2013-01-12 18:28:00,24.4,17.0,30.07,WNW,292,8.7,8.7,73,0.00,,,0.00,VWS V14.01,2013-01-13 00:28:00,
2013-01-12 18:29:00,24.4,16.7,30.06,NW,315,4.4,8.7,72,0.00,,,0.00,VWS V14.01,2013-01-13 00:29:00,
2013-01-12 18:30:00,24.4,16.7,30.06,NW,315,4.4,4.4,72,0.00,,,0.00,VWS V14.01,2013-01-13 00:30:00,
2013-01-12 18:31:00,24.2,16.5,30.06,NNW,338,8.9,8.9,72,0.00,,,0.00,VWS V14.01,2013-01-13 00:31:00,
2013-01-12 18:32:00,24.2,16.5,30.06,NNW,338,8.9,8.9,72,0.00,,,0.00,VWS V14.01,2013-01-13 00:32:00,
2013-01-12 18:33:00,24.0,16.6,30.06,WNW,292,7.6,8.9,73,0.00,,,0.00,VWS V14.01,2013-01-13 00:33:00,
2013-01-12 18:34:00,24.0,16.6,30.06,WNW,292,7.6,7.6,73,0.00,,,0.00,VWS V14.01,2013-01-13 00:34:00,
2013-01-12 18:35:00,24.0,16.6,30.06,WNW,292,7.6,7.6,73,0.00,,,0.00,VWS V14.01,2013-01-13 00:35:00,
2013-01-12 18:36:00,24.0,16.3,30.06,NW,315,4.9,7.6,72,0.00,,,0.00,VWS V14.01,2013-01-13 00:36:00,
2013-01-12 18:37:00,24.0,16.3,30.06,NW,315,4.9,4.9,72,0.00,,,0.00,VWS V14.01,2013-01-13 00:37:00,
2013-01-12 18:38:00,24.0,16.3,30.07,WNW,292,6.2,6.2,72,0.00,,,0.00,VWS V14.01,2013-01-13 00:38:00,
2013-01-12 18:39:00,24.0,16.3,30.07,WNW,292,6.2,6.2,72,0.00,,,0.00,VWS V14.01,2013-01-13 00:39:00,
2013-01-12 18:40:00,24.0,16.3,30.07,WNW,292,7.6,7.6,72,0.00,,,0.00,VWS V14.01,2013-01-13 00:40:00,
2013-01-12 18:41:00,24.0,16.3,30.07,WNW,292,7.6,7.6,72,0.00,,,0.00,VWS V14.01,2013-01-13 00:41:00,
2013-01-12 18:42:00,24.0,16.3,30.07,WNW,292,7.6,7.6,72,0.00,,,0.00,VWS V14.01,2013-01-13 00:42:00,
2013-01-12 18:43:00,24.0,16.3,30.08,WNW,292,7.8,7.8,72,0.00,,,0.00,VWS V14.01,2013-01-13 00:43:00,
2013-01-12 18:44:00,24.0,16.0,30.08,WNW,292,11.1,11.1,71,0.00,,,0.00,VWS V14.01,2013-01-13 00:44:00,
2013-01-12 18:45:00,24.0,16.0,30.09,WNW,292,11.1,11.1,71,0.00,,,0.00,VWS V14.01,2013-01-13 00:45:00,
2013-01-12 18:46:00,24.0,16.0,30.09,WNW,292,11.1,11.1,71,0.00,,,0.00,VWS V14.01,2013-01-13 00:46:00,
2013-01-12 18:47:00,24.0,16.0,30.09,WNW,292,11.1,11.1,71,0.00,,,0.00,VWS V14.01,2013-01-13 00:47:00,
2013-01-12 18:48:00,24.0,16.0,30.09,NNW,338,6.9,9.3,71,0.00,,,0.00,VWS V14.01,2013-01-13 00:48:00,
2013-01-12 18:49:00,23.9,15.9,30.09,NNW,338,6.9,6.9,71,0.00,,,0.00,VWS V14.01,2013-01-13 00:49:00,
2013-01-12 18:50:00,23.9,15.9,30.09,NNW,338,6.9,6.9,71,0.00,,,0.00,VWS V14.01,2013-01-13 00:50:00,
2013-01-12 18:51:00,23.9,15.9,30.09,WNW,292,7.6,7.6,71,0.00,,,0.00,VWS V14.01,2013-01-13 00:51:00,
2013-01-12 18:52:00,23.9,15.9,30.09,WNW,292,7.6,7.6,71,0.00,,,0.00,VWS V14.01,2013-01-13 00:52:00,
2013-01-12 18:53:00,23.9,15.9,30.09,West,270,7.6,7.6,71,0.00,,,0.00,VWS V14.01,2013-01-13 00:53:00,
2013-01-12 18:54:00,23.9,15.9,30.09,West,270,7.6,7.6,71,0.00,,,0.00,VWS V14.01,2013-01-13 00:54:00,
2013-01-12 18:55:00,23.9,15.9,30.09,WNW,292,7.6,7.6,71,0.00,,,0.00,VWS V14.01,2013-01-13 00:55:00,
2013-01-12 18:56:00,23.9,15.9,30.09,WNW,292,7.6,7.6,71,0.00,,,0.00,VWS V14.01,2013-01-13 00:56:00,
2013-01-12 18:57:00,23.9,15.9,30.09,WNW,292,7.6,7.6,71,0.00,,,0.00,VWS V14.01,2013-01-13 00:57:00,
2013-01-12 18:58:00,23.9,15.9,30.09,WNW,292,7.8,7.8,71,0.00,,,0.00,VWS V14.01,2013-01-13 00:58:00,
2013-01-12 18:59:00,23.9,15.9,30.09,WNW,292,6.9,7.8,71,0.00,,,0.00,VWS V14.01,2013-01-13 00:59:00,
2013-01-12 19:00:00,23.9,15.9,30.09,WNW,292,6.9,6.9,71,0.00,,,0.00,VWS V14.01,2013-01-13 01:00:00,
2013-01-12 19:01:00,23.9,15.9,30.09,WNW,292,4.9,6.9,71,0.00,,,0.00,VWS V14.01,2013-01-13 01:01:00,
2013-01-12 19:02:00,23.9,15.9,30.09,WNW,292,4.9,4.9,71,0.00,,,0.00,VWS V14.01,2013-01-13 01:02:00,
2013-01-12 19:03:00,23.9,15.9,30.10,WNW,292,9.8,9.8,71,0.00,,,0.00,VWS V14.01,2013-01-13 01:03:00,
2013-01-12 19:04:00,23.9,15.9,30.10,WNW,292,9.8,9.8,71,0.00,,,0.00,VWS V14.01,2013-01-13 01:04:00,
2013-01-12 19:05:00,23.9,15.9,30.10,WNW,292,9.8,9.8,71,0.00,,,0.00,VWS V14.01,2013-01-13 01:05:00,
2013-01-12 19:06:00,23.9,15.9,30.10,WNW,292,7.3,9.8,71,0.00,,,0.00,VWS V14.01,2013-01-13 01:06:00,
2013-01-12 19:07:00,23.9,15.9,30.10,WNW,292,7.3,7.3,71,0.00,,,0.00,VWS V14.01,2013-01-13 01:07:00,
2013-01-12 19:08:00,23.9,15.9,30.09,WNW,292,9.8,9.8,71,0.00,,,0.00,VWS V14.01,2013-01-13 01:08:00,
2013-01-12 19:09:00,23.9,15.9,30.10,WNW,292,9.8,9.8,71,0.00,,,0.00,VWS V14.01,2013-01-13 01:09:00,
2013-01-12 19:10:00,23.9,16.2,30.10,WNW,292,7.8,9.8,72,0.00,,,0.00,VWS V14.01,2013-01-13 01:10:00,
2013-01-12 19:11:00,23.9,16.2,30.10,WNW,292,7.8,7.8,72,0.00,,,0.00,VWS V14.01,2013-01-13 01:11:00,
2013-01-12 19:12:00,23.9,16.2,30.10,WNW,292,7.8,7.8,72,0.00,,,0.00,VWS V14.01,2013-01-13 01:12:00,
2013-01-12 19:13:00,23.9,15.9,30.10,WNW,292,7.6,7.6,71,0.00,,,0.00,VWS V14.01,2013-01-13 01:13:00,
2013-01-12 19:14:00,23.9,16.2,30.10,WNW,292,8.5,8.5,72,0.00,,,0.00,VWS V14.01,2013-01-13 01:14:00,
2013-01-12 19:15:00,23.9,16.2,30.10,WNW,292,8.5,8.5,72,0.00,,,0.00,VWS V14.01,2013-01-13 01:15:00,
2013-01-12 19:16:00,23.9,15.9,30.10,WNW,292,6.7,8.5,71,0.00,,,0.00,VWS V14.01,2013-01-13 01:16:00,
2013-01-12 19:17:00,23.9,15.9,30.10,WNW,292,6.7,6.7,71,0.00,,,0.00,VWS V14.01,2013-01-13 01:17:00,
2013-01-12 19:18:00,23.9,15.9,30.11,WNW,292,6.2,6.7,71,0.00,,,0.00,VWS V14.01,2013-01-13 01:18:00,
2013-01-12 19:19:00,23.9,15.9,30.11,WNW,292,6.2,6.2,71,0.00,,,0.00,VWS V14.01,2013-01-13 01:19:00,
2013-01-12 19:20:00,23.9,15.9,30.11,WNW,292,6.2,6.2,71,0.00,,,0.00,VWS V14.01,2013-01-13 01:20:00,
2013-01-12 19:21:00,23.9,15.9,30.11,West,270,5.3,6.2,71,0.00,,,0.00,VWS V14.01,2013-01-13 01:21:00,
2013-01-12 19:22:00,23.9,15.9,30.11,West,270,5.3,5.3,71,0.00,,,0.00,VWS V14.01,2013-01-13 01:22:00,
2013-01-12 19:23:00,23.9,15.9,30.11,WNW,292,2.2,5.3,71,0.00,,,0.00,VWS V14.01,2013-01-13 01:23:00,
2013-01-12 19:24:00,23.9,15.9,30.12,WNW,292,2.2,2.2,71,0.00,,,0.00,VWS V14.01,2013-01-13 01:24:00,
2013-01-12 19:25:00,23.9,16.2,30.12,West,270,4.9,4.9,72,0.00,,,0.00,VWS V14.01,2013-01-13 01:25:00,
2013-01-12 19:26:00,23.9,16.2,30.11,West,270,4.9,4.9,72,0.00,,,0.00,VWS V14.01,2013-01-13 01:26:00,
2013-01-12 19:27:00,23.9,16.2,30.11,West,270,4.9,4.9,72,0.00,,,0.00,VWS V14.01,2013-01-13 01:27:00,
2013-01-12 19:28:00,23.9,16.2,30.10,WNW,292,6.0,6.0,72,0.00,,,0.00,VWS V14.01,2013-01-13 01:28:00,
2013-01-12 19:29:00,23.9,16.2,30.10,WNW,292,12.0,12.0,72,0.00,,,0.00,VWS V14.01,2013-01-13 01:29:00,
2013-01-12 19:30:00,23.9,16.2,30.10,WNW,292,12.0,12.0,72,0.00,,,0.00,VWS V14.01,2013-01-13 01:30:00,
2013-01-12 19:31:00,23.9,16.5,30.10,WNW,292,7.6,12.0,73,0.00,,,0.00,VWS V14.01,2013-01-13 01:31:00,
2013-01-12 19:32:00,23.9,16.5,30.10,WNW,292,7.6,7.6,73,0.00,,,0.00,VWS V14.01,2013-01-13 01:32:00,
2013-01-12 19:33:00,23.9,16.5,30.09,WNW,292,5.5,7.6,73,0.00,,,0.00,VWS V14.01,2013-01-13 01:33:00,
2013-01-12 19:34:00,23.9,16.5,30.09,WNW,292,5.5,5.5,73,0.00,,,0.00,VWS V14.01,2013-01-13 01:34:00,
2013-01-12 19:35:00,23.9,16.5,30.09,WNW,292,2.6,5.5,73,0.00,,,0.00,VWS V14.01,2013-01-13 01:35:00,
2013-01-12 19:36:00,23.7,16.0,30.09,WNW,292,2.6,2.6,72,0.00,,,0.00,VWS V14.01,2013-01-13 01:36:00,
2013-01-12 19:37:00,23.7,16.0,30.09,WNW,292,2.6,2.6,72,0.00,,,0.00,VWS V14.01,2013-01-13 01:37:00,
2013-01-12 19:38:00,23.7,16.3,30.09,West,270,5.3,5.3,73,0.00,,,0.00,VWS V14.01,2013-01-13 01:38:00,
2013-01-12 19:39:00,23.7,16.3,30.10,West,270,5.3,5.3,73,0.00,,,0.00,VWS V14.01,2013-01-13 01:39:00,
2013-01-12 19:40:00,23.7,16.3,30.10,WNW,292,9.1,9.1,73,0.00,,,0.00,VWS V14.01,2013-01-13 01:40:00,
2013-01-12 19:41:00,23.7,16.3,30.10,WNW,292,9.1,9.1,73,0.00,,,0.00,VWS V14.01,2013-01-13 01:41:00,
2013-01-12 19:42:00,23.7,16.3,30.10,WNW,292,9.1,9.1,73,0.00,,,0.00,VWS V14.01,2013-01-13 01:42:00,
2013-01-12 19:43:00,23.7,16.3,30.10,West,270,5.3,5.3,73,0.00,,,0.00,VWS V14.01,2013-01-13 01:43:00,
2013-01-12 19:44:00,23.7,16.0,30.10,NW,315,12.3,12.3,72,0.00,,,0.00,VWS V14.01,2013-01-13 01:44:00,
2013-01-12 19:45:00,23.7,16.0,30.10,NW,315,12.3,12.3,72,0.00,,,0.00,VWS V14.01,2013-01-13 01:45:00,
2013-01-12 19:46:00,23.7,16.0,30.10,WNW,292,10.9,12.3,72,0.00,,,0.00,VWS V14.01,2013-01-13 01:46:00,
2013-01-12 19:47:00,23.7,16.0,30.10,WNW,292,10.9,10.9,72,0.00,,,0.00,VWS V14.01,2013-01-13 01:47:00,
2013-01-12 19:48:00,23.7,16.0,30.10,WNW,292,12.3,12.3,72,0.00,,,0.00,VWS V14.01,2013-01-13 01:48:00,
2013-01-12 19:49:00,23.7,16.3,30.10,WNW,292,12.3,12.3,73,0.00,,,0.00,VWS V14.01,2013-01-13 01:49:00,
2013-01-12 19:50:00,23.7,16.3,30.10,West,270,9.6,12.3,73,0.00,,,0.00,VWS V14.01,2013-01-13 01:50:00,
2013-01-12 19:51:00,23.5,16.5,30.10,West,270,9.6,9.6,74,0.00,,,0.00,VWS V14.01,2013-01-13 01:51:00,
2013-01-12 19:52:00,23.5,16.5,30.10,West,270,9.6,9.6,74,0.00,,,0.00,VWS V14.01,2013-01-13 01:52:00,
2013-01-12 19:53:00,23.5,16.8,30.11,WNW,292,6.0,9.6,75,0.00,,,0.00,VWS V14.01,2013-01-13 01:53:00,
2013-01-12 19:54:00,23.5,16.8,30.11,WNW,292,6.0,6.0,75,0.00,,,0.00,VWS V14.01,2013-01-13 01:54:00,
2013-01-12 19:55:00,23.5,17.1,30.11,WNW,292,7.8,7.8,76,0.00,,,0.00,VWS V14.01,2013-01-13 01:55:00,
2013-01-12 19:56:00,23.5,17.1,30.11,WNW,292,7.8,7.8,76,0.00,,,0.00,VWS V14.01,2013-01-13 01:56:00,
2013-01-12 19:57:00,23.5,17.1,30.11,WNW,292,7.8,7.8,76,0.00,,,0.00,VWS V14.01,2013-01-13 01:57:00,
2013-01-12 19:58:00,23.3,17.2,30.11,WNW,292,4.0,4.0,77,0.00,,,0.00,VWS V14.01,2013-01-13 01:58:00,
2013-01-12 19:59:00,23.1,17.3,30.11,West,270,6.9,6.9,78,0.00,,,0.00,VWS V14.01,2013-01-13 01:59:00,
2013-01-12 20:00:00,23.1,17.3,30.11,West,270,6.9,6.9,78,0.00,,,0.00,VWS V14.01,2013-01-13 02:00:00,
2013-01-12 20:01:00,23.0,17.5,30.11,WNW,292,7.8,7.8,79,0.00,,,0.00,VWS V14.01,2013-01-13 02:01:00,
2013-01-12 20:02:00,23.0,17.5,30.11,WNW,292,7.8,7.8,79,0.00,,,0.00,VWS V14.01,2013-01-13 02:02:00,
2013-01-12 20:03:00,23.0,17.8,30.10,WNW,292,5.1,7.8,80,0.00,,,0.00,VWS V14.01,2013-01-13 02:03:00,
2013-01-12 20:04:00,22.8,17.6,30.10,WNW,292,5.1,5.1,80,0.00,,,0.00,VWS V14.01,2013-01-13 02:04:00,
2013-01-12 20:05:00,22.8,17.6,30.10,West,270,6.2,6.2,80,0.00,,,0.00,VWS V14.01,2013-01-13 02:05:00,
2013-01-12 20:06:00,22.8,17.6,30.10,West,270,6.2,6.2,80,0.00,,,0.00,VWS V14.01,2013-01-13 02:06:00,
2013-01-12 20:07:00,22.8,17.6,30.10,West,270,6.2,6.2,80,0.00,,,0.00,VWS V14.01,2013-01-13 02:07:00,
2013-01-12 20:08:00,22.6,17.7,30.11,WNW,292,6.0,6.2,81,0.00,,,0.00,VWS V14.01,2013-01-13 02:08:00,
2013-01-12 20:09:00,22.6,17.7,30.11,WNW,292,6.0,6.0,81,0.00,,,0.00,VWS V14.01,2013-01-13 02:09:00,
2013-01-12 20:10:00,22.4,17.8,30.11,WNW,292,6.7,6.7,82,0.00,,,0.00,VWS V14.01,2013-01-13 02:10:00,
2013-01-12 20:11:00,22.4,17.8,30.11,WNW,292,6.7,6.7,82,0.00,,,0.00,VWS V14.01,2013-01-13 02:11:00,
2013-01-12 20:12:00,22.4,17.8,30.11,WNW,292,6.7,6.7,82,0.00,,,0.00,VWS V14.01,2013-01-13 02:12:00,
2013-01-12 20:13:00,22.4,17.8,30.11,WNW,292,8.9,8.9,82,0.00,,,0.00,VWS V14.01,2013-01-13 02:13:00,
2013-01-12 20:14:00,22.2,17.8,30.12,WNW,292,11.4,11.4,83,0.00,,,0.00,VWS V14.01,2013-01-13 02:14:00,
2013-01-12 20:15:00,22.2,17.8,30.12,WNW,292,11.4,11.4,83,0.00,,,0.00,VWS V14.01,2013-01-13 02:15:00,
2013-01-12 20:16:00,22.2,17.8,30.12,WNW,292,10.7,11.4,83,0.00,,,0.00,VWS V14.01,2013-01-13 02:16:00,
2013-01-12 20:17:00,22.2,17.8,30.12,WNW,292,10.7,10.7,83,0.00,,,0.00,VWS V14.01,2013-01-13 02:17:00,
2013-01-12 20:18:00,22.2,17.8,30.12,WNW,292,5.5,10.7,83,0.00,,,0.00,VWS V14.01,2013-01-13 02:18:00,
2013-01-12 20:19:00,22.1,18.0,30.12,WNW,292,5.5,5.5,84,0.00,,,0.00,VWS V14.01,2013-01-13 02:19:00,
2013-01-12 20:20:00,21.9,17.8,30.12,WNW,292,5.5,5.5,84,0.00,,,0.00,VWS V14.01,2013-01-13 02:20:00,
2013-01-12 20:21:00,21.9,17.8,30.12,WNW,292,4.2,5.5,84,0.00,,,0.00,VWS V14.01,2013-01-13 02:21:00,
2013-01-12 20:22:00,21.9,17.8,30.12,WNW,292,4.2,4.2,84,0.00,,,0.00,VWS V14.01,2013-01-13 02:22:00,
2013-01-12 20:23:00,21.9,17.8,30.12,WNW,292,7.3,7.3,84,0.00,,,0.00,VWS V14.01,2013-01-13 02:23:00,
2013-01-12 20:24:00,21.9,17.8,30.11,WNW,292,7.3,7.3,84,0.00,,,0.00,VWS V14.01,2013-01-13 02:24:00,
2013-01-12 20:25:00,21.9,18.1,30.10,WNW,292,7.6,7.6,85,0.00,,,0.00,VWS V14.01,2013-01-13 02:25:00,
2013-01-12 20:26:00,21.9,18.1,30.10,WNW,292,7.6,7.6,85,0.00,,,0.00,VWS V14.01,2013-01-13 02:26:00,
2013-01-12 20:27:00,21.9,18.1,30.10,WNW,292,7.6,7.6,85,0.00,,,0.00,VWS V14.01,2013-01-13 02:27:00,
2013-01-12 20:28:00,21.7,17.9,30.10,WNW,292,8.2,8.2,85,0.00,,,0.00,VWS V14.01,2013-01-13 02:28:00,
2013-01-12 20:29:00,21.7,17.9,30.10,WNW,292,2.6,8.2,85,0.00,,,0.00,VWS V14.01,2013-01-13 02:29:00,
2013-01-12 20:30:00,21.7,17.9,30.11,WNW,292,2.6,2.6,85,0.00,,,0.00,VWS V14.01,2013-01-13 02:30:00,
2013-01-12 20:31:00,21.7,17.9,30.10,WNW,292,3.5,3.5,85,0.00,,,0.00,VWS V14.01,2013-01-13 02:31:00,
2013-01-12 20:32:00,21.7,17.9,30.10,WNW,292,3.5,3.5,85,0.00,,,0.00,VWS V14.01,2013-01-13 02:32:00,
2013-01-12 20:33:00,21.7,18.2,30.10,WNW,292,3.5,3.5,86,0.00,,,0.00,VWS V14.01,2013-01-13 02:33:00,
2013-01-12 20:34:00,21.7,18.2,30.09,WNW,292,8.0,8.0,86,0.00,,,0.00,VWS V14.01,2013-01-13 02:34:00,
2013-01-12 20:35:00,21.7,18.2,30.08,WNW,292,8.0,8.0,86,0.00,,,0.00,VWS V14.01,2013-01-13 02:35:00,
2013-01-12 20:36:00,21.7,18.2,30.08,NW,315,6.2,8.0,86,0.00,,,0.00,VWS V14.01,2013-01-13 02:36:00,
2013-01-12 20:37:00,21.7,18.2,30.08,NW,315,6.2,6.2,86,0.00,,,0.00,VWS V14.01,2013-01-13 02:37:00,
2013-01-12 20:38:00,21.7,18.2,30.08,NW,315,7.6,7.6,86,0.00,,,0.00,VWS V14.01,2013-01-13 02:38:00,
2013-01-12 20:39:00,21.7,18.2,30.08,NW,315,7.6,7.6,86,0.00,,,0.00,VWS V14.01,2013-01-13 02:39:00,
2013-01-12 20:40:00,21.7,18.2,30.08,WNW,292,2.9,7.6,86,0.00,,,0.00,VWS V14.01,2013-01-13 02:40:00,
2013-01-12 20:41:00,21.7,18.2,30.08,WNW,292,2.9,2.9,86,0.00,,,0.00,VWS V14.01,2013-01-13 02:41:00,
2013-01-12 20:42:00,21.7,18.2,30.08,WNW,292,2.9,2.9,86,0.00,,,0.00,VWS V14.01,2013-01-13 02:42:00,
2013-01-12 20:43:00,21.5,18.0,30.08,NW,315,4.2,4.2,86,0.00,,,0.00,VWS V14.01,2013-01-13 02:43:00,
2013-01-12 20:44:00,21.5,18.0,30.08,WNW,292,6.7,6.7,86,0.00,,,0.00,VWS V14.01,2013-01-13 02:44:00,
2013-01-12 20:45:00,21.5,18.0,30.08,WNW,292,6.7,6.7,86,0.00,,,0.00,VWS V14.01,2013-01-13 02:45:00,
2013-01-12 20:46:00,21.5,18.0,30.08,NW,315,8.7,8.7,86,0.00,,,0.00,VWS V14.01,2013-01-13 02:46:00,
2013-01-12 20:47:00,21.5,18.0,30.08,NW,315,8.7,8.7,86,0.00,,,0.00,VWS V14.01,2013-01-13 02:47:00,
2013-01-12 20:48:00,21.5,18.0,30.08,NW,315,3.1,8.7,86,0.00,,,0.00,VWS V14.01,2013-01-13 02:48:00,
2013-01-12 20:49:00,21.3,17.8,30.08,NW,315,3.1,3.1,86,0.00,,,0.00,VWS V14.01,2013-01-13 02:49:00,
2013-01-12 20:50:00,21.3,17.8,30.08,NW,315,3.1,3.1,86,0.00,,,0.00,VWS V14.01,2013-01-13 02:50:00,
2013-01-12 20:51:00,21.3,17.8,30.08,WNW,292,6.9,6.9,86,0.00,,,0.00,VWS V14.01,2013-01-13 02:51:00,
2013-01-12 20:52:00,21.3,17.8,30.08,WNW,292,6.9,6.9,86,0.00,,,0.00,VWS V14.01,2013-01-13 02:52:00,
2013-01-12 20:53:00,21.3,17.8,30.08,NW,315,6.0,6.9,86,0.00,,,0.00,VWS V14.01,2013-01-13 02:53:00,
2013-01-12 20:54:00,21.3,17.8,30.07,NW,315,6.0,6.0,86,0.00,,,0.00,VWS V14.01,2013-01-13 02:54:00,
2013-01-12 20:55:00,21.3,17.8,30.07,WNW,292,1.7,6.0,86,0.00,,,0.00,VWS V14.01,2013-01-13 02:55:00,
2013-01-12 20:56:00,21.3,17.8,30.07,WNW,292,1.7,1.7,86,0.00,,,0.00,VWS V14.01,2013-01-13 02:56:00,
2013-01-12 20:57:00,21.3,17.8,30.07,WNW,292,1.7,1.7,86,0.00,,,0.00,VWS V14.01,2013-01-13 02:57:00,
2013-01-12 20:58:00,21.3,17.8,30.06,NW,315,6.9,6.9,86,0.00,,,0.00,VWS V14.01,2013-01-13 02:58:00,
2013-01-12 20:59:00,21.3,17.8,30.06,NNW,338,4.2,6.9,86,0.00,,,0.00,VWS V14.01,2013-01-13 02:59:00,
2013-01-12 21:00:00,21.3,17.8,30.05,NNW,338,4.2,4.2,86,0.00,,,0.00,VWS V14.01,2013-01-13 03:00:00,
2013-01-12 21:01:00,21.3,17.8,30.05,NNW,338,7.3,7.3,86,0.00,,,0.00,VWS V14.01,2013-01-13 03:01:00,
2013-01-12 21:02:00,21.3,17.8,30.05,NNW,338,7.3,7.3,86,0.00,,,0.00,VWS V14.01,2013-01-13 03:02:00,
2013-01-12 21:03:00,21.3,17.8,30.05,NW,315,6.9,7.3,86,0.00,,,0.00,VWS V14.01,2013-01-13 03:03:00,
2013-01-12 21:04:00,21.3,17.8,30.05,NW,315,6.9,6.9,86,0.00,,,0.00,VWS V14.01,2013-01-13 03:04:00,
2013-01-12 21:05:00,21.5,18.0,30.05,NW,315,6.9,6.9,86,0.00,,,0.00,VWS V14.01,2013-01-13 03:05:00,
2013-01-12 21:06:00,21.5,18.0,30.05,North,0,6.4,6.9,86,0.00,,,0.00,VWS V14.01,2013-01-13 03:06:00,
2013-01-12 21:07:00,21.5,18.0,30.05,North,0,6.4,6.4,86,0.00,,,0.00,VWS V14.01,2013-01-13 03:07:00,
2013-01-12 21:08:00,21.5,18.0,30.06,NNW,338,6.0,6.4,86,0.00,,,0.00,VWS V14.01,2013-01-13 03:08:00,
2013-01-12 21:09:00,21.5,18.0,30.05,NNW,338,6.0,6.0,86,0.00,,,0.00,VWS V14.01,2013-01-13 03:09:00,
2013-01-12 21:10:00,21.5,18.0,30.05,NW,315,10.0,10.0,86,0.00,,,0.00,VWS V14.01,2013-01-13 03:10:00,
2013-01-12 21:11:00,21.5,18.0,30.05,NW,315,10.0,10.0,86,0.00,,,0.00,VWS V14.01,2013-01-13 03:11:00,
2013-01-12 21:12:00,21.5,18.0,30.05,NW,315,10.0,10.0,86,0.00,,,0.00,VWS V14.01,2013-01-13 03:12:00,
2013-01-12 21:13:00,21.7,18.2,30.05,WNW,292,12.5,12.5,86,0.00,,,0.00,VWS V14.01,2013-01-13 03:13:00,
2013-01-12 21:14:00,21.7,18.2,30.05,NNW,338,9.8,12.5,86,0.00,,,0.00,VWS V14.01,2013-01-13 03:14:00,
2013-01-12 21:15:00,21.7,18.2,30.05,NNW,338,9.8,9.8,86,0.00,,,0.00,VWS V14.01,2013-01-13 03:15:00,
2013-01-12 21:16:00,21.7,17.9,30.05,WNW,292,12.7,12.7,85,0.00,,,0.00,VWS V14.01,2013-01-13 03:16:00,
2013-01-12 21:17:00,21.7,17.9,30.05,WNW,292,12.7,12.7,85,0.00,,,0.00,VWS V14.01,2013-01-13 03:17:00,
2013-01-12 21:18:00,21.7,17.9,30.05,NNW,338,13.1,13.1,85,0.00,,,0.00,VWS V14.01,2013-01-13 03:18:00,
2013-01-12 21:19:00,21.5,17.7,30.05,NNW,338,13.1,13.1,85,0.00,,,0.00,VWS V14.01,2013-01-13 03:19:00,
2013-01-12 21:20:00,21.5,17.7,30.05,NNW,338,13.1,13.1,85,0.00,,,0.00,VWS V14.01,2013-01-13 03:20:00,
2013-01-12 21:21:00,21.5,17.7,30.05,NNW,338,9.3,13.1,85,0.00,,,0.00,VWS V14.01,2013-01-13 03:21:00,
2013-01-12 21:22:00,21.5,17.7,30.05,NNW,338,9.3,9.3,85,0.00,,,0.00,VWS V14.01,2013-01-13 03:22:00,
2013-01-12 21:23:00,21.5,17.4,30.05,NW,315,8.0,9.3,84,0.00,,,0.00,VWS V14.01,2013-01-13 03:23:00,
2013-01-12 21:24:00,21.5,17.4,30.05,NW,315,8.0,8.0,84,0.00,,,0.00,VWS V14.01,2013-01-13 03:24:00,
2013-01-12 21:25:00,21.5,17.4,30.05,NNW,338,8.7,8.7,84,0.00,,,0.00,VWS V14.01,2013-01-13 03:25:00,
2013-01-12 21:26:00,21.5,17.4,30.05,NNW,338,8.7,8.7,84,0.00,,,0.00,VWS V14.01,2013-01-13 03:26:00,
2013-01-12 21:27:00,21.5,17.4,30.05,NNW,338,8.7,8.7,84,0.00,,,0.00,VWS V14.01,2013-01-13 03:27:00,
2013-01-12 21:28:00,21.5,17.4,30.05,NNW,338,8.7,8.7,84,0.00,,,0.00,VWS V14.01,2013-01-13 03:28:00,
2013-01-12 21:29:00,21.5,17.4,30.05,NNW,338,8.5,8.7,84,0.00,,,0.00,VWS V14.01,2013-01-13 03:29:00,
2013-01-12 21:30:00,21.5,17.4,30.04,NNW,338,8.5,8.5,84,0.00,,,0.00,VWS V14.01,2013-01-13 03:30:00,
2013-01-12 21:31:00,21.3,17.2,30.04,North,0,12.3,12.3,84,0.00,,,0.00,VWS V14.01,2013-01-13 03:31:00,
2013-01-12 21:32:00,21.3,17.2,30.04,North,0,12.3,12.3,84,0.00,,,0.00,VWS V14.01,2013-01-13 03:32:00,
2013-01-12 21:33:00,21.3,17.2,30.04,NNW,338,13.8,13.8,84,0.00,,,0.00,VWS V14.01,2013-01-13 03:33:00,
2013-01-12 21:34:00,21.3,17.2,30.04,NNW,338,13.8,13.8,84,0.00,,,0.00,VWS V14.01,2013-01-13 03:34:00,
2013-01-12 21:35:00,21.3,17.2,30.04,NNW,338,13.8,13.8,84,0.00,,,0.00,VWS V14.01,2013-01-13 03:35:00,
2013-01-12 21:36:00,21.3,17.2,30.04,NNW,338,6.9,13.8,84,0.00,,,0.00,VWS V14.01,2013-01-13 03:36:00,
2013-01-12 21:37:00,21.3,17.2,30.04,NNW,338,6.9,6.9,84,0.00,,,0.00,VWS V14.01,2013-01-13 03:37:00,
2013-01-12 21:38:00,21.3,17.2,30.04,NNW,338,10.5,10.5,84,0.00,,,0.00,VWS V14.01,2013-01-13 03:38:00,
2013-01-12 21:39:00,21.3,17.2,30.04,NNW,338,10.5,10.5,84,0.00,,,0.00,VWS V14.01,2013-01-13 03:39:00,
2013-01-12 21:40:00,21.3,17.2,30.05,WNW,292,14.0,14.0,84,0.00,,,0.00,VWS V14.01,2013-01-13 03:40:00,
2013-01-12 21:41:00,21.3,17.2,30.05,WNW,292,14.0,14.0,84,0.00,,,0.00,VWS V14.01,2013-01-13 03:41:00,
2013-01-12 21:42:00,21.3,17.2,30.05,WNW,292,14.0,14.0,84,0.00,,,0.00,VWS V14.01,2013-01-13 03:42:00,
2013-01-12 21:43:00,21.0,16.9,30.04,NNW,338,10.9,10.9,84,0.00,,,0.00,VWS V14.01,2013-01-13 03:43:00,
2013-01-12 21:44:00,21.0,16.9,30.05,NW,315,13.4,13.4,84,0.00,,,0.00,VWS V14.01,2013-01-13 03:44:00,
2013-01-12 21:45:00,21.0,16.9,30.04,NW,315,13.4,13.4,84,0.00,,,0.00,VWS V14.01,2013-01-13 03:45:00,
2013-01-12 21:46:00,21.0,16.9,30.05,NNW,338,7.3,13.4,84,0.00,,,0.00,VWS V14.01,2013-01-13 03:46:00,
2013-01-12 21:47:00,21.0,16.9,30.05,NNW,338,7.3,7.3,84,0.00,,,0.00,VWS V14.01,2013-01-13 03:47:00,
2013-01-12 21:48:00,21.0,16.9,30.05,NNW,338,15.6,15.6,84,0.00,,,0.00,VWS V14.01,2013-01-13 03:48:00,
2013-01-12 21:49:00,20.8,17.0,30.05,NNW,338,15.6,15.6,85,0.00,,,0.00,VWS V14.01,2013-01-13 03:49:00,
2013-01-12 21:50:00,20.8,17.0,30.05,NW,315,12.0,15.6,85,0.00,,,0.00,VWS V14.01,2013-01-13 03:50:00,
2013-01-12 21:51:00,20.8,17.0,30.05,NW,315,12.0,12.0,85,0.00,,,0.00,VWS V14.01,2013-01-13 03:51:00,
2013-01-12 21:52:00,20.8,17.0,30.05,NW,315,12.0,12.0,85,0.00,,,0.00,VWS V14.01,2013-01-13 03:52:00,
2013-01-12 21:53:00,20.8,17.3,30.04,NNW,338,8.7,12.0,86,0.00,,,0.00,VWS V14.01,2013-01-13 03:53:00,
2013-01-12 21:54:00,20.8,17.3,30.04,NNW,338,8.7,8.7,86,0.00,,,0.00,VWS V14.01,2013-01-13 03:54:00,
2013-01-12 21:55:00,20.4,16.9,30.04,NNW,338,13.4,13.4,86,0.00,,,0.00,VWS V14.01,2013-01-13 03:55:00,
2013-01-12 21:56:00,20.4,16.9,30.03,NNW,338,13.4,13.4,86,0.00,,,0.00,VWS V14.01,2013-01-13 03:56:00,
2013-01-12 21:57:00,20.4,16.9,30.03,NNW,338,13.4,13.4,86,0.00,,,0.00,VWS V14.01,2013-01-13 03:57:00,
2013-01-12 21:58:00,20.4,16.9,30.03,NNW,338,14.5,14.5,86,0.00,,,0.00,VWS V14.01,2013-01-13 03:58:00,
2013-01-12 21:59:00,20.3,16.8,30.03,NNW,338,14.7,14.7,86,0.00,,,0.00,VWS V14.01,2013-01-13 03:59:00,
2013-01-12 22:00:00,20.3,16.8,30.02,NNW,338,14.7,14.7,86,0.00,,,0.00,VWS V14.01,2013-01-13 04:00:00,
2013-01-12 22:01:00,20.3,16.8,30.02,North,0,10.2,14.7,86,0.00,,,0.00,VWS V14.01,2013-01-13 04:01:00,
2013-01-12 22:02:00,20.3,16.8,30.02,North,0,10.2,10.2,86,0.00,,,0.00,VWS V14.01,2013-01-13 04:02:00,
2013-01-12 22:03:00,20.3,16.8,30.03,NNW,338,13.1,13.1,86,0.00,,,0.00,VWS V14.01,2013-01-13 04:03:00,
2013-01-12 22:04:00,20.3,17.1,30.03,NNW,338,13.1,13.1,87,0.00,,,0.00,VWS V14.01,2013-01-13 04:04:00,
2013-01-12 22:05:00,20.3,17.1,30.03,NNW,338,9.3,13.1,87,0.00,,,0.00,VWS V14.01,2013-01-13 04:05:00,
2013-01-12 22:06:00,20.3,17.1,30.03,NNW,338,9.3,9.3,87,0.00,,,0.00,VWS V14.01,2013-01-13 04:06:00,
2013-01-12 22:07:00,20.3,17.1,30.03,NNW,338,9.3,9.3,87,0.00,,,0.00,VWS V14.01,2013-01-13 04:07:00,
2013-01-12 22:08:00,20.3,17.1,30.03,North,0,8.9,9.3,87,0.00,,,0.00,VWS V14.01,2013-01-13 04:08:00,
2013-01-12 22:09:00,20.3,17.1,30.03,North,0,8.9,8.9,87,0.00,,,0.00,VWS V14.01,2013-01-13 04:09:00,
2013-01-12 22:10:00,20.4,17.2,30.04,NNW,338,7.8,8.9,87,0.00,,,0.00,VWS V14.01,2013-01-13 04:10:00,
2013-01-12 22:11:00,20.4,17.2,30.03,NNW,338,7.8,7.8,87,0.00,,,0.00,VWS V14.01,2013-01-13 04:11:00,
2013-01-12 22:12:00,20.4,17.2,30.03,NNW,338,7.8,7.8,87,0.00,,,0.00,VWS V14.01,2013-01-13 04:12:00,
2013-01-12 22:13:00,20.3,17.1,30.03,NW,315,18.5,18.5,87,0.00,,,0.00,VWS V14.01,2013-01-13 04:13:00,
2013-01-12 22:14:00,20.1,16.9,30.04,NNW,338,11.8,18.5,87,0.00,,,0.00,VWS V14.01,2013-01-13 04:14:00,
2013-01-12 22:15:00,20.1,16.9,30.03,NNW,338,11.8,11.8,87,0.00,,,0.00,VWS V14.01,2013-01-13 04:15:00,
2013-01-12 22:16:00,19.9,16.7,30.03,WNW,292,14.0,14.0,87,0.00,,,0.00,VWS V14.01,2013-01-13 04:16:00,
2013-01-12 22:17:00,19.9,16.7,30.03,WNW,292,14.0,14.0,87,0.00,,,0.00,VWS V14.01,2013-01-13 04:17:00,
2013-01-12 22:18:00,19.9,16.7,30.03,NNW,338,9.8,14.0,87,0.00,,,0.00,VWS V14.01,2013-01-13 04:18:00,
2013-01-12 22:19:00,19.9,16.7,30.04,NNW,338,9.8,9.8,87,0.00,,,0.00,VWS V14.01,2013-01-13 04:19:00,
2013-01-12 22:20:00,19.9,16.7,30.04,NNW,338,8.2,9.8,87,0.00,,,0.00,VWS V14.01,2013-01-13 04:20:00,
2013-01-12 22:21:00,19.9,16.7,30.05,NNW,338,8.2,8.2,87,0.00,,,0.00,VWS V14.01,2013-01-13 04:21:00,
2013-01-12 22:22:00,19.9,16.7,30.05,NNW,338,8.2,8.2,87,0.00,,,0.00,VWS V14.01,2013-01-13 04:22:00,
2013-01-12 22:23:00,19.9,16.7,30.04,NNW,338,4.4,8.2,87,0.00,,,0.00,VWS V14.01,2013-01-13 04:23:00,
2013-01-12 22:24:00,19.9,16.7,30.04,NNW,338,4.4,4.4,87,0.00,,,0.00,VWS V14.01,2013-01-13 04:24:00,
2013-01-12 22:25:00,19.9,16.4,30.04,NNW,338,12.3,12.3,86,0.00,,,0.00,VWS V14.01,2013-01-13 04:25:00,
2013-01-12 22:26:00,19.9,16.4,30.04,NNW,338,12.3,12.3,86,0.00,,,0.00,VWS V14.01,2013-01-13 04:26:00,
2013-01-12 22:27:00,19.9,16.4,30.04,NNW,338,12.3,12.3,86,0.00,,,0.00,VWS V14.01,2013-01-13 04:27:00,
2013-01-12 22:28:00,19.9,16.4,30.03,NNW,338,12.9,12.9,86,0.00,,,0.00,VWS V14.01,2013-01-13 04:28:00,
2013-01-12 22:29:00,19.9,16.4,30.03,NNW,338,10.5,12.9,86,0.00,,,0.00,VWS V14.01,2013-01-13 04:29:00,
2013-01-12 22:30:00,19.9,16.4,30.03,NNW,338,10.5,10.5,86,0.00,,,0.00,VWS V14.01,2013-01-13 04:30:00,
2013-01-12 22:31:00,19.9,16.4,30.02,North,0,11.4,11.4,86,0.00,,,0.00,VWS V14.01,2013-01-13 04:31:00,
2013-01-12 22:32:00,19.9,16.4,30.02,North,0,11.4,11.4,86,0.00,,,0.00,VWS V14.01,2013-01-13 04:32:00,
2013-01-12 22:33:00,19.9,16.4,30.02,NNW,338,14.3,14.3,86,0.00,,,0.00,VWS V14.01,2013-01-13 04:33:00,
2013-01-12 22:34:00,19.9,16.4,30.02,NNW,338,14.3,14.3,86,0.00,,,0.00,VWS V14.01,2013-01-13 04:34:00,
2013-01-12 22:35:00,19.9,16.1,30.02,North,0,15.2,15.2,85,0.00,,,0.00,VWS V14.01,2013-01-13 04:35:00,
2013-01-12 22:36:00,19.9,16.1,30.02,North,0,15.2,15.2,85,0.00,,,0.00,VWS V14.01,2013-01-13 04:36:00,
2013-01-12 22:37:00,19.9,16.1,30.03,North,0,15.2,15.2,85,0.00,,,0.00,VWS V14.01,2013-01-13 04:37:00,
2013-01-12 22:38:00,20.1,16.3,30.04,NNW,338,9.1,15.2,85,0.00,,,0.00,VWS V14.01,2013-01-13 04:38:00,
2013-01-12 22:39:00,20.1,16.3,30.04,NNW,338,9.1,9.1,85,0.00,,,0.00,VWS V14.01,2013-01-13 04:39:00,
2013-01-12 22:40:00,20.1,16.3,30.04,NNW,338,9.8,9.8,85,0.00,,,0.00,VWS V14.01,2013-01-13 04:40:00,
2013-01-12 22:41:00,20.1,16.3,30.04,NNW,338,9.8,9.8,85,0.00,,,0.00,VWS V14.01,2013-01-13 04:41:00,
2013-01-12 22:42:00,20.3,16.5,30.04,North,0,12.3,12.3,85,0.00,,,0.00,VWS V14.01,2013-01-13 04:42:00,
2013-01-12 22:43:00,20.3,16.5,30.04,North,0,12.3,12.3,85,0.00,,,0.00,VWS V14.01,2013-01-13 04:43:00,
2013-01-12 22:44:00,20.3,16.2,30.05,NNW,338,5.5,12.3,84,0.00,,,0.00,VWS V14.01,2013-01-13 04:44:00,
2013-01-12 22:45:00,20.3,16.2,30.05,NNW,338,5.5,5.5,84,0.00,,,0.00,VWS V14.01,2013-01-13 04:45:00,
2013-01-12 22:46:00,20.4,16.4,30.05,NNW,338,4.4,5.5,84,0.00,,,0.00,VWS V14.01,2013-01-13 04:46:00,
2013-01-12 22:47:00,20.4,16.4,30.05,NNW,338,4.4,4.4,84,0.00,,,0.00,VWS V14.01,2013-01-13 04:47:00,
2013-01-12 22:48:00,20.4,16.1,30.05,NW,315,6.7,6.7,83,0.00,,,0.00,VWS V14.01,2013-01-13 04:48:00,
2013-01-12 22:49:00,20.4,16.1,30.06,NW,315,6.7,6.7,83,0.00,,,0.00,VWS V14.01,2013-01-13 04:49:00,
2013-01-12 22:50:00,20.4,15.8,30.07,NW,315,6.7,6.7,82,0.00,,,0.00,VWS V14.01,2013-01-13 04:50:00,
2013-01-12 22:51:00,20.4,15.8,30.07,NW,315,7.6,7.6,82,0.00,,,0.00,VWS V14.01,2013-01-13 04:51:00,
2013-01-12 22:52:00,20.4,15.8,30.07,NW,315,7.6,7.6,82,0.00,,,0.00,VWS V14.01,2013-01-13 04:52:00,
2013-01-12 22:53:00,20.8,15.9,30.08,NW,315,9.3,9.3,81,0.00,,,0.00,VWS V14.01,2013-01-13 04:53:00,
2013-01-12 22:54:00,20.8,15.9,30.07,NW,315,9.3,9.3,81,0.00,,,0.00,VWS V14.01,2013-01-13 04:54:00,
2013-01-12 22:55:00,20.8,15.9,30.08,WNW,292,6.9,9.3,81,0.00,,,0.00,VWS V14.01,2013-01-13 04:55:00,
2013-01-12 22:56:00,20.8,15.9,30.07,WNW,292,6.9,6.9,81,0.00,,,0.00,VWS V14.01,2013-01-13 04:56:00,
2013-01-12 22:57:00,20.8,15.9,30.07,WNW,292,6.9,6.9,81,0.00,,,0.00,VWS V14.01,2013-01-13 04:57:00,
2013-01-12 22:58:00,20.8,15.9,30.07,WNW,292,5.5,5.5,81,0.00,,,0.00,VWS V14.01,2013-01-13 04:58:00,
2013-01-12 22:59:00,20.8,15.6,30.07,WNW,292,13.4,13.4,80,0.00,,,0.00,VWS V14.01,2013-01-13 04:59:00,
2013-01-12 23:00:00,20.8,15.6,30.07,WNW,292,13.4,13.4,80,0.00,,,0.00,VWS V14.01,2013-01-13 05:00:00,
2013-01-12 23:01:00,20.8,15.6,30.08,NNW,338,5.8,13.4,80,0.00,,,0.00,VWS V14.01,2013-01-13 05:01:00,
2013-01-12 23:02:00,20.8,15.6,30.08,NNW,338,5.8,5.8,80,0.00,,,0.00,VWS V14.01,2013-01-13 05:02:00,
2013-01-12 23:03:00,20.8,15.6,30.08,NNW,338,5.8,5.8,80,0.00,,,0.00,VWS V14.01,2013-01-13 05:03:00,
2013-01-12 23:04:00,20.8,15.3,30.07,NNW,338,8.5,8.5,79,0.00,,,0.00,VWS V14.01,2013-01-13 05:04:00,
2013-01-12 23:05:00,20.8,15.3,30.07,NNW,338,8.5,8.5,79,0.00,,,0.00,VWS V14.01,2013-01-13 05:05:00,
2013-01-12 23:06:00,20.8,15.3,30.07,NNW,338,8.0,8.5,79,0.00,,,0.00,VWS V14.01,2013-01-13 05:06:00,
2013-01-12 23:07:00,20.8,15.3,30.07,NNW,338,8.0,8.0,79,0.00,,,0.00,VWS V14.01,2013-01-13 05:07:00,
2013-01-12 23:08:00,20.8,15.3,30.07,NNW,338,8.0,8.0,79,0.00,,,0.00,VWS V14.01,2013-01-13 05:08:00,
2013-01-12 23:09:00,20.8,15.3,30.07,WNW,292,12.5,12.5,79,0.00,,,0.00,VWS V14.01,2013-01-13 05:09:00,
2013-01-12 23:10:00,20.6,15.1,30.07,NNW,338,9.3,12.5,79,0.00,,,0.00,VWS V14.01,2013-01-13 05:10:00,
2013-01-12 23:11:00,20.6,15.1,30.07,NNW,338,9.3,9.3,79,0.00,,,0.00,VWS V14.01,2013-01-13 05:11:00,
2013-01-12 23:12:00,20.4,14.6,30.07,NW,315,7.1,9.3,78,0.00,,,0.00,VWS V14.01,2013-01-13 05:12:00,
2013-01-12 23:13:00,20.4,14.6,30.07,NW,315,7.1,7.1,78,0.00,,,0.00,VWS V14.01,2013-01-13 05:13:00,
2013-01-12 23:14:00,20.4,14.9,30.07,WNW,292,5.8,7.1,79,0.00,,,0.00,VWS V14.01,2013-01-13 05:14:00,
2013-01-12 23:15:00,20.4,14.9,30.07,WNW,292,5.8,5.8,79,0.00,,,0.00,VWS V14.01,2013-01-13 05:15:00,
2013-01-12 23:16:00,20.4,14.6,30.07,NW,315,5.5,5.8,78,0.00,,,0.00,VWS V14.01,2013-01-13 05:16:00,
2013-01-12 23:17:00,20.4,14.6,30.07,NW,315,5.5,5.5,78,0.00,,,0.00,VWS V14.01,2013-01-13 05:17:00,
2013-01-12 23:18:00,20.4,14.6,30.07,NW,315,5.5,5.5,78,0.00,,,0.00,VWS V14.01,2013-01-13 05:18:00,
2013-01-12 23:19:00,20.4,14.9,30.07,WNW,292,3.5,3.5,79,0.00,,,0.00,VWS V14.01,2013-01-13 05:19:00,
2013-01-12 23:20:00,20.4,14.9,30.07,WNW,292,3.5,3.5,79,0.00,,,0.00,VWS V14.01,2013-01-13 05:20:00,
2013-01-12 23:21:00,20.4,14.9,30.07,NW,315,8.9,8.9,79,0.00,,,0.00,VWS V14.01,2013-01-13 05:21:00,
2013-01-12 23:22:00,20.4,14.9,30.07,NW,315,8.9,8.9,79,0.00,,,0.00,VWS V14.01,2013-01-13 05:22:00,
2013-01-12 23:23:00,20.4,14.9,30.07,NW,315,8.9,8.9,79,0.00,,,0.00,VWS V14.01,2013-01-13 05:23:00,
2013-01-12 23:24:00,20.4,14.6,30.06,NNW,338,6.2,6.2,78,0.00,,,0.00,VWS V14.01,2013-01-13 05:24:00,
2013-01-12 23:25:00,20.4,14.9,30.05,WNW,292,9.1,9.1,79,0.00,,,0.00,VWS V14.01,2013-01-13 05:25:00,
2013-01-12 23:26:00,20.4,14.9,30.05,WNW,292,9.1,9.1,79,0.00,,,0.00,VWS V14.01,2013-01-13 05:26:00,
2013-01-12 23:27:00,20.4,14.9,30.06,NNW,338,12.0,12.0,79,0.00,,,0.00,VWS V14.01,2013-01-13 05:27:00,
2013-01-12 23:28:00,20.4,14.9,30.06,NNW,338,12.0,12.0,79,0.00,,,0.00,VWS V14.01,2013-01-13 05:28:00,
2013-01-12 23:29:00,20.3,14.8,30.06,WNW,292,9.6,12.0,79,0.00,,,0.00,VWS V14.01,2013-01-13 05:29:00,
2013-01-12 23:30:00,20.3,14.8,30.06,WNW,292,9.6,9.6,79,0.00,,,0.00,VWS V14.01,2013-01-13 05:30:00,
2013-01-12 23:31:00,20.1,14.9,30.06,NNW,338,2.9,9.6,80,0.00,,,0.00,VWS V14.01,2013-01-13 05:31:00,
2013-01-12 23:32:00,20.1,14.9,30.06,NNW,338,2.9,2.9,80,0.00,,,0.00,VWS V14.01,2013-01-13 05:32:00,
2013-01-12 23:33:00,20.1,14.9,30.06,NNW,338,2.9,2.9,80,0.00,,,0.00,VWS V14.01,2013-01-13 05:33:00,
2013-01-12 23:34:00,20.1,14.9,30.05,NW,315,6.0,6.0,80,0.00,,,0.00,VWS V14.01,2013-01-13 05:34:00,
2013-01-12 23:35:00,20.1,14.9,30.05,NW,315,6.0,6.0,80,0.00,,,0.00,VWS V14.01,2013-01-13 05:35:00,
2013-01-12 23:36:00,20.1,15.2,30.05,NW,315,5.8,6.0,81,0.00,,,0.00,VWS V14.01,2013-01-13 05:36:00,
2013-01-12 23:37:00,20.1,15.2,30.05,NW,315,5.8,5.8,81,0.00,,,0.00,VWS V14.01,2013-01-13 05:37:00,
2013-01-12 23:38:00,20.1,15.2,30.05,NW,315,5.8,5.8,81,0.00,,,0.00,VWS V14.01,2013-01-13 05:38:00,
2013-01-12 23:39:00,19.9,15.0,30.05,NW,315,8.7,8.7,81,0.00,,,0.00,VWS V14.01,2013-01-13 05:39:00,
2013-01-12 23:40:00,20.1,15.2,30.05,West,270,8.2,8.7,81,0.00,,,0.00,VWS V14.01,2013-01-13 05:40:00,
2013-01-12 23:41:00,20.1,15.2,30.05,West,270,8.2,8.2,81,0.00,,,0.00,VWS V14.01,2013-01-13 05:41:00,
2013-01-12 23:42:00,19.9,15.0,30.05,NW,315,8.5,8.5,81,0.00,,,0.00,VWS V14.01,2013-01-13 05:42:00,
2013-01-12 23:43:00,19.9,15.0,30.05,NW,315,8.5,8.5,81,0.00,,,0.00,VWS V14.01,2013-01-13 05:43:00,
2013-01-12 23:44:00,19.9,15.0,30.05,NNW,338,7.8,8.5,81,0.00,,,0.00,VWS V14.01,2013-01-13 05:44:00,
2013-01-12 23:45:00,19.9,15.0,30.05,NNW,338,7.8,7.8,81,0.00,,,0.00,VWS V14.01,2013-01-13 05:45:00,
2013-01-12 23:46:00,19.9,15.0,30.05,NW,315,6.0,7.8,81,0.00,,,0.00,VWS V14.01,2013-01-13 05:46:00,
2013-01-12 23:47:00,19.9,15.0,30.05,NW,315,6.0,6.0,81,0.00,,,0.00,VWS V14.01,2013-01-13 05:47:00,
2013-01-12 23:48:00,19.9,15.0,30.05,NW,315,6.0,6.0,81,0.00,,,0.00,VWS V14.01,2013-01-13 05:48:00,
2013-01-12 23:49:00,19.7,14.8,30.05,WNW,292,9.6,9.6,81,0.00,,,0.00,VWS V14.01,2013-01-13 05:49:00,
2013-01-12 23:50:00,19.7,14.8,30.05,NW,315,5.5,9.6,81,0.00,,,0.00,VWS V14.01,2013-01-13 05:50:00,
2013-01-12 23:51:00,19.5,14.6,30.05,NW,315,5.5,5.5,81,0.00,,,0.00,VWS V14.01,2013-01-13 05:51:00,
2013-01-12 23:52:00,19.5,14.6,30.05,NW,315,5.5,5.5,81,0.00,,,0.00,VWS V14.01,2013-01-13 05:52:00,
2013-01-12 23:53:00,19.5,14.6,30.05,NW,315,5.5,5.5,81,0.00,,,0.00,VWS V14.01,2013-01-13 05:53:00,
2013-01-12 23:54:00,19.5,14.9,30.05,NW,315,5.5,5.5,82,0.00,,,0.00,VWS V14.01,2013-01-13 05:54:00,
2013-01-12 23:55:00,19.4,14.8,30.06,WNW,292,7.6,7.6,82,0.00,,,0.00,VWS V14.01,2013-01-13 05:55:00,
2013-01-12 23:56:00,19.4,14.8,30.06,WNW,292,7.6,7.6,82,0.00,,,0.00,VWS V14.01,2013-01-13 05:56:00,
2013-01-12 23:57:00,19.4,14.8,30.06,WNW,292,8.0,8.0,82,0.00,,,0.00,VWS V14.01,2013-01-13 05:57:00,
2013-01-12 23:58:00,19.4,14.8,30.06,WNW,292,8.0,8.0,82,0.00,,,0.00,VWS V14.01,2013-01-13 05:58:00,
2013-01-12 23:59:00,19.4,14.8,30.05,NW,315,10.7,10.7,82,0.00,,,0.00,VWS V14.01,2013-01-13 05:59:00,